<?xml version="1.0" encoding="UTF-8" standalone="no" ?>
<gpx xmlns="http://www.topografix.com/GPX/1/1" xmlns:xsi="http://www.w3.org/2001/XMLSchema-instance" xsi:schemaLocation="http://www.topografix.com/GPX/1/1 http://www.topografix.com/GPX/1/1/gpx.xsd" version="1.1" creator="VisuGPX - https://www.visugpx.com">
  <metadata>
    <name>Circuit VTT 30 km</name>
    <desc><![CDATA[Circuit VTT en Dordogne au départ de Saint Léon sur Vézère]]></desc>
  </metadata>
  <trk>
    <name><![CDATA[Côte de Jor-Argiller-Fongran-Vermondie-St Léon-Sergeac]]></name>
    <desc><![CDATA[Sortie clients]]></desc>
    <trkseg>
      <trkpt lat="45.00185" lon="1.07166">
        <ele>75.400001525879</ele>
        <time>2011-07-13T11:13:55.000Z</time>
      </trkpt>
      <trkpt lat="45.00175" lon="1.07163">
        <ele>72.599998474121</ele>
        <time>2011-07-13T11:14:08.000Z</time>
      </trkpt>
      <trkpt lat="45.00169" lon="1.07169">
        <ele>69.400001525879</ele>
        <time>2011-07-13T11:14:13.000Z</time>
      </trkpt>
      <trkpt lat="45.00169" lon="1.07172">
        <ele>68.800003051758</ele>
        <time>2011-07-13T11:14:14.000Z</time>
      </trkpt>
      <trkpt lat="45.0016" lon="1.07199">
        <ele>67.599998474121</ele>
        <time>2011-07-13T11:14:21.000Z</time>
      </trkpt>
      <trkpt lat="45.00156" lon="1.07228">
        <ele>63.599998474121</ele>
        <time>2011-07-13T11:14:27.000Z</time>
      </trkpt>
      <trkpt lat="45.00154" lon="1.07282">
        <ele>60.799999237061</ele>
        <time>2011-07-13T11:14:36.000Z</time>
      </trkpt>
      <trkpt lat="45.00155" lon="1.07331">
        <ele>58.200000762939</ele>
        <time>2011-07-13T11:14:45.000Z</time>
      </trkpt>
      <trkpt lat="45.00153" lon="1.07366">
        <ele>58.400001525879</ele>
        <time>2011-07-13T11:14:52.000Z</time>
      </trkpt>
      <trkpt lat="45.00145" lon="1.07414">
        <ele>59.400001525879</ele>
        <time>2011-07-13T11:15:01.000Z</time>
      </trkpt>
      <trkpt lat="45.0014" lon="1.0745">
        <ele>59.400001525879</ele>
        <time>2011-07-13T11:15:08.000Z</time>
      </trkpt>
      <trkpt lat="45.00133" lon="1.07498">
        <ele>59.599998474121</ele>
        <time>2011-07-13T11:15:17.000Z</time>
      </trkpt>
      <trkpt lat="45.00133" lon="1.07502">
        <ele>58.200000762939</ele>
        <time>2011-07-13T11:15:18.000Z</time>
      </trkpt>
      <trkpt lat="45.00121" lon="1.07517">
        <ele>56.599998474121</ele>
        <time>2011-07-13T11:15:22.000Z</time>
      </trkpt>
      <trkpt lat="45.00117" lon="1.07516">
        <ele>57</ele>
        <time>2011-07-13T11:15:23.000Z</time>
      </trkpt>
      <trkpt lat="45.00082" lon="1.07506">
        <ele>59.200000762939</ele>
        <time>2011-07-13T11:15:31.000Z</time>
      </trkpt>
      <trkpt lat="45.00063" lon="1.07499">
        <ele>60.200000762939</ele>
        <time>2011-07-13T11:15:36.000Z</time>
      </trkpt>
      <trkpt lat="45.00055" lon="1.07498">
        <ele>60.200000762939</ele>
        <time>2011-07-13T11:15:38.000Z</time>
      </trkpt>
      <trkpt lat="45.00034" lon="1.0749">
        <ele>60.799999237061</ele>
        <time>2011-07-13T11:15:43.000Z</time>
      </trkpt>
      <trkpt lat="45.00014" lon="1.07486">
        <ele>61.200000762939</ele>
        <time>2011-07-13T11:15:48.000Z</time>
      </trkpt>
      <trkpt lat="44.99997" lon="1.07478">
        <ele>62</ele>
        <time>2011-07-13T11:15:53.000Z</time>
      </trkpt>
      <trkpt lat="44.99982" lon="1.0747">
        <ele>64</ele>
        <time>2011-07-13T11:15:58.000Z</time>
      </trkpt>
      <trkpt lat="44.9996" lon="1.07462">
        <ele>64</ele>
        <time>2011-07-13T11:16:05.000Z</time>
      </trkpt>
      <trkpt lat="44.99924" lon="1.07456">
        <ele>61.599998474121</ele>
        <time>2011-07-13T11:16:14.000Z</time>
      </trkpt>
      <trkpt lat="44.99892" lon="1.07456">
        <ele>60.799999237061</ele>
        <time>2011-07-13T11:16:22.000Z</time>
      </trkpt>
      <trkpt lat="44.99854" lon="1.07455">
        <ele>58.400001525879</ele>
        <time>2011-07-13T11:16:32.000Z</time>
      </trkpt>
      <trkpt lat="44.99823" lon="1.07453">
        <ele>57.400001525879</ele>
        <time>2011-07-13T11:16:40.000Z</time>
      </trkpt>
      <trkpt lat="44.9979" lon="1.0745">
        <ele>56.200000762939</ele>
        <time>2011-07-13T11:16:49.000Z</time>
      </trkpt>
      <trkpt lat="44.99766" lon="1.07443">
        <ele>55</ele>
        <time>2011-07-13T11:16:56.000Z</time>
      </trkpt>
      <trkpt lat="44.99748" lon="1.07437">
        <ele>53.799999237061</ele>
        <time>2011-07-13T11:17:01.000Z</time>
      </trkpt>
      <trkpt lat="44.99721" lon="1.07431">
        <ele>52.799999237061</ele>
        <time>2011-07-13T11:17:08.000Z</time>
      </trkpt>
      <trkpt lat="44.99692" lon="1.07424">
        <ele>52.400001525879</ele>
        <time>2011-07-13T11:17:15.000Z</time>
      </trkpt>
      <trkpt lat="44.99658" lon="1.07416">
        <ele>52.799999237061</ele>
        <time>2011-07-13T11:17:23.000Z</time>
      </trkpt>
      <trkpt lat="44.99654" lon="1.07415">
        <ele>52.799999237061</ele>
        <time>2011-07-13T11:17:24.000Z</time>
      </trkpt>
      <trkpt lat="44.99612" lon="1.07404">
        <ele>53.200000762939</ele>
        <time>2011-07-13T11:17:34.000Z</time>
      </trkpt>
      <trkpt lat="44.99592" lon="1.07398">
        <ele>54.400001525879</ele>
        <time>2011-07-13T11:17:39.000Z</time>
      </trkpt>
      <trkpt lat="44.99584" lon="1.07395">
        <ele>54.799999237061</ele>
        <time>2011-07-13T11:17:41.000Z</time>
      </trkpt>
      <trkpt lat="44.99562" lon="1.0739">
        <ele>54.799999237061</ele>
        <time>2011-07-13T11:17:46.000Z</time>
      </trkpt>
      <trkpt lat="44.99522" lon="1.07376">
        <ele>52.799999237061</ele>
        <time>2011-07-13T11:17:55.000Z</time>
      </trkpt>
      <trkpt lat="44.99485" lon="1.07362">
        <ele>50.400001525879</ele>
        <time>2011-07-13T11:18:04.000Z</time>
      </trkpt>
      <trkpt lat="44.99473" lon="1.07357">
        <ele>49.799999237061</ele>
        <time>2011-07-13T11:18:07.000Z</time>
      </trkpt>
      <trkpt lat="44.99461" lon="1.07348">
        <ele>49</ele>
        <time>2011-07-13T11:18:10.000Z</time>
      </trkpt>
      <trkpt lat="44.99438" lon="1.07346">
        <ele>48.400001525879</ele>
        <time>2011-07-13T11:18:15.000Z</time>
      </trkpt>
      <trkpt lat="44.99428" lon="1.07347">
        <ele>48.400001525879</ele>
        <time>2011-07-13T11:18:17.000Z</time>
      </trkpt>
      <trkpt lat="44.994" lon="1.0734">
        <ele>49.599998474121</ele>
        <time>2011-07-13T11:18:23.000Z</time>
      </trkpt>
      <trkpt lat="44.99353" lon="1.07324">
        <ele>51.200000762939</ele>
        <time>2011-07-13T11:18:33.000Z</time>
      </trkpt>
      <trkpt lat="44.99311" lon="1.0731">
        <ele>51.799999237061</ele>
        <time>2011-07-13T11:18:42.000Z</time>
      </trkpt>
      <trkpt lat="44.99275" lon="1.07292">
        <ele>53.400001525879</ele>
        <time>2011-07-13T11:18:50.000Z</time>
      </trkpt>
      <trkpt lat="44.99245" lon="1.07278">
        <ele>52.599998474121</ele>
        <time>2011-07-13T11:18:57.000Z</time>
      </trkpt>
      <trkpt lat="44.99228" lon="1.0727">
        <ele>52.599998474121</ele>
        <time>2011-07-13T11:19:01.000Z</time>
      </trkpt>
      <trkpt lat="44.99203" lon="1.07256">
        <ele>53</ele>
        <time>2011-07-13T11:19:07.000Z</time>
      </trkpt>
      <trkpt lat="44.99183" lon="1.07244">
        <ele>53.200000762939</ele>
        <time>2011-07-13T11:19:12.000Z</time>
      </trkpt>
      <trkpt lat="44.99145" lon="1.07223">
        <ele>54</ele>
        <time>2011-07-13T11:19:21.000Z</time>
      </trkpt>
      <trkpt lat="44.99101" lon="1.072">
        <ele>55</ele>
        <time>2011-07-13T11:19:31.000Z</time>
      </trkpt>
      <trkpt lat="44.99067" lon="1.07175">
        <ele>55</ele>
        <time>2011-07-13T11:19:39.000Z</time>
      </trkpt>
      <trkpt lat="44.99031" lon="1.07143">
        <ele>55.400001525879</ele>
        <time>2011-07-13T11:19:48.000Z</time>
      </trkpt>
      <trkpt lat="44.99014" lon="1.07121">
        <ele>52.599998474121</ele>
        <time>2011-07-13T11:19:53.000Z</time>
      </trkpt>
      <trkpt lat="44.99001" lon="1.07087">
        <ele>52</ele>
        <time>2011-07-13T11:19:59.000Z</time>
      </trkpt>
      <trkpt lat="44.98998" lon="1.07076">
        <ele>51.200000762939</ele>
        <time>2011-07-13T11:20:01.000Z</time>
      </trkpt>
      <trkpt lat="44.99001" lon="1.07038">
        <ele>49.599998474121</ele>
        <time>2011-07-13T11:20:07.000Z</time>
      </trkpt>
      <trkpt lat="44.99008" lon="1.0703">
        <ele>49</ele>
        <time>2011-07-13T11:20:09.000Z</time>
      </trkpt>
      <trkpt lat="44.99027" lon="1.07005">
        <ele>49.400001525879</ele>
        <time>2011-07-13T11:20:15.000Z</time>
      </trkpt>
      <trkpt lat="44.99038" lon="1.06973">
        <ele>50.200000762939</ele>
        <time>2011-07-13T11:20:21.000Z</time>
      </trkpt>
      <trkpt lat="44.99042" lon="1.06936">
        <ele>52.400001525879</ele>
        <time>2011-07-13T11:20:27.000Z</time>
      </trkpt>
      <trkpt lat="44.99053" lon="1.06871">
        <ele>55</ele>
        <time>2011-07-13T11:20:37.000Z</time>
      </trkpt>
      <trkpt lat="44.9906" lon="1.06839">
        <ele>56.599998474121</ele>
        <time>2011-07-13T11:20:42.000Z</time>
      </trkpt>
      <trkpt lat="44.99066" lon="1.06807">
        <ele>57.400001525879</ele>
        <time>2011-07-13T11:20:47.000Z</time>
      </trkpt>
      <trkpt lat="44.99073" lon="1.06775">
        <ele>60.200000762939</ele>
        <time>2011-07-13T11:20:52.000Z</time>
      </trkpt>
      <trkpt lat="44.99074" lon="1.06769">
        <ele>61</ele>
        <time>2011-07-13T11:20:53.000Z</time>
      </trkpt>
      <trkpt lat="44.99085" lon="1.06744">
        <ele>62.400001525879</ele>
        <time>2011-07-13T11:20:58.000Z</time>
      </trkpt>
      <trkpt lat="44.99098" lon="1.06722">
        <ele>60.400001525879</ele>
        <time>2011-07-13T11:21:02.000Z</time>
      </trkpt>
      <trkpt lat="44.99108" lon="1.06706">
        <ele>59.200000762939</ele>
        <time>2011-07-13T11:21:05.000Z</time>
      </trkpt>
      <trkpt lat="44.99124" lon="1.06663">
        <ele>56.400001525879</ele>
        <time>2011-07-13T11:21:12.000Z</time>
      </trkpt>
      <trkpt lat="44.99133" lon="1.06631">
        <ele>56.599998474121</ele>
        <time>2011-07-13T11:21:17.000Z</time>
      </trkpt>
      <trkpt lat="44.99142" lon="1.06588">
        <ele>58</ele>
        <time>2011-07-13T11:21:24.000Z</time>
      </trkpt>
      <trkpt lat="44.99149" lon="1.06541">
        <ele>58.200000762939</ele>
        <time>2011-07-13T11:21:31.000Z</time>
      </trkpt>
      <trkpt lat="44.99149" lon="1.06534">
        <ele>58.200000762939</ele>
        <time>2011-07-13T11:21:32.000Z</time>
      </trkpt>
      <trkpt lat="44.99157" lon="1.06477">
        <ele>59.799999237061</ele>
        <time>2011-07-13T11:21:41.000Z</time>
      </trkpt>
      <trkpt lat="44.99172" lon="1.06473">
        <ele>60.599998474121</ele>
        <time>2011-07-13T11:21:45.000Z</time>
      </trkpt>
      <trkpt lat="44.99211" lon="1.06489">
        <ele>57</ele>
        <time>2011-07-13T11:21:54.000Z</time>
      </trkpt>
      <trkpt lat="44.9925" lon="1.06507">
        <ele>56.799999237061</ele>
        <time>2011-07-13T11:22:03.000Z</time>
      </trkpt>
      <trkpt lat="44.99282" lon="1.0652">
        <ele>54.599998474121</ele>
        <time>2011-07-13T11:22:11.000Z</time>
      </trkpt>
      <trkpt lat="44.99295" lon="1.06526">
        <ele>55.200000762939</ele>
        <time>2011-07-13T11:22:16.000Z</time>
      </trkpt>
      <trkpt lat="44.99295" lon="1.06526">
        <ele>54.200000762939</ele>
        <time>2011-07-13T11:22:18.000Z</time>
      </trkpt>
      <trkpt lat="44.99307" lon="1.0652">
        <ele>43.799999237061</ele>
        <time>2011-07-13T11:24:02.000Z</time>
      </trkpt>
      <trkpt lat="44.99313" lon="1.06501">
        <ele>44.200000762939</ele>
        <time>2011-07-13T11:24:08.000Z</time>
      </trkpt>
      <trkpt lat="44.99322" lon="1.06477">
        <ele>43.799999237061</ele>
        <time>2011-07-13T11:24:14.000Z</time>
      </trkpt>
      <trkpt lat="44.99324" lon="1.06473">
        <ele>43.799999237061</ele>
        <time>2011-07-13T11:24:15.000Z</time>
      </trkpt>
      <trkpt lat="44.99335" lon="1.0647">
        <ele>43.799999237061</ele>
        <time>2011-07-13T11:24:19.000Z</time>
      </trkpt>
      <trkpt lat="44.99364" lon="1.06487">
        <ele>46.200000762939</ele>
        <time>2011-07-13T11:24:29.000Z</time>
      </trkpt>
      <trkpt lat="44.99374" lon="1.06503">
        <ele>47.799999237061</ele>
        <time>2011-07-13T11:24:34.000Z</time>
      </trkpt>
      <trkpt lat="44.99364" lon="1.06535">
        <ele>52</ele>
        <time>2011-07-13T11:24:41.000Z</time>
      </trkpt>
      <trkpt lat="44.99352" lon="1.0657">
        <ele>54.599998474121</ele>
        <time>2011-07-13T11:24:49.000Z</time>
      </trkpt>
      <trkpt lat="44.99347" lon="1.06592">
        <ele>55.400001525879</ele>
        <time>2011-07-13T11:24:54.000Z</time>
      </trkpt>
      <trkpt lat="44.99345" lon="1.06616">
        <ele>57.599998474121</ele>
        <time>2011-07-13T11:24:59.000Z</time>
      </trkpt>
      <trkpt lat="44.99354" lon="1.06636">
        <ele>58.400001525879</ele>
        <time>2011-07-13T11:25:04.000Z</time>
      </trkpt>
      <trkpt lat="44.99372" lon="1.06666">
        <ele>61</ele>
        <time>2011-07-13T11:25:12.000Z</time>
      </trkpt>
      <trkpt lat="44.99389" lon="1.06696">
        <ele>62.599998474121</ele>
        <time>2011-07-13T11:25:19.000Z</time>
      </trkpt>
      <trkpt lat="44.99409" lon="1.06723">
        <ele>64.199996948242</ele>
        <time>2011-07-13T11:25:26.000Z</time>
      </trkpt>
      <trkpt lat="44.99446" lon="1.06767">
        <ele>67.800003051758</ele>
        <time>2011-07-13T11:25:39.000Z</time>
      </trkpt>
      <trkpt lat="44.9947" lon="1.06794">
        <ele>70</ele>
        <time>2011-07-13T11:25:48.000Z</time>
      </trkpt>
      <trkpt lat="44.99485" lon="1.06813">
        <ele>72.400001525879</ele>
        <time>2011-07-13T11:25:54.000Z</time>
      </trkpt>
      <trkpt lat="44.99491" lon="1.06821">
        <ele>74.199996948242</ele>
        <time>2011-07-13T11:25:58.000Z</time>
      </trkpt>
      <trkpt lat="44.99492" lon="1.06823">
        <ele>75</ele>
        <time>2011-07-13T11:26:00.000Z</time>
      </trkpt>
      <trkpt lat="44.99503" lon="1.0684">
        <ele>78.800003051758</ele>
        <time>2011-07-13T11:26:06.000Z</time>
      </trkpt>
      <trkpt lat="44.99527" lon="1.06873">
        <ele>80.400001525879</ele>
        <time>2011-07-13T11:26:14.000Z</time>
      </trkpt>
      <trkpt lat="44.9953" lon="1.06876">
        <ele>80.800003051758</ele>
        <time>2011-07-13T11:26:15.000Z</time>
      </trkpt>
      <trkpt lat="44.99537" lon="1.06882">
        <ele>81.199996948242</ele>
        <time>2011-07-13T11:26:17.000Z</time>
      </trkpt>
      <trkpt lat="44.99577" lon="1.06903">
        <ele>84.400001525879</ele>
        <time>2011-07-13T11:26:28.000Z</time>
      </trkpt>
      <trkpt lat="44.99609" lon="1.06919">
        <ele>90.199996948242</ele>
        <time>2011-07-13T11:26:37.000Z</time>
      </trkpt>
      <trkpt lat="44.99647" lon="1.0694">
        <ele>101.59999847412</ele>
        <time>2011-07-13T11:26:48.000Z</time>
      </trkpt>
      <trkpt lat="44.99678" lon="1.06957">
        <ele>103.80000305176</ele>
        <time>2011-07-13T11:26:57.000Z</time>
      </trkpt>
      <trkpt lat="44.99695" lon="1.06967">
        <ele>104</ele>
        <time>2011-07-13T11:27:02.000Z</time>
      </trkpt>
      <trkpt lat="44.99725" lon="1.06979">
        <ele>103.40000152588</ele>
        <time>2011-07-13T11:27:10.000Z</time>
      </trkpt>
      <trkpt lat="44.99747" lon="1.06973">
        <ele>103</ele>
        <time>2011-07-13T11:27:16.000Z</time>
      </trkpt>
      <trkpt lat="44.99772" lon="1.06954">
        <ele>106.59999847412</ele>
        <time>2011-07-13T11:27:24.000Z</time>
      </trkpt>
      <trkpt lat="44.9979" lon="1.06931">
        <ele>108.40000152588</ele>
        <time>2011-07-13T11:27:31.000Z</time>
      </trkpt>
      <trkpt lat="44.99803" lon="1.06915">
        <ele>110.19999694824</ele>
        <time>2011-07-13T11:27:36.000Z</time>
      </trkpt>
      <trkpt lat="44.9982" lon="1.06901">
        <ele>110.59999847412</ele>
        <time>2011-07-13T11:27:42.000Z</time>
      </trkpt>
      <trkpt lat="44.99833" lon="1.06894">
        <ele>110.40000152588</ele>
        <time>2011-07-13T11:27:47.000Z</time>
      </trkpt>
      <trkpt lat="44.99859" lon="1.06885">
        <ele>109.80000305176</ele>
        <time>2011-07-13T11:27:54.000Z</time>
      </trkpt>
      <trkpt lat="44.99877" lon="1.06883">
        <ele>109.59999847412</ele>
        <time>2011-07-13T11:28:00.000Z</time>
      </trkpt>
      <trkpt lat="44.99901" lon="1.06888">
        <ele>108.40000152588</ele>
        <time>2011-07-13T11:28:06.000Z</time>
      </trkpt>
      <trkpt lat="44.99915" lon="1.06892">
        <ele>108</ele>
        <time>2011-07-13T11:28:09.000Z</time>
      </trkpt>
      <trkpt lat="44.99934" lon="1.0691">
        <ele>108</ele>
        <time>2011-07-13T11:28:14.000Z</time>
      </trkpt>
      <trkpt lat="44.99944" lon="1.06927">
        <ele>108.40000152588</ele>
        <time>2011-07-13T11:28:18.000Z</time>
      </trkpt>
      <trkpt lat="44.99963" lon="1.06926">
        <ele>109.19999694824</ele>
        <time>2011-07-13T11:28:23.000Z</time>
      </trkpt>
      <trkpt lat="44.99984" lon="1.06909">
        <ele>110.19999694824</ele>
        <time>2011-07-13T11:28:30.000Z</time>
      </trkpt>
      <trkpt lat="44.99996" lon="1.06893">
        <ele>111.19999694824</ele>
        <time>2011-07-13T11:28:35.000Z</time>
      </trkpt>
      <trkpt lat="45.00004" lon="1.06873">
        <ele>113.40000152588</ele>
        <time>2011-07-13T11:28:40.000Z</time>
      </trkpt>
      <trkpt lat="45.00011" lon="1.0685">
        <ele>114.59999847412</ele>
        <time>2011-07-13T11:28:45.000Z</time>
      </trkpt>
      <trkpt lat="45.00017" lon="1.06829">
        <ele>115.80000305176</ele>
        <time>2011-07-13T11:28:50.000Z</time>
      </trkpt>
      <trkpt lat="45.00026" lon="1.06785">
        <ele>117.40000152588</ele>
        <time>2011-07-13T11:28:59.000Z</time>
      </trkpt>
      <trkpt lat="45.00027" lon="1.06754">
        <ele>119.59999847412</ele>
        <time>2011-07-13T11:29:05.000Z</time>
      </trkpt>
      <trkpt lat="45.00028" lon="1.06708">
        <ele>121.40000152588</ele>
        <time>2011-07-13T11:29:14.000Z</time>
      </trkpt>
      <trkpt lat="45.00031" lon="1.06663">
        <ele>123.59999847412</ele>
        <time>2011-07-13T11:29:23.000Z</time>
      </trkpt>
      <trkpt lat="45.00031" lon="1.06619">
        <ele>126.19999694824</ele>
        <time>2011-07-13T11:29:32.000Z</time>
      </trkpt>
      <trkpt lat="45.00034" lon="1.06586">
        <ele>128</ele>
        <time>2011-07-13T11:29:39.000Z</time>
      </trkpt>
      <trkpt lat="45.00043" lon="1.06568">
        <ele>128.19999694824</ele>
        <time>2011-07-13T11:29:44.000Z</time>
      </trkpt>
      <trkpt lat="45.00064" lon="1.06543">
        <ele>128.80000305176</ele>
        <time>2011-07-13T11:29:52.000Z</time>
      </trkpt>
      <trkpt lat="45.00079" lon="1.06522">
        <ele>126.80000305176</ele>
        <time>2011-07-13T11:29:58.000Z</time>
      </trkpt>
      <trkpt lat="45.0009" lon="1.06505">
        <ele>126</ele>
        <time>2011-07-13T11:30:02.000Z</time>
      </trkpt>
      <trkpt lat="45.00112" lon="1.06483">
        <ele>128.39999389648</ele>
        <time>2011-07-13T11:30:08.000Z</time>
      </trkpt>
      <trkpt lat="45.00126" lon="1.06465">
        <ele>128.60000610352</ele>
        <time>2011-07-13T11:30:12.000Z</time>
      </trkpt>
      <trkpt lat="45.00161" lon="1.06441">
        <ele>127.19999694824</ele>
        <time>2011-07-13T11:30:19.000Z</time>
      </trkpt>
      <trkpt lat="45.00203" lon="1.06419">
        <ele>124.40000152588</ele>
        <time>2011-07-13T11:30:27.000Z</time>
      </trkpt>
      <trkpt lat="45.00218" lon="1.06409">
        <ele>123.59999847412</ele>
        <time>2011-07-13T11:30:30.000Z</time>
      </trkpt>
      <trkpt lat="45.00256" lon="1.064">
        <ele>125.40000152588</ele>
        <time>2011-07-13T11:30:38.000Z</time>
      </trkpt>
      <trkpt lat="45.0026" lon="1.06399">
        <ele>125.59999847412</ele>
        <time>2011-07-13T11:30:39.000Z</time>
      </trkpt>
      <trkpt lat="45.00293" lon="1.06398">
        <ele>128.19999694824</ele>
        <time>2011-07-13T11:30:48.000Z</time>
      </trkpt>
      <trkpt lat="45.00309" lon="1.06398">
        <ele>131.80000305176</ele>
        <time>2011-07-13T11:30:55.000Z</time>
      </trkpt>
      <trkpt lat="45.00319" lon="1.06398">
        <ele>132.39999389648</ele>
        <time>2011-07-13T11:31:00.000Z</time>
      </trkpt>
      <trkpt lat="45.00323" lon="1.06399">
        <ele>132.39999389648</ele>
        <time>2011-07-13T11:31:02.000Z</time>
      </trkpt>
      <trkpt lat="45.00335" lon="1.06403">
        <ele>132.19999694824</ele>
        <time>2011-07-13T11:31:08.000Z</time>
      </trkpt>
      <trkpt lat="45.00337" lon="1.06404">
        <ele>132</ele>
        <time>2011-07-13T11:31:09.000Z</time>
      </trkpt>
      <trkpt lat="45.00347" lon="1.06403">
        <ele>132.19999694824</ele>
        <time>2011-07-13T11:31:15.000Z</time>
      </trkpt>
      <trkpt lat="45.00353" lon="1.06405">
        <ele>132.39999389648</ele>
        <time>2011-07-13T11:31:18.000Z</time>
      </trkpt>
      <trkpt lat="45.0035" lon="1.0641">
        <ele>132.60000610352</ele>
        <time>2011-07-13T11:31:22.000Z</time>
      </trkpt>
      <trkpt lat="45.00339" lon="1.0641">
        <ele>131.60000610352</ele>
        <time>2011-07-13T11:31:27.000Z</time>
      </trkpt>
      <trkpt lat="45.0033" lon="1.0643">
        <ele>129.80000305176</ele>
        <time>2011-07-13T11:31:33.000Z</time>
      </trkpt>
      <trkpt lat="45.00329" lon="1.06458">
        <ele>127.80000305176</ele>
        <time>2011-07-13T11:31:40.000Z</time>
      </trkpt>
      <trkpt lat="45.00329" lon="1.06485">
        <ele>125.80000305176</ele>
        <time>2011-07-13T11:31:45.000Z</time>
      </trkpt>
      <trkpt lat="45.00331" lon="1.06521">
        <ele>123</ele>
        <time>2011-07-13T11:31:49.000Z</time>
      </trkpt>
      <trkpt lat="45.00332" lon="1.06543">
        <ele>121.19999694824</ele>
        <time>2011-07-13T11:31:51.000Z</time>
      </trkpt>
      <trkpt lat="45.00327" lon="1.06584">
        <ele>118.59999847412</ele>
        <time>2011-07-13T11:31:55.000Z</time>
      </trkpt>
      <trkpt lat="45.00323" lon="1.06595">
        <ele>117</ele>
        <time>2011-07-13T11:31:57.000Z</time>
      </trkpt>
      <trkpt lat="45.00323" lon="1.06599">
        <ele>117.80000305176</ele>
        <time>2011-07-13T11:32:01.000Z</time>
      </trkpt>
      <trkpt lat="45.00325" lon="1.06603">
        <ele>127.19999694824</ele>
        <time>2011-07-13T11:34:59.000Z</time>
      </trkpt>
      <trkpt lat="45.0033" lon="1.06617">
        <ele>126.19999694824</ele>
        <time>2011-07-13T11:35:03.000Z</time>
      </trkpt>
      <trkpt lat="45.00346" lon="1.06654">
        <ele>121.19999694824</ele>
        <time>2011-07-13T11:35:09.000Z</time>
      </trkpt>
      <trkpt lat="45.00364" lon="1.06694">
        <ele>115</ele>
        <time>2011-07-13T11:35:14.000Z</time>
      </trkpt>
      <trkpt lat="45.00382" lon="1.06734">
        <ele>110.80000305176</ele>
        <time>2011-07-13T11:35:19.000Z</time>
      </trkpt>
      <trkpt lat="45.00387" lon="1.06742">
        <ele>109.59999847412</ele>
        <time>2011-07-13T11:35:20.000Z</time>
      </trkpt>
      <trkpt lat="45.00406" lon="1.06774">
        <ele>104</ele>
        <time>2011-07-13T11:35:25.000Z</time>
      </trkpt>
      <trkpt lat="45.00408" lon="1.06776">
        <ele>103.19999694824</ele>
        <time>2011-07-13T11:35:26.000Z</time>
      </trkpt>
      <trkpt lat="45.00422" lon="1.06777">
        <ele>100.59999847412</ele>
        <time>2011-07-13T11:35:30.000Z</time>
      </trkpt>
      <trkpt lat="45.0043" lon="1.06784">
        <ele>98.599998474121</ele>
        <time>2011-07-13T11:35:32.000Z</time>
      </trkpt>
      <trkpt lat="45.00441" lon="1.06796">
        <ele>95</ele>
        <time>2011-07-13T11:35:35.000Z</time>
      </trkpt>
      <trkpt lat="45.00451" lon="1.06813">
        <ele>90</ele>
        <time>2011-07-13T11:35:38.000Z</time>
      </trkpt>
      <trkpt lat="45.00464" lon="1.06827">
        <ele>86.199996948242</ele>
        <time>2011-07-13T11:35:42.000Z</time>
      </trkpt>
      <trkpt lat="45.00471" lon="1.06837">
        <ele>86.599998474121</ele>
        <time>2011-07-13T11:35:46.000Z</time>
      </trkpt>
      <trkpt lat="45.00471" lon="1.06858">
        <ele>87.800003051758</ele>
        <time>2011-07-13T11:35:50.000Z</time>
      </trkpt>
      <trkpt lat="45.00472" lon="1.06876">
        <ele>87.599998474121</ele>
        <time>2011-07-13T11:35:55.000Z</time>
      </trkpt>
      <trkpt lat="45.00471" lon="1.06893">
        <ele>89.199996948242</ele>
        <time>2011-07-13T11:36:01.000Z</time>
      </trkpt>
      <trkpt lat="45.00469" lon="1.069">
        <ele>88</ele>
        <time>2011-07-13T11:36:03.000Z</time>
      </trkpt>
      <trkpt lat="45.00465" lon="1.06927">
        <ele>85.800003051758</ele>
        <time>2011-07-13T11:36:07.000Z</time>
      </trkpt>
      <trkpt lat="45.00473" lon="1.06971">
        <ele>89.800003051758</ele>
        <time>2011-07-13T11:36:14.000Z</time>
      </trkpt>
      <trkpt lat="45.00473" lon="1.06976">
        <ele>90.599998474121</ele>
        <time>2011-07-13T11:36:15.000Z</time>
      </trkpt>
      <trkpt lat="45.0048" lon="1.06984">
        <ele>93.400001525879</ele>
        <time>2011-07-13T11:36:20.000Z</time>
      </trkpt>
      <trkpt lat="45.00489" lon="1.06979">
        <ele>96</ele>
        <time>2011-07-13T11:36:26.000Z</time>
      </trkpt>
      <trkpt lat="45.00499" lon="1.06975">
        <ele>99.599998474121</ele>
        <time>2011-07-13T11:36:32.000Z</time>
      </trkpt>
      <trkpt lat="45.00511" lon="1.06969">
        <ele>103</ele>
        <time>2011-07-13T11:36:39.000Z</time>
      </trkpt>
      <trkpt lat="45.00518" lon="1.06964">
        <ele>106.40000152588</ele>
        <time>2011-07-13T11:36:44.000Z</time>
      </trkpt>
      <trkpt lat="45.00528" lon="1.06956">
        <ele>108.59999847412</ele>
        <time>2011-07-13T11:36:51.000Z</time>
      </trkpt>
      <trkpt lat="45.00529" lon="1.06956">
        <ele>108.40000152588</ele>
        <time>2011-07-13T11:36:52.000Z</time>
      </trkpt>
      <trkpt lat="45.00539" lon="1.06952">
        <ele>110.80000305176</ele>
        <time>2011-07-13T11:36:59.000Z</time>
      </trkpt>
      <trkpt lat="45.00548" lon="1.06944">
        <ele>114.59999847412</ele>
        <time>2011-07-13T11:37:06.000Z</time>
      </trkpt>
      <trkpt lat="45.00556" lon="1.06931">
        <ele>117.40000152588</ele>
        <time>2011-07-13T11:37:13.000Z</time>
      </trkpt>
      <trkpt lat="45.0056" lon="1.06917">
        <ele>118.19999694824</ele>
        <time>2011-07-13T11:37:20.000Z</time>
      </trkpt>
      <trkpt lat="45.00564" lon="1.06895">
        <ele>121</ele>
        <time>2011-07-13T11:37:30.000Z</time>
      </trkpt>
      <trkpt lat="45.0057" lon="1.0688">
        <ele>121.80000305176</ele>
        <time>2011-07-13T11:37:38.000Z</time>
      </trkpt>
      <trkpt lat="45.00584" lon="1.06865">
        <ele>124.59999847412</ele>
        <time>2011-07-13T11:37:49.000Z</time>
      </trkpt>
      <trkpt lat="45.0059" lon="1.06852">
        <ele>128</ele>
        <time>2011-07-13T11:37:56.000Z</time>
      </trkpt>
      <trkpt lat="45.00594" lon="1.06833">
        <ele>133.80000305176</ele>
        <time>2011-07-13T11:38:04.000Z</time>
      </trkpt>
      <trkpt lat="45.00597" lon="1.06815">
        <ele>137.60000610352</ele>
        <time>2011-07-13T11:38:11.000Z</time>
      </trkpt>
      <trkpt lat="45.00603" lon="1.06798">
        <ele>138.39999389648</ele>
        <time>2011-07-13T11:38:19.000Z</time>
      </trkpt>
      <trkpt lat="45.0061" lon="1.06791">
        <ele>139.60000610352</ele>
        <time>2011-07-13T11:38:25.000Z</time>
      </trkpt>
      <trkpt lat="45.00618" lon="1.06787">
        <ele>139.60000610352</ele>
        <time>2011-07-13T11:38:31.000Z</time>
      </trkpt>
      <trkpt lat="45.00628" lon="1.06779">
        <ele>141</ele>
        <time>2011-07-13T11:38:39.000Z</time>
      </trkpt>
      <trkpt lat="45.00636" lon="1.06773">
        <ele>141.19999694824</ele>
        <time>2011-07-13T11:38:45.000Z</time>
      </trkpt>
      <trkpt lat="45.00649" lon="1.06764">
        <ele>139.19999694824</ele>
        <time>2011-07-13T11:38:53.000Z</time>
      </trkpt>
      <trkpt lat="45.00662" lon="1.06753">
        <ele>140.80000305176</ele>
        <time>2011-07-13T11:39:01.000Z</time>
      </trkpt>
      <trkpt lat="45.00667" lon="1.0675">
        <ele>141.19999694824</ele>
        <time>2011-07-13T11:39:04.000Z</time>
      </trkpt>
      <trkpt lat="45.00669" lon="1.06752">
        <ele>141.80000305176</ele>
        <time>2011-07-13T11:39:08.000Z</time>
      </trkpt>
      <trkpt lat="45.00669" lon="1.06758">
        <ele>143.60000610352</ele>
        <time>2011-07-13T11:46:06.000Z</time>
      </trkpt>
      <trkpt lat="45.00678" lon="1.06771">
        <ele>146.39999389648</ele>
        <time>2011-07-13T11:46:13.000Z</time>
      </trkpt>
      <trkpt lat="45.00686" lon="1.06786">
        <ele>147.39999389648</ele>
        <time>2011-07-13T11:46:20.000Z</time>
      </trkpt>
      <trkpt lat="45.00693" lon="1.06802">
        <ele>148.60000610352</ele>
        <time>2011-07-13T11:46:27.000Z</time>
      </trkpt>
      <trkpt lat="45.00706" lon="1.06821">
        <ele>149</ele>
        <time>2011-07-13T11:46:34.000Z</time>
      </trkpt>
      <trkpt lat="45.00721" lon="1.06844">
        <ele>148.80000305176</ele>
        <time>2011-07-13T11:46:42.000Z</time>
      </trkpt>
      <trkpt lat="45.00725" lon="1.06847">
        <ele>149</ele>
        <time>2011-07-13T11:46:44.000Z</time>
      </trkpt>
      <trkpt lat="45.00736" lon="1.06837">
        <ele>149.19999694824</ele>
        <time>2011-07-13T11:46:49.000Z</time>
      </trkpt>
      <trkpt lat="45.00756" lon="1.06835">
        <ele>152.19999694824</ele>
        <time>2011-07-13T11:46:57.000Z</time>
      </trkpt>
      <trkpt lat="45.00768" lon="1.06836">
        <ele>153.39999389648</ele>
        <time>2011-07-13T11:47:02.000Z</time>
      </trkpt>
      <trkpt lat="45.0078" lon="1.06843">
        <ele>152.60000610352</ele>
        <time>2011-07-13T11:47:07.000Z</time>
      </trkpt>
      <trkpt lat="45.00801" lon="1.06847">
        <ele>153</ele>
        <time>2011-07-13T11:47:15.000Z</time>
      </trkpt>
      <trkpt lat="45.00825" lon="1.06847">
        <ele>154.60000610352</ele>
        <time>2011-07-13T11:47:23.000Z</time>
      </trkpt>
      <trkpt lat="45.00851" lon="1.06849">
        <ele>155</ele>
        <time>2011-07-13T11:47:32.000Z</time>
      </trkpt>
      <trkpt lat="45.00871" lon="1.06854">
        <ele>154.80000305176</ele>
        <time>2011-07-13T11:47:40.000Z</time>
      </trkpt>
      <trkpt lat="45.00885" lon="1.0686">
        <ele>153.39999389648</ele>
        <time>2011-07-13T11:47:45.000Z</time>
      </trkpt>
      <trkpt lat="45.00903" lon="1.06866">
        <ele>152.80000305176</ele>
        <time>2011-07-13T11:47:51.000Z</time>
      </trkpt>
      <trkpt lat="45.00907" lon="1.06867">
        <ele>152.60000610352</ele>
        <time>2011-07-13T11:47:52.000Z</time>
      </trkpt>
      <trkpt lat="45.00925" lon="1.06855">
        <ele>152.80000305176</ele>
        <time>2011-07-13T11:47:56.000Z</time>
      </trkpt>
      <trkpt lat="45.00933" lon="1.06834">
        <ele>155</ele>
        <time>2011-07-13T11:48:00.000Z</time>
      </trkpt>
      <trkpt lat="45.00934" lon="1.0683">
        <ele>156</ele>
        <time>2011-07-13T11:48:01.000Z</time>
      </trkpt>
      <trkpt lat="45.00937" lon="1.06811">
        <ele>163.39999389648</ele>
        <time>2011-07-13T11:48:07.000Z</time>
      </trkpt>
      <trkpt lat="45.00938" lon="1.06791">
        <ele>166.19999694824</ele>
        <time>2011-07-13T11:48:12.000Z</time>
      </trkpt>
      <trkpt lat="45.00943" lon="1.06768">
        <ele>170.80000305176</ele>
        <time>2011-07-13T11:48:18.000Z</time>
      </trkpt>
      <trkpt lat="45.00946" lon="1.06757">
        <ele>170</ele>
        <time>2011-07-13T11:48:23.000Z</time>
      </trkpt>
      <trkpt lat="45.0095" lon="1.06745">
        <ele>170.60000610352</ele>
        <time>2011-07-13T11:48:28.000Z</time>
      </trkpt>
      <trkpt lat="45.00952" lon="1.06738">
        <ele>171</ele>
        <time>2011-07-13T11:48:31.000Z</time>
      </trkpt>
      <trkpt lat="45.0096" lon="1.06731">
        <ele>171.39999389648</ele>
        <time>2011-07-13T11:48:35.000Z</time>
      </trkpt>
      <trkpt lat="45.00968" lon="1.06725">
        <ele>171.39999389648</ele>
        <time>2011-07-13T11:48:42.000Z</time>
      </trkpt>
      <trkpt lat="45.00975" lon="1.06717">
        <ele>172.39999389648</ele>
        <time>2011-07-13T11:48:47.000Z</time>
      </trkpt>
      <trkpt lat="45.00979" lon="1.06711">
        <ele>173.39999389648</ele>
        <time>2011-07-13T11:48:50.000Z</time>
      </trkpt>
      <trkpt lat="45.00988" lon="1.06702">
        <ele>172.60000610352</ele>
        <time>2011-07-13T11:48:56.000Z</time>
      </trkpt>
      <trkpt lat="45.00998" lon="1.06689">
        <ele>171.80000305176</ele>
        <time>2011-07-13T11:49:02.000Z</time>
      </trkpt>
      <trkpt lat="45.01001" lon="1.06685">
        <ele>171.80000305176</ele>
        <time>2011-07-13T11:49:04.000Z</time>
      </trkpt>
      <trkpt lat="45.01013" lon="1.0667">
        <ele>170.80000305176</ele>
        <time>2011-07-13T11:49:12.000Z</time>
      </trkpt>
      <trkpt lat="45.01016" lon="1.06664">
        <ele>171.80000305176</ele>
        <time>2011-07-13T11:49:15.000Z</time>
      </trkpt>
      <trkpt lat="45.0102" lon="1.06658">
        <ele>172.80000305176</ele>
        <time>2011-07-13T11:49:18.000Z</time>
      </trkpt>
      <trkpt lat="45.01027" lon="1.06648">
        <ele>176</ele>
        <time>2011-07-13T11:49:25.000Z</time>
      </trkpt>
      <trkpt lat="45.0103" lon="1.06645">
        <ele>177.19999694824</ele>
        <time>2011-07-13T11:49:28.000Z</time>
      </trkpt>
      <trkpt lat="45.01036" lon="1.06638">
        <ele>177.60000610352</ele>
        <time>2011-07-13T11:49:33.000Z</time>
      </trkpt>
      <trkpt lat="45.01045" lon="1.06629">
        <ele>179.60000610352</ele>
        <time>2011-07-13T11:49:41.000Z</time>
      </trkpt>
      <trkpt lat="45.01054" lon="1.06623">
        <ele>182.39999389648</ele>
        <time>2011-07-13T11:49:48.000Z</time>
      </trkpt>
      <trkpt lat="45.01056" lon="1.06622">
        <ele>182.80000305176</ele>
        <time>2011-07-13T11:49:49.000Z</time>
      </trkpt>
      <trkpt lat="45.01066" lon="1.0662">
        <ele>186</ele>
        <time>2011-07-13T11:49:56.000Z</time>
      </trkpt>
      <trkpt lat="45.01068" lon="1.06619">
        <ele>185.39999389648</ele>
        <time>2011-07-13T11:49:57.000Z</time>
      </trkpt>
      <trkpt lat="45.0108" lon="1.06618">
        <ele>187.39999389648</ele>
        <time>2011-07-13T11:50:04.000Z</time>
      </trkpt>
      <trkpt lat="45.01085" lon="1.06619">
        <ele>187.80000305176</ele>
        <time>2011-07-13T11:50:07.000Z</time>
      </trkpt>
      <trkpt lat="45.01096" lon="1.06625">
        <ele>188</ele>
        <time>2011-07-13T11:50:14.000Z</time>
      </trkpt>
      <trkpt lat="45.01105" lon="1.06631">
        <ele>187.80000305176</ele>
        <time>2011-07-13T11:50:20.000Z</time>
      </trkpt>
      <trkpt lat="45.01113" lon="1.06639">
        <ele>185</ele>
        <time>2011-07-13T11:50:26.000Z</time>
      </trkpt>
      <trkpt lat="45.0112" lon="1.06648">
        <ele>184.19999694824</ele>
        <time>2011-07-13T11:50:32.000Z</time>
      </trkpt>
      <trkpt lat="45.01128" lon="1.06661">
        <ele>182.80000305176</ele>
        <time>2011-07-13T11:50:39.000Z</time>
      </trkpt>
      <trkpt lat="45.01134" lon="1.06669">
        <ele>185.19999694824</ele>
        <time>2011-07-13T11:50:45.000Z</time>
      </trkpt>
      <trkpt lat="45.01137" lon="1.06676">
        <ele>186.80000305176</ele>
        <time>2011-07-13T11:50:50.000Z</time>
      </trkpt>
      <trkpt lat="45.01145" lon="1.0669">
        <ele>184.60000610352</ele>
        <time>2011-07-13T11:50:57.000Z</time>
      </trkpt>
      <trkpt lat="45.0115" lon="1.06702">
        <ele>187</ele>
        <time>2011-07-13T11:51:03.000Z</time>
      </trkpt>
      <trkpt lat="45.01155" lon="1.06709">
        <ele>185.60000610352</ele>
        <time>2011-07-13T11:51:07.000Z</time>
      </trkpt>
      <trkpt lat="45.01166" lon="1.06719">
        <ele>184</ele>
        <time>2011-07-13T11:51:13.000Z</time>
      </trkpt>
      <trkpt lat="45.0118" lon="1.06729">
        <ele>186.19999694824</ele>
        <time>2011-07-13T11:51:20.000Z</time>
      </trkpt>
      <trkpt lat="45.01186" lon="1.06743">
        <ele>187.60000610352</ele>
        <time>2011-07-13T11:51:25.000Z</time>
      </trkpt>
      <trkpt lat="45.01191" lon="1.06758">
        <ele>188.39999389648</ele>
        <time>2011-07-13T11:51:30.000Z</time>
      </trkpt>
      <trkpt lat="45.01198" lon="1.06775">
        <ele>190.60000610352</ele>
        <time>2011-07-13T11:51:36.000Z</time>
      </trkpt>
      <trkpt lat="45.01199" lon="1.06782">
        <ele>193.80000305176</ele>
        <time>2011-07-13T11:51:41.000Z</time>
      </trkpt>
      <trkpt lat="45.012" lon="1.06795">
        <ele>198.80000305176</ele>
        <time>2011-07-13T11:53:02.000Z</time>
      </trkpt>
      <trkpt lat="45.0121" lon="1.06822">
        <ele>194.19999694824</ele>
        <time>2011-07-13T11:53:08.000Z</time>
      </trkpt>
      <trkpt lat="45.01219" lon="1.06839">
        <ele>191.60000610352</ele>
        <time>2011-07-13T11:53:12.000Z</time>
      </trkpt>
      <trkpt lat="45.01235" lon="1.06861">
        <ele>187.60000610352</ele>
        <time>2011-07-13T11:53:19.000Z</time>
      </trkpt>
      <trkpt lat="45.01249" lon="1.06877">
        <ele>184.80000305176</ele>
        <time>2011-07-13T11:53:25.000Z</time>
      </trkpt>
      <trkpt lat="45.0126" lon="1.0688">
        <ele>182.80000305176</ele>
        <time>2011-07-13T11:53:30.000Z</time>
      </trkpt>
      <trkpt lat="45.01267" lon="1.06881">
        <ele>182.39999389648</ele>
        <time>2011-07-13T11:53:34.000Z</time>
      </trkpt>
      <trkpt lat="45.01276" lon="1.06882">
        <ele>185.19999694824</ele>
        <time>2011-07-13T11:53:40.000Z</time>
      </trkpt>
      <trkpt lat="45.01287" lon="1.06887">
        <ele>186.39999389648</ele>
        <time>2011-07-13T11:53:47.000Z</time>
      </trkpt>
      <trkpt lat="45.01289" lon="1.06888">
        <ele>187.39999389648</ele>
        <time>2011-07-13T11:53:49.000Z</time>
      </trkpt>
      <trkpt lat="45.01301" lon="1.06892">
        <ele>189.39999389648</ele>
        <time>2011-07-13T11:53:57.000Z</time>
      </trkpt>
      <trkpt lat="45.0131" lon="1.06896">
        <ele>192.60000610352</ele>
        <time>2011-07-13T11:54:04.000Z</time>
      </trkpt>
      <trkpt lat="45.0132" lon="1.06901">
        <ele>192.80000305176</ele>
        <time>2011-07-13T11:54:11.000Z</time>
      </trkpt>
      <trkpt lat="45.01332" lon="1.06906">
        <ele>194.39999389648</ele>
        <time>2011-07-13T11:54:18.000Z</time>
      </trkpt>
      <trkpt lat="45.01339" lon="1.06908">
        <ele>197.19999694824</ele>
        <time>2011-07-13T11:54:24.000Z</time>
      </trkpt>
      <trkpt lat="45.0134" lon="1.06909">
        <ele>198.39999389648</ele>
        <time>2011-07-13T11:54:26.000Z</time>
      </trkpt>
      <trkpt lat="45.0135" lon="1.0692">
        <ele>209.60000610352</ele>
        <time>2011-07-13T11:55:19.000Z</time>
      </trkpt>
      <trkpt lat="45.0135" lon="1.06921">
        <ele>210</ele>
        <time>2011-07-13T11:55:21.000Z</time>
      </trkpt>
      <trkpt lat="45.01355" lon="1.06922">
        <ele>212</ele>
        <time>2011-07-13T11:55:31.000Z</time>
      </trkpt>
      <trkpt lat="45.01355" lon="1.06922">
        <ele>212.80000305176</ele>
        <time>2011-07-13T11:55:33.000Z</time>
      </trkpt>
      <trkpt lat="45.01362" lon="1.06924">
        <ele>212.80000305176</ele>
        <time>2011-07-13T11:55:40.000Z</time>
      </trkpt>
      <trkpt lat="45.01372" lon="1.06928">
        <ele>212.80000305176</ele>
        <time>2011-07-13T11:55:46.000Z</time>
      </trkpt>
      <trkpt lat="45.01383" lon="1.0693">
        <ele>212.60000610352</ele>
        <time>2011-07-13T11:55:53.000Z</time>
      </trkpt>
      <trkpt lat="45.01394" lon="1.06933">
        <ele>212.19999694824</ele>
        <time>2011-07-13T11:55:59.000Z</time>
      </trkpt>
      <trkpt lat="45.01396" lon="1.06934">
        <ele>212.19999694824</ele>
        <time>2011-07-13T11:56:00.000Z</time>
      </trkpt>
      <trkpt lat="45.01404" lon="1.06935">
        <ele>212.60000610352</ele>
        <time>2011-07-13T11:56:07.000Z</time>
      </trkpt>
      <trkpt lat="45.01404" lon="1.06935">
        <ele>212.60000610352</ele>
        <time>2011-07-13T11:56:08.000Z</time>
      </trkpt>
      <trkpt lat="45.01412" lon="1.06938">
        <ele>214</ele>
        <time>2011-07-13T11:56:15.000Z</time>
      </trkpt>
      <trkpt lat="45.01424" lon="1.06942">
        <ele>214.60000610352</ele>
        <time>2011-07-13T11:56:20.000Z</time>
      </trkpt>
      <trkpt lat="45.01437" lon="1.06949">
        <ele>214.80000305176</ele>
        <time>2011-07-13T11:56:26.000Z</time>
      </trkpt>
      <trkpt lat="45.01451" lon="1.06954">
        <ele>214.60000610352</ele>
        <time>2011-07-13T11:56:32.000Z</time>
      </trkpt>
      <trkpt lat="45.0147" lon="1.06956">
        <ele>213.60000610352</ele>
        <time>2011-07-13T11:56:40.000Z</time>
      </trkpt>
      <trkpt lat="45.01486" lon="1.06961">
        <ele>212.80000305176</ele>
        <time>2011-07-13T11:56:46.000Z</time>
      </trkpt>
      <trkpt lat="45.01502" lon="1.06968">
        <ele>213.19999694824</ele>
        <time>2011-07-13T11:56:52.000Z</time>
      </trkpt>
      <trkpt lat="45.01523" lon="1.06975">
        <ele>212</ele>
        <time>2011-07-13T11:56:59.000Z</time>
      </trkpt>
      <trkpt lat="45.01538" lon="1.06984">
        <ele>211.80000305176</ele>
        <time>2011-07-13T11:57:04.000Z</time>
      </trkpt>
      <trkpt lat="45.01552" lon="1.06991">
        <ele>214</ele>
        <time>2011-07-13T11:57:08.000Z</time>
      </trkpt>
      <trkpt lat="45.01569" lon="1.06996">
        <ele>215.39999389648</ele>
        <time>2011-07-13T11:57:13.000Z</time>
      </trkpt>
      <trkpt lat="45.01588" lon="1.07009">
        <ele>215</ele>
        <time>2011-07-13T11:57:19.000Z</time>
      </trkpt>
      <trkpt lat="45.01625" lon="1.07032">
        <ele>213.39999389648</ele>
        <time>2011-07-13T11:57:29.000Z</time>
      </trkpt>
      <trkpt lat="45.01658" lon="1.07052">
        <ele>213.19999694824</ele>
        <time>2011-07-13T11:57:38.000Z</time>
      </trkpt>
      <trkpt lat="45.01692" lon="1.07074">
        <ele>215.80000305176</ele>
        <time>2011-07-13T11:57:48.000Z</time>
      </trkpt>
      <trkpt lat="45.01707" lon="1.07083">
        <ele>216.39999389648</ele>
        <time>2011-07-13T11:57:53.000Z</time>
      </trkpt>
      <trkpt lat="45.0171" lon="1.07089">
        <ele>216.60000610352</ele>
        <time>2011-07-13T11:57:57.000Z</time>
      </trkpt>
      <trkpt lat="45.01718" lon="1.07093">
        <ele>225</ele>
        <time>2011-07-13T12:03:34.000Z</time>
      </trkpt>
      <trkpt lat="45.01737" lon="1.07099">
        <ele>224.39999389648</ele>
        <time>2011-07-13T12:03:40.000Z</time>
      </trkpt>
      <trkpt lat="45.01764" lon="1.07111">
        <ele>224</ele>
        <time>2011-07-13T12:03:46.000Z</time>
      </trkpt>
      <trkpt lat="45.01793" lon="1.07125">
        <ele>223.39999389648</ele>
        <time>2011-07-13T12:03:52.000Z</time>
      </trkpt>
      <trkpt lat="45.01802" lon="1.07132">
        <ele>223.19999694824</ele>
        <time>2011-07-13T12:03:54.000Z</time>
      </trkpt>
      <trkpt lat="45.01819" lon="1.07158">
        <ele>221.39999389648</ele>
        <time>2011-07-13T12:03:59.000Z</time>
      </trkpt>
      <trkpt lat="45.01825" lon="1.07167">
        <ele>220.19999694824</ele>
        <time>2011-07-13T12:04:01.000Z</time>
      </trkpt>
      <trkpt lat="45.01842" lon="1.07192">
        <ele>216.80000305176</ele>
        <time>2011-07-13T12:04:07.000Z</time>
      </trkpt>
      <trkpt lat="45.01856" lon="1.07215">
        <ele>214.80000305176</ele>
        <time>2011-07-13T12:04:12.000Z</time>
      </trkpt>
      <trkpt lat="45.01878" lon="1.07244">
        <ele>212.80000305176</ele>
        <time>2011-07-13T12:04:18.000Z</time>
      </trkpt>
      <trkpt lat="45.01895" lon="1.07267">
        <ele>213.19999694824</ele>
        <time>2011-07-13T12:04:24.000Z</time>
      </trkpt>
      <trkpt lat="45.01898" lon="1.07267">
        <ele>213.60000610352</ele>
        <time>2011-07-13T12:04:26.000Z</time>
      </trkpt>
      <trkpt lat="45.01905" lon="1.07262">
        <ele>215</ele>
        <time>2011-07-13T12:04:32.000Z</time>
      </trkpt>
      <trkpt lat="45.01912" lon="1.07255">
        <ele>215.80000305176</ele>
        <time>2011-07-13T12:04:38.000Z</time>
      </trkpt>
      <trkpt lat="45.01924" lon="1.07247">
        <ele>216.39999389648</ele>
        <time>2011-07-13T12:04:43.000Z</time>
      </trkpt>
      <trkpt lat="45.01943" lon="1.07239">
        <ele>217.19999694824</ele>
        <time>2011-07-13T12:04:49.000Z</time>
      </trkpt>
      <trkpt lat="45.01964" lon="1.07232">
        <ele>218</ele>
        <time>2011-07-13T12:04:55.000Z</time>
      </trkpt>
      <trkpt lat="45.01979" lon="1.07223">
        <ele>218</ele>
        <time>2011-07-13T12:04:59.000Z</time>
      </trkpt>
      <trkpt lat="45.01999" lon="1.07212">
        <ele>216.19999694824</ele>
        <time>2011-07-13T12:05:04.000Z</time>
      </trkpt>
      <trkpt lat="45.02021" lon="1.07194">
        <ele>215.60000610352</ele>
        <time>2011-07-13T12:05:08.000Z</time>
      </trkpt>
      <trkpt lat="45.02027" lon="1.07192">
        <ele>215.60000610352</ele>
        <time>2011-07-13T12:05:09.000Z</time>
      </trkpt>
      <trkpt lat="45.02052" lon="1.07168">
        <ele>214.60000610352</ele>
        <time>2011-07-13T12:05:15.000Z</time>
      </trkpt>
      <trkpt lat="45.02066" lon="1.07142">
        <ele>211.60000610352</ele>
        <time>2011-07-13T12:05:19.000Z</time>
      </trkpt>
      <trkpt lat="45.02085" lon="1.07125">
        <ele>207.19999694824</ele>
        <time>2011-07-13T12:05:24.000Z</time>
      </trkpt>
      <trkpt lat="45.02097" lon="1.07109">
        <ele>203.19999694824</ele>
        <time>2011-07-13T12:05:27.000Z</time>
      </trkpt>
      <trkpt lat="45.02126" lon="1.07078">
        <ele>199</ele>
        <time>2011-07-13T12:05:32.000Z</time>
      </trkpt>
      <trkpt lat="45.02161" lon="1.0706">
        <ele>196.80000305176</ele>
        <time>2011-07-13T12:05:37.000Z</time>
      </trkpt>
      <trkpt lat="45.02183" lon="1.0704">
        <ele>196.80000305176</ele>
        <time>2011-07-13T12:05:41.000Z</time>
      </trkpt>
      <trkpt lat="45.02199" lon="1.0703">
        <ele>196.80000305176</ele>
        <time>2011-07-13T12:05:44.000Z</time>
      </trkpt>
      <trkpt lat="45.02216" lon="1.07013">
        <ele>194.39999389648</ele>
        <time>2011-07-13T12:05:48.000Z</time>
      </trkpt>
      <trkpt lat="45.02229" lon="1.07013">
        <ele>191.80000305176</ele>
        <time>2011-07-13T12:05:51.000Z</time>
      </trkpt>
      <trkpt lat="45.0224" lon="1.07015">
        <ele>190</ele>
        <time>2011-07-13T12:05:53.000Z</time>
      </trkpt>
      <trkpt lat="45.02256" lon="1.07026">
        <ele>186.60000610352</ele>
        <time>2011-07-13T12:05:57.000Z</time>
      </trkpt>
      <trkpt lat="45.02263" lon="1.07035">
        <ele>185.80000305176</ele>
        <time>2011-07-13T12:05:59.000Z</time>
      </trkpt>
      <trkpt lat="45.02279" lon="1.07045">
        <ele>182.60000610352</ele>
        <time>2011-07-13T12:06:03.000Z</time>
      </trkpt>
      <trkpt lat="45.02295" lon="1.07048">
        <ele>178</ele>
        <time>2011-07-13T12:06:07.000Z</time>
      </trkpt>
      <trkpt lat="45.02305" lon="1.07048">
        <ele>176.19999694824</ele>
        <time>2011-07-13T12:06:09.000Z</time>
      </trkpt>
      <trkpt lat="45.02326" lon="1.07045">
        <ele>173.80000305176</ele>
        <time>2011-07-13T12:06:13.000Z</time>
      </trkpt>
      <trkpt lat="45.02352" lon="1.07036">
        <ele>171</ele>
        <time>2011-07-13T12:06:18.000Z</time>
      </trkpt>
      <trkpt lat="45.02388" lon="1.07032">
        <ele>163.80000305176</ele>
        <time>2011-07-13T12:06:24.000Z</time>
      </trkpt>
      <trkpt lat="45.02397" lon="1.0703">
        <ele>161.60000610352</ele>
        <time>2011-07-13T12:06:26.000Z</time>
      </trkpt>
      <trkpt lat="45.02407" lon="1.07025">
        <ele>160</ele>
        <time>2011-07-13T12:06:28.000Z</time>
      </trkpt>
      <trkpt lat="45.02419" lon="1.07016">
        <ele>159.60000610352</ele>
        <time>2011-07-13T12:06:30.000Z</time>
      </trkpt>
      <trkpt lat="45.02439" lon="1.07003">
        <ele>154.19999694824</ele>
        <time>2011-07-13T12:06:34.000Z</time>
      </trkpt>
      <trkpt lat="45.02447" lon="1.07003">
        <ele>151.19999694824</ele>
        <time>2011-07-13T12:06:36.000Z</time>
      </trkpt>
      <trkpt lat="45.0246" lon="1.0701">
        <ele>146.80000305176</ele>
        <time>2011-07-13T12:06:39.000Z</time>
      </trkpt>
      <trkpt lat="45.02475" lon="1.07017">
        <ele>145.60000610352</ele>
        <time>2011-07-13T12:06:42.000Z</time>
      </trkpt>
      <trkpt lat="45.02498" lon="1.07031">
        <ele>143.60000610352</ele>
        <time>2011-07-13T12:06:47.000Z</time>
      </trkpt>
      <trkpt lat="45.02514" lon="1.07029">
        <ele>144.60000610352</ele>
        <time>2011-07-13T12:06:51.000Z</time>
      </trkpt>
      <trkpt lat="45.02518" lon="1.07027">
        <ele>144.19999694824</ele>
        <time>2011-07-13T12:06:52.000Z</time>
      </trkpt>
      <trkpt lat="45.02534" lon="1.07009">
        <ele>142.60000610352</ele>
        <time>2011-07-13T12:06:57.000Z</time>
      </trkpt>
      <trkpt lat="45.02535" lon="1.07005">
        <ele>142.60000610352</ele>
        <time>2011-07-13T12:06:58.000Z</time>
      </trkpt>
      <trkpt lat="45.02534" lon="1.06982">
        <ele>140.80000305176</ele>
        <time>2011-07-13T12:07:03.000Z</time>
      </trkpt>
      <trkpt lat="45.02529" lon="1.06968">
        <ele>139.80000305176</ele>
        <time>2011-07-13T12:07:06.000Z</time>
      </trkpt>
      <trkpt lat="45.02523" lon="1.06957">
        <ele>139.80000305176</ele>
        <time>2011-07-13T12:07:11.000Z</time>
      </trkpt>
      <trkpt lat="45.02523" lon="1.06957">
        <ele>139.80000305176</ele>
        <time>2011-07-13T12:07:12.000Z</time>
      </trkpt>
      <trkpt lat="45.02526" lon="1.0695">
        <ele>157.80000305176</ele>
        <time>2011-07-13T12:14:53.000Z</time>
      </trkpt>
      <trkpt lat="45.0252" lon="1.06953">
        <ele>140.19999694824</ele>
        <time>2011-07-13T12:22:30.000Z</time>
      </trkpt>
      <trkpt lat="45.02514" lon="1.06946">
        <ele>138.80000305176</ele>
        <time>2011-07-13T12:22:32.000Z</time>
      </trkpt>
      <trkpt lat="45.02492" lon="1.06918">
        <ele>132.60000610352</ele>
        <time>2011-07-13T12:22:37.000Z</time>
      </trkpt>
      <trkpt lat="45.02487" lon="1.06911">
        <ele>131.60000610352</ele>
        <time>2011-07-13T12:22:38.000Z</time>
      </trkpt>
      <trkpt lat="45.02476" lon="1.06895">
        <ele>129.60000610352</ele>
        <time>2011-07-13T12:22:40.000Z</time>
      </trkpt>
      <trkpt lat="45.02456" lon="1.06855">
        <ele>127</ele>
        <time>2011-07-13T12:22:45.000Z</time>
      </trkpt>
      <trkpt lat="45.02451" lon="1.06814">
        <ele>127.59999847412</ele>
        <time>2011-07-13T12:22:50.000Z</time>
      </trkpt>
      <trkpt lat="45.02448" lon="1.06775">
        <ele>127.80000305176</ele>
        <time>2011-07-13T12:22:55.000Z</time>
      </trkpt>
      <trkpt lat="45.02447" lon="1.06758">
        <ele>129.19999694824</ele>
        <time>2011-07-13T12:22:57.000Z</time>
      </trkpt>
      <trkpt lat="45.02444" lon="1.06741">
        <ele>129</ele>
        <time>2011-07-13T12:22:59.000Z</time>
      </trkpt>
      <trkpt lat="45.0243" lon="1.06706">
        <ele>132</ele>
        <time>2011-07-13T12:23:04.000Z</time>
      </trkpt>
      <trkpt lat="45.02432" lon="1.06686">
        <ele>136.39999389648</ele>
        <time>2011-07-13T12:23:10.000Z</time>
      </trkpt>
      <trkpt lat="45.02432" lon="1.06683">
        <ele>136.19999694824</ele>
        <time>2011-07-13T12:23:12.000Z</time>
      </trkpt>
      <trkpt lat="45.02431" lon="1.0667">
        <ele>138</ele>
        <time>2011-07-13T12:23:18.000Z</time>
      </trkpt>
      <trkpt lat="45.02432" lon="1.06657">
        <ele>135.80000305176</ele>
        <time>2011-07-13T12:23:22.000Z</time>
      </trkpt>
      <trkpt lat="45.02432" lon="1.06636">
        <ele>131.19999694824</ele>
        <time>2011-07-13T12:23:28.000Z</time>
      </trkpt>
      <trkpt lat="45.02431" lon="1.0663">
        <ele>132.19999694824</ele>
        <time>2011-07-13T12:23:30.000Z</time>
      </trkpt>
      <trkpt lat="45.02428" lon="1.06605">
        <ele>132.19999694824</ele>
        <time>2011-07-13T12:23:36.000Z</time>
      </trkpt>
      <trkpt lat="45.02424" lon="1.06585">
        <ele>132</ele>
        <time>2011-07-13T12:23:40.000Z</time>
      </trkpt>
      <trkpt lat="45.02418" lon="1.06559">
        <ele>132.39999389648</ele>
        <time>2011-07-13T12:23:45.000Z</time>
      </trkpt>
      <trkpt lat="45.02411" lon="1.06526">
        <ele>130.60000610352</ele>
        <time>2011-07-13T12:23:50.000Z</time>
      </trkpt>
      <trkpt lat="45.02407" lon="1.0651">
        <ele>128.80000305176</ele>
        <time>2011-07-13T12:23:52.000Z</time>
      </trkpt>
      <trkpt lat="45.02395" lon="1.06469">
        <ele>126.59999847412</ele>
        <time>2011-07-13T12:23:57.000Z</time>
      </trkpt>
      <trkpt lat="45.02404" lon="1.06461">
        <ele>123</ele>
        <time>2011-07-13T12:24:00.000Z</time>
      </trkpt>
      <trkpt lat="45.02416" lon="1.06453">
        <ele>121.40000152588</ele>
        <time>2011-07-13T12:24:04.000Z</time>
      </trkpt>
      <trkpt lat="45.02425" lon="1.06443">
        <ele>120.19999694824</ele>
        <time>2011-07-13T12:24:11.000Z</time>
      </trkpt>
      <trkpt lat="45.02429" lon="1.06441">
        <ele>119</ele>
        <time>2011-07-13T12:24:14.000Z</time>
      </trkpt>
      <trkpt lat="45.02435" lon="1.06434">
        <ele>119.59999847412</ele>
        <time>2011-07-13T12:24:19.000Z</time>
      </trkpt>
      <trkpt lat="45.02436" lon="1.06419">
        <ele>122.40000152588</ele>
        <time>2011-07-13T12:24:25.000Z</time>
      </trkpt>
      <trkpt lat="45.02434" lon="1.06409">
        <ele>123</ele>
        <time>2011-07-13T12:24:28.000Z</time>
      </trkpt>
      <trkpt lat="45.02431" lon="1.06398">
        <ele>124.40000152588</ele>
        <time>2011-07-13T12:24:31.000Z</time>
      </trkpt>
      <trkpt lat="45.02429" lon="1.06366">
        <ele>124.59999847412</ele>
        <time>2011-07-13T12:24:38.000Z</time>
      </trkpt>
      <trkpt lat="45.02433" lon="1.06346">
        <ele>125.40000152588</ele>
        <time>2011-07-13T12:24:43.000Z</time>
      </trkpt>
      <trkpt lat="45.02444" lon="1.06331">
        <ele>126.19999694824</ele>
        <time>2011-07-13T12:24:48.000Z</time>
      </trkpt>
      <trkpt lat="45.02461" lon="1.06314">
        <ele>126</ele>
        <time>2011-07-13T12:24:55.000Z</time>
      </trkpt>
      <trkpt lat="45.02479" lon="1.06307">
        <ele>126.40000152588</ele>
        <time>2011-07-13T12:25:01.000Z</time>
      </trkpt>
      <trkpt lat="45.02499" lon="1.06303">
        <ele>127.80000305176</ele>
        <time>2011-07-13T12:25:08.000Z</time>
      </trkpt>
      <trkpt lat="45.02513" lon="1.06297">
        <ele>130.19999694824</ele>
        <time>2011-07-13T12:25:14.000Z</time>
      </trkpt>
      <trkpt lat="45.02527" lon="1.0629">
        <ele>133</ele>
        <time>2011-07-13T12:25:20.000Z</time>
      </trkpt>
      <trkpt lat="45.02543" lon="1.06286">
        <ele>137.39999389648</ele>
        <time>2011-07-13T12:25:27.000Z</time>
      </trkpt>
      <trkpt lat="45.02553" lon="1.0628">
        <ele>140</ele>
        <time>2011-07-13T12:25:31.000Z</time>
      </trkpt>
      <trkpt lat="45.02565" lon="1.06291">
        <ele>139.80000305176</ele>
        <time>2011-07-13T12:25:37.000Z</time>
      </trkpt>
      <trkpt lat="45.02571" lon="1.06303">
        <ele>139.19999694824</ele>
        <time>2011-07-13T12:25:42.000Z</time>
      </trkpt>
      <trkpt lat="45.02579" lon="1.0631">
        <ele>139.60000610352</ele>
        <time>2011-07-13T12:25:47.000Z</time>
      </trkpt>
      <trkpt lat="45.02586" lon="1.06315">
        <ele>139.80000305176</ele>
        <time>2011-07-13T12:25:51.000Z</time>
      </trkpt>
      <trkpt lat="45.02594" lon="1.06325">
        <ele>140.19999694824</ele>
        <time>2011-07-13T12:25:57.000Z</time>
      </trkpt>
      <trkpt lat="45.02604" lon="1.06332">
        <ele>139.60000610352</ele>
        <time>2011-07-13T12:26:04.000Z</time>
      </trkpt>
      <trkpt lat="45.0262" lon="1.06333">
        <ele>139.60000610352</ele>
        <time>2011-07-13T12:26:12.000Z</time>
      </trkpt>
      <trkpt lat="45.02637" lon="1.06331">
        <ele>140.39999389648</ele>
        <time>2011-07-13T12:26:20.000Z</time>
      </trkpt>
      <trkpt lat="45.02651" lon="1.06327">
        <ele>141.80000305176</ele>
        <time>2011-07-13T12:26:27.000Z</time>
      </trkpt>
      <trkpt lat="45.02669" lon="1.06322">
        <ele>143.39999389648</ele>
        <time>2011-07-13T12:26:36.000Z</time>
      </trkpt>
      <trkpt lat="45.02682" lon="1.06317">
        <ele>145</ele>
        <time>2011-07-13T12:26:43.000Z</time>
      </trkpt>
      <trkpt lat="45.02694" lon="1.06313">
        <ele>147.39999389648</ele>
        <time>2011-07-13T12:26:50.000Z</time>
      </trkpt>
      <trkpt lat="45.0271" lon="1.06309">
        <ele>147.80000305176</ele>
        <time>2011-07-13T12:26:57.000Z</time>
      </trkpt>
      <trkpt lat="45.02725" lon="1.06307">
        <ele>149</ele>
        <time>2011-07-13T12:27:04.000Z</time>
      </trkpt>
      <trkpt lat="45.02736" lon="1.06306">
        <ele>151.80000305176</ele>
        <time>2011-07-13T12:27:10.000Z</time>
      </trkpt>
      <trkpt lat="45.02746" lon="1.06306">
        <ele>153.60000610352</ele>
        <time>2011-07-13T12:27:16.000Z</time>
      </trkpt>
      <trkpt lat="45.02757" lon="1.06307">
        <ele>153.80000305176</ele>
        <time>2011-07-13T12:27:22.000Z</time>
      </trkpt>
      <trkpt lat="45.02773" lon="1.06307">
        <ele>154.19999694824</ele>
        <time>2011-07-13T12:27:29.000Z</time>
      </trkpt>
      <trkpt lat="45.02788" lon="1.06307">
        <ele>155.39999389648</ele>
        <time>2011-07-13T12:27:36.000Z</time>
      </trkpt>
      <trkpt lat="45.02802" lon="1.06308">
        <ele>158</ele>
        <time>2011-07-13T12:27:43.000Z</time>
      </trkpt>
      <trkpt lat="45.02817" lon="1.06308">
        <ele>158.80000305176</ele>
        <time>2011-07-13T12:27:50.000Z</time>
      </trkpt>
      <trkpt lat="45.02828" lon="1.06309">
        <ele>161</ele>
        <time>2011-07-13T12:27:56.000Z</time>
      </trkpt>
      <trkpt lat="45.02839" lon="1.06309">
        <ele>164.19999694824</ele>
        <time>2011-07-13T12:28:01.000Z</time>
      </trkpt>
      <trkpt lat="45.02848" lon="1.06308">
        <ele>169</ele>
        <time>2011-07-13T12:28:06.000Z</time>
      </trkpt>
      <trkpt lat="45.02852" lon="1.0631">
        <ele>168.60000610352</ele>
        <time>2011-07-13T12:28:08.000Z</time>
      </trkpt>
      <trkpt lat="45.02864" lon="1.0631">
        <ele>171.60000610352</ele>
        <time>2011-07-13T12:28:15.000Z</time>
      </trkpt>
      <trkpt lat="45.02875" lon="1.06313">
        <ele>172.39999389648</ele>
        <time>2011-07-13T12:28:21.000Z</time>
      </trkpt>
      <trkpt lat="45.02886" lon="1.06315">
        <ele>173</ele>
        <time>2011-07-13T12:28:26.000Z</time>
      </trkpt>
      <trkpt lat="45.029" lon="1.06319">
        <ele>172.19999694824</ele>
        <time>2011-07-13T12:28:32.000Z</time>
      </trkpt>
      <trkpt lat="45.02917" lon="1.06325">
        <ele>173</ele>
        <time>2011-07-13T12:28:40.000Z</time>
      </trkpt>
      <trkpt lat="45.02934" lon="1.06332">
        <ele>175</ele>
        <time>2011-07-13T12:28:49.000Z</time>
      </trkpt>
      <trkpt lat="45.02951" lon="1.06338">
        <ele>175.39999389648</ele>
        <time>2011-07-13T12:28:58.000Z</time>
      </trkpt>
      <trkpt lat="45.02967" lon="1.06343">
        <ele>174.39999389648</ele>
        <time>2011-07-13T12:29:07.000Z</time>
      </trkpt>
      <trkpt lat="45.02981" lon="1.06346">
        <ele>175.80000305176</ele>
        <time>2011-07-13T12:29:15.000Z</time>
      </trkpt>
      <trkpt lat="45.02993" lon="1.06349">
        <ele>177.60000610352</ele>
        <time>2011-07-13T12:29:22.000Z</time>
      </trkpt>
      <trkpt lat="45.03009" lon="1.06353">
        <ele>181.60000610352</ele>
        <time>2011-07-13T12:29:31.000Z</time>
      </trkpt>
      <trkpt lat="45.0302" lon="1.06356">
        <ele>182.60000610352</ele>
        <time>2011-07-13T12:29:37.000Z</time>
      </trkpt>
      <trkpt lat="45.03035" lon="1.06356">
        <ele>182.60000610352</ele>
        <time>2011-07-13T12:29:45.000Z</time>
      </trkpt>
      <trkpt lat="45.03051" lon="1.06354">
        <ele>183.39999389648</ele>
        <time>2011-07-13T12:29:53.000Z</time>
      </trkpt>
      <trkpt lat="45.03068" lon="1.06356">
        <ele>185.19999694824</ele>
        <time>2011-07-13T12:30:02.000Z</time>
      </trkpt>
      <trkpt lat="45.03082" lon="1.0636">
        <ele>186.39999389648</ele>
        <time>2011-07-13T12:30:10.000Z</time>
      </trkpt>
      <trkpt lat="45.03096" lon="1.06365">
        <ele>189</ele>
        <time>2011-07-13T12:30:19.000Z</time>
      </trkpt>
      <trkpt lat="45.03104" lon="1.0637">
        <ele>190.80000305176</ele>
        <time>2011-07-13T12:30:25.000Z</time>
      </trkpt>
      <trkpt lat="45.03114" lon="1.06375">
        <ele>192.39999389648</ele>
        <time>2011-07-13T12:30:31.000Z</time>
      </trkpt>
      <trkpt lat="45.03129" lon="1.06388">
        <ele>193</ele>
        <time>2011-07-13T12:30:40.000Z</time>
      </trkpt>
      <trkpt lat="45.03136" lon="1.06394">
        <ele>195.19999694824</ele>
        <time>2011-07-13T12:30:45.000Z</time>
      </trkpt>
      <trkpt lat="45.03145" lon="1.06403">
        <ele>195.60000610352</ele>
        <time>2011-07-13T12:30:52.000Z</time>
      </trkpt>
      <trkpt lat="45.03159" lon="1.06414">
        <ele>196.60000610352</ele>
        <time>2011-07-13T12:31:01.000Z</time>
      </trkpt>
      <trkpt lat="45.03164" lon="1.0642">
        <ele>198.39999389648</ele>
        <time>2011-07-13T12:31:05.000Z</time>
      </trkpt>
      <trkpt lat="45.0317" lon="1.06427">
        <ele>200.19999694824</ele>
        <time>2011-07-13T12:31:11.000Z</time>
      </trkpt>
      <trkpt lat="45.03173" lon="1.06429">
        <ele>200.39999389648</ele>
        <time>2011-07-13T12:31:13.000Z</time>
      </trkpt>
      <trkpt lat="45.03185" lon="1.06438">
        <ele>200.60000610352</ele>
        <time>2011-07-13T12:31:21.000Z</time>
      </trkpt>
      <trkpt lat="45.03196" lon="1.06447">
        <ele>202.60000610352</ele>
        <time>2011-07-13T12:31:28.000Z</time>
      </trkpt>
      <trkpt lat="45.03205" lon="1.06456">
        <ele>203.80000305176</ele>
        <time>2011-07-13T12:31:34.000Z</time>
      </trkpt>
      <trkpt lat="45.03215" lon="1.06468">
        <ele>203.60000610352</ele>
        <time>2011-07-13T12:31:41.000Z</time>
      </trkpt>
      <trkpt lat="45.03226" lon="1.06482">
        <ele>204.19999694824</ele>
        <time>2011-07-13T12:31:49.000Z</time>
      </trkpt>
      <trkpt lat="45.03236" lon="1.06494">
        <ele>207.39999389648</ele>
        <time>2011-07-13T12:31:57.000Z</time>
      </trkpt>
      <trkpt lat="45.03246" lon="1.06509">
        <ele>207.80000305176</ele>
        <time>2011-07-13T12:32:05.000Z</time>
      </trkpt>
      <trkpt lat="45.03257" lon="1.06524">
        <ele>209.19999694824</ele>
        <time>2011-07-13T12:32:13.000Z</time>
      </trkpt>
      <trkpt lat="45.03268" lon="1.06539">
        <ele>211.80000305176</ele>
        <time>2011-07-13T12:32:21.000Z</time>
      </trkpt>
      <trkpt lat="45.03276" lon="1.06555">
        <ele>213.80000305176</ele>
        <time>2011-07-13T12:32:28.000Z</time>
      </trkpt>
      <trkpt lat="45.03289" lon="1.06574">
        <ele>216.60000610352</ele>
        <time>2011-07-13T12:32:37.000Z</time>
      </trkpt>
      <trkpt lat="45.03303" lon="1.06591">
        <ele>218.60000610352</ele>
        <time>2011-07-13T12:32:46.000Z</time>
      </trkpt>
      <trkpt lat="45.03312" lon="1.06593">
        <ele>218.80000305176</ele>
        <time>2011-07-13T12:32:51.000Z</time>
      </trkpt>
      <trkpt lat="45.03314" lon="1.06593">
        <ele>218.80000305176</ele>
        <time>2011-07-13T12:32:52.000Z</time>
      </trkpt>
      <trkpt lat="45.03316" lon="1.06592">
        <ele>218.80000305176</ele>
        <time>2011-07-13T12:32:54.000Z</time>
      </trkpt>
      <trkpt lat="45.03318" lon="1.06588">
        <ele>219.39999389648</ele>
        <time>2011-07-13T12:32:58.000Z</time>
      </trkpt>
      <trkpt lat="45.03317" lon="1.06585">
        <ele>224</ele>
        <time>2011-07-13T12:36:28.000Z</time>
      </trkpt>
      <trkpt lat="45.03328" lon="1.06582">
        <ele>224</ele>
        <time>2011-07-13T12:38:13.000Z</time>
      </trkpt>
      <trkpt lat="45.03333" lon="1.06567">
        <ele>225.39999389648</ele>
        <time>2011-07-13T12:38:20.000Z</time>
      </trkpt>
      <trkpt lat="45.03333" lon="1.06547">
        <ele>225.80000305176</ele>
        <time>2011-07-13T12:38:28.000Z</time>
      </trkpt>
      <trkpt lat="45.03332" lon="1.06533">
        <ele>224.60000610352</ele>
        <time>2011-07-13T12:38:34.000Z</time>
      </trkpt>
      <trkpt lat="45.03331" lon="1.06521">
        <ele>224</ele>
        <time>2011-07-13T12:38:38.000Z</time>
      </trkpt>
      <trkpt lat="45.03332" lon="1.06497">
        <ele>225.39999389648</ele>
        <time>2011-07-13T12:38:46.000Z</time>
      </trkpt>
      <trkpt lat="45.03337" lon="1.06469">
        <ele>225.19999694824</ele>
        <time>2011-07-13T12:38:55.000Z</time>
      </trkpt>
      <trkpt lat="45.03342" lon="1.06452">
        <ele>224.80000305176</ele>
        <time>2011-07-13T12:39:01.000Z</time>
      </trkpt>
      <trkpt lat="45.03348" lon="1.06453">
        <ele>225.19999694824</ele>
        <time>2011-07-13T12:39:06.000Z</time>
      </trkpt>
      <trkpt lat="45.03349" lon="1.06455">
        <ele>225.39999389648</ele>
        <time>2011-07-13T12:39:07.000Z</time>
      </trkpt>
      <trkpt lat="45.03358" lon="1.06481">
        <ele>226</ele>
        <time>2011-07-13T12:39:16.000Z</time>
      </trkpt>
      <trkpt lat="45.03368" lon="1.06498">
        <ele>226.80000305176</ele>
        <time>2011-07-13T12:39:23.000Z</time>
      </trkpt>
      <trkpt lat="45.03377" lon="1.06519">
        <ele>228</ele>
        <time>2011-07-13T12:39:31.000Z</time>
      </trkpt>
      <trkpt lat="45.03386" lon="1.06537">
        <ele>229.39999389648</ele>
        <time>2011-07-13T12:39:38.000Z</time>
      </trkpt>
      <trkpt lat="45.034" lon="1.06565">
        <ele>232</ele>
        <time>2011-07-13T12:39:49.000Z</time>
      </trkpt>
      <trkpt lat="45.03413" lon="1.06592">
        <ele>234.60000610352</ele>
        <time>2011-07-13T12:39:59.000Z</time>
      </trkpt>
      <trkpt lat="45.03428" lon="1.06621">
        <ele>238.39999389648</ele>
        <time>2011-07-13T12:40:10.000Z</time>
      </trkpt>
      <trkpt lat="45.03442" lon="1.06648">
        <ele>241.80000305176</ele>
        <time>2011-07-13T12:40:20.000Z</time>
      </trkpt>
      <trkpt lat="45.03449" lon="1.06663">
        <ele>242</ele>
        <time>2011-07-13T12:40:26.000Z</time>
      </trkpt>
      <trkpt lat="45.03461" lon="1.06688">
        <ele>244.60000610352</ele>
        <time>2011-07-13T12:40:35.000Z</time>
      </trkpt>
      <trkpt lat="45.0347" lon="1.0671">
        <ele>247.19999694824</ele>
        <time>2011-07-13T12:40:43.000Z</time>
      </trkpt>
      <trkpt lat="45.03483" lon="1.0674">
        <ele>249.60000610352</ele>
        <time>2011-07-13T12:40:53.000Z</time>
      </trkpt>
      <trkpt lat="45.03499" lon="1.06768">
        <ele>251.39999389648</ele>
        <time>2011-07-13T12:41:03.000Z</time>
      </trkpt>
      <trkpt lat="45.03521" lon="1.06794">
        <ele>253.60000610352</ele>
        <time>2011-07-13T12:41:14.000Z</time>
      </trkpt>
      <trkpt lat="45.03539" lon="1.06806">
        <ele>255.60000610352</ele>
        <time>2011-07-13T12:41:22.000Z</time>
      </trkpt>
      <trkpt lat="45.03556" lon="1.06814">
        <ele>256.79998779297</ele>
        <time>2011-07-13T12:41:30.000Z</time>
      </trkpt>
      <trkpt lat="45.03564" lon="1.06812">
        <ele>257.60000610352</ele>
        <time>2011-07-13T12:41:36.000Z</time>
      </trkpt>
      <trkpt lat="45.03571" lon="1.06808">
        <ele>257</ele>
        <time>2011-07-13T12:41:43.000Z</time>
      </trkpt>
      <trkpt lat="45.03584" lon="1.06801">
        <ele>257.39999389648</ele>
        <time>2011-07-13T12:41:50.000Z</time>
      </trkpt>
      <trkpt lat="45.036" lon="1.06796">
        <ele>257.39999389648</ele>
        <time>2011-07-13T12:41:58.000Z</time>
      </trkpt>
      <trkpt lat="45.03611" lon="1.06792">
        <ele>256.79998779297</ele>
        <time>2011-07-13T12:42:05.000Z</time>
      </trkpt>
      <trkpt lat="45.03612" lon="1.06792">
        <ele>256.79998779297</ele>
        <time>2011-07-13T12:42:07.000Z</time>
      </trkpt>
      <trkpt lat="45.03617" lon="1.06787">
        <ele>258.79998779297</ele>
        <time>2011-07-13T12:49:55.000Z</time>
      </trkpt>
      <trkpt lat="45.0363" lon="1.06782">
        <ele>258.39999389648</ele>
        <time>2011-07-13T12:50:00.000Z</time>
      </trkpt>
      <trkpt lat="45.03642" lon="1.0678">
        <ele>257.39999389648</ele>
        <time>2011-07-13T12:50:04.000Z</time>
      </trkpt>
      <trkpt lat="45.03673" lon="1.06771">
        <ele>254.80000305176</ele>
        <time>2011-07-13T12:50:10.000Z</time>
      </trkpt>
      <trkpt lat="45.03687" lon="1.06767">
        <ele>253.60000610352</ele>
        <time>2011-07-13T12:50:12.000Z</time>
      </trkpt>
      <trkpt lat="45.03721" lon="1.06758">
        <ele>252</ele>
        <time>2011-07-13T12:50:17.000Z</time>
      </trkpt>
      <trkpt lat="45.0377" lon="1.06756">
        <ele>249.60000610352</ele>
        <time>2011-07-13T12:50:24.000Z</time>
      </trkpt>
      <trkpt lat="45.0381" lon="1.06756">
        <ele>248</ele>
        <time>2011-07-13T12:50:30.000Z</time>
      </trkpt>
      <trkpt lat="45.03846" lon="1.06763">
        <ele>246.19999694824</ele>
        <time>2011-07-13T12:50:36.000Z</time>
      </trkpt>
      <trkpt lat="45.03882" lon="1.06774">
        <ele>244.19999694824</ele>
        <time>2011-07-13T12:50:42.000Z</time>
      </trkpt>
      <trkpt lat="45.03934" lon="1.06786">
        <ele>242</ele>
        <time>2011-07-13T12:50:50.000Z</time>
      </trkpt>
      <trkpt lat="45.03976" lon="1.06786">
        <ele>241.39999389648</ele>
        <time>2011-07-13T12:50:57.000Z</time>
      </trkpt>
      <trkpt lat="45.04013" lon="1.0678">
        <ele>240.80000305176</ele>
        <time>2011-07-13T12:51:04.000Z</time>
      </trkpt>
      <trkpt lat="45.04058" lon="1.06772">
        <ele>240</ele>
        <time>2011-07-13T12:51:12.000Z</time>
      </trkpt>
      <trkpt lat="45.04112" lon="1.06763">
        <ele>240.39999389648</ele>
        <time>2011-07-13T12:51:22.000Z</time>
      </trkpt>
      <trkpt lat="45.04151" lon="1.0675">
        <ele>241.39999389648</ele>
        <time>2011-07-13T12:51:30.000Z</time>
      </trkpt>
      <trkpt lat="45.04183" lon="1.06729">
        <ele>241.60000610352</ele>
        <time>2011-07-13T12:51:37.000Z</time>
      </trkpt>
      <trkpt lat="45.0422" lon="1.06713">
        <ele>243.60000610352</ele>
        <time>2011-07-13T12:51:45.000Z</time>
      </trkpt>
      <trkpt lat="45.04254" lon="1.0671">
        <ele>246</ele>
        <time>2011-07-13T12:51:52.000Z</time>
      </trkpt>
      <trkpt lat="45.04293" lon="1.06716">
        <ele>248</ele>
        <time>2011-07-13T12:52:00.000Z</time>
      </trkpt>
      <trkpt lat="45.04341" lon="1.06725">
        <ele>248.60000610352</ele>
        <time>2011-07-13T12:52:10.000Z</time>
      </trkpt>
      <trkpt lat="45.04378" lon="1.06726">
        <ele>249.19999694824</ele>
        <time>2011-07-13T12:52:18.000Z</time>
      </trkpt>
      <trkpt lat="45.04413" lon="1.06713">
        <ele>250</ele>
        <time>2011-07-13T12:52:26.000Z</time>
      </trkpt>
      <trkpt lat="45.04452" lon="1.06694">
        <ele>250.80000305176</ele>
        <time>2011-07-13T12:52:35.000Z</time>
      </trkpt>
      <trkpt lat="45.04489" lon="1.06676">
        <ele>251.39999389648</ele>
        <time>2011-07-13T12:52:44.000Z</time>
      </trkpt>
      <trkpt lat="45.04494" lon="1.0669">
        <ele>250.80000305176</ele>
        <time>2011-07-13T12:52:48.000Z</time>
      </trkpt>
      <trkpt lat="45.04495" lon="1.06726">
        <ele>249.39999389648</ele>
        <time>2011-07-13T12:52:54.000Z</time>
      </trkpt>
      <trkpt lat="45.04496" lon="1.0677">
        <ele>246.19999694824</ele>
        <time>2011-07-13T12:52:59.000Z</time>
      </trkpt>
      <trkpt lat="45.04483" lon="1.06804">
        <ele>242.60000610352</ele>
        <time>2011-07-13T12:53:03.000Z</time>
      </trkpt>
      <trkpt lat="45.04455" lon="1.06867">
        <ele>235.80000305176</ele>
        <time>2011-07-13T12:53:09.000Z</time>
      </trkpt>
      <trkpt lat="45.04447" lon="1.06905">
        <ele>232</ele>
        <time>2011-07-13T12:53:12.000Z</time>
      </trkpt>
      <trkpt lat="45.04447" lon="1.06962">
        <ele>228</ele>
        <time>2011-07-13T12:53:16.000Z</time>
      </trkpt>
      <trkpt lat="45.04461" lon="1.07039">
        <ele>222.19999694824</ele>
        <time>2011-07-13T12:53:22.000Z</time>
      </trkpt>
      <trkpt lat="45.04466" lon="1.07063">
        <ele>220.19999694824</ele>
        <time>2011-07-13T12:53:24.000Z</time>
      </trkpt>
      <trkpt lat="45.04467" lon="1.07121">
        <ele>217.19999694824</ele>
        <time>2011-07-13T12:53:29.000Z</time>
      </trkpt>
      <trkpt lat="45.04468" lon="1.07133">
        <ele>217</ele>
        <time>2011-07-13T12:53:30.000Z</time>
      </trkpt>
      <trkpt lat="45.04471" lon="1.07171">
        <ele>215.39999389648</ele>
        <time>2011-07-13T12:53:34.000Z</time>
      </trkpt>
      <trkpt lat="45.04471" lon="1.0719">
        <ele>215.80000305176</ele>
        <time>2011-07-13T12:53:36.000Z</time>
      </trkpt>
      <trkpt lat="45.04468" lon="1.07226">
        <ele>216.19999694824</ele>
        <time>2011-07-13T12:53:41.000Z</time>
      </trkpt>
      <trkpt lat="45.04469" lon="1.07249">
        <ele>217.60000610352</ele>
        <time>2011-07-13T12:53:45.000Z</time>
      </trkpt>
      <trkpt lat="45.04483" lon="1.07251">
        <ele>216.60000610352</ele>
        <time>2011-07-13T12:53:49.000Z</time>
      </trkpt>
      <trkpt lat="45.04498" lon="1.07241">
        <ele>216.60000610352</ele>
        <time>2011-07-13T12:53:52.000Z</time>
      </trkpt>
      <trkpt lat="45.04507" lon="1.07236">
        <ele>215.60000610352</ele>
        <time>2011-07-13T12:53:55.000Z</time>
      </trkpt>
      <trkpt lat="45.04512" lon="1.07228">
        <ele>214.80000305176</ele>
        <time>2011-07-13T12:54:00.000Z</time>
      </trkpt>
      <trkpt lat="45.04527" lon="1.07208">
        <ele>221.19999694824</ele>
        <time>2011-07-13T12:55:01.000Z</time>
      </trkpt>
      <trkpt lat="45.04536" lon="1.07184">
        <ele>219.80000305176</ele>
        <time>2011-07-13T12:55:06.000Z</time>
      </trkpt>
      <trkpt lat="45.04547" lon="1.0716">
        <ele>218</ele>
        <time>2011-07-13T12:55:10.000Z</time>
      </trkpt>
      <trkpt lat="45.04555" lon="1.07157">
        <ele>216.19999694824</ele>
        <time>2011-07-13T12:55:15.000Z</time>
      </trkpt>
      <trkpt lat="45.04559" lon="1.07173">
        <ele>216.60000610352</ele>
        <time>2011-07-13T12:55:18.000Z</time>
      </trkpt>
      <trkpt lat="45.04564" lon="1.07193">
        <ele>217</ele>
        <time>2011-07-13T12:55:21.000Z</time>
      </trkpt>
      <trkpt lat="45.0457" lon="1.0724">
        <ele>214.39999389648</ele>
        <time>2011-07-13T12:55:26.000Z</time>
      </trkpt>
      <trkpt lat="45.0457" lon="1.0726">
        <ele>214.60000610352</ele>
        <time>2011-07-13T12:55:28.000Z</time>
      </trkpt>
      <trkpt lat="45.04573" lon="1.07317">
        <ele>208.80000305176</ele>
        <time>2011-07-13T12:55:33.000Z</time>
      </trkpt>
      <trkpt lat="45.04583" lon="1.07362">
        <ele>203.80000305176</ele>
        <time>2011-07-13T12:55:38.000Z</time>
      </trkpt>
      <trkpt lat="45.04586" lon="1.0737">
        <ele>200.80000305176</ele>
        <time>2011-07-13T12:55:39.000Z</time>
      </trkpt>
      <trkpt lat="45.04612" lon="1.07415">
        <ele>186</ele>
        <time>2011-07-13T12:55:43.000Z</time>
      </trkpt>
      <trkpt lat="45.04648" lon="1.0746">
        <ele>177.39999389648</ele>
        <time>2011-07-13T12:55:47.000Z</time>
      </trkpt>
      <trkpt lat="45.04666" lon="1.07483">
        <ele>174.80000305176</ele>
        <time>2011-07-13T12:55:49.000Z</time>
      </trkpt>
      <trkpt lat="45.047" lon="1.07547">
        <ele>175.39999389648</ele>
        <time>2011-07-13T12:55:54.000Z</time>
      </trkpt>
      <trkpt lat="45.0473" lon="1.07613">
        <ele>173.60000610352</ele>
        <time>2011-07-13T12:55:59.000Z</time>
      </trkpt>
      <trkpt lat="45.04749" lon="1.07657">
        <ele>172.60000610352</ele>
        <time>2011-07-13T12:56:03.000Z</time>
      </trkpt>
      <trkpt lat="45.04754" lon="1.07668">
        <ele>171.60000610352</ele>
        <time>2011-07-13T12:56:04.000Z</time>
      </trkpt>
      <trkpt lat="45.04778" lon="1.07745">
        <ele>169.60000610352</ele>
        <time>2011-07-13T12:56:10.000Z</time>
      </trkpt>
      <trkpt lat="45.04787" lon="1.07816">
        <ele>169.60000610352</ele>
        <time>2011-07-13T12:56:15.000Z</time>
      </trkpt>
      <trkpt lat="45.0478" lon="1.07872">
        <ele>167.19999694824</ele>
        <time>2011-07-13T12:56:19.000Z</time>
      </trkpt>
      <trkpt lat="45.04768" lon="1.07907">
        <ele>164</ele>
        <time>2011-07-13T12:56:22.000Z</time>
      </trkpt>
      <trkpt lat="45.04764" lon="1.07915">
        <ele>163.60000610352</ele>
        <time>2011-07-13T12:56:23.000Z</time>
      </trkpt>
      <trkpt lat="45.04725" lon="1.07964">
        <ele>159.80000305176</ele>
        <time>2011-07-13T12:56:29.000Z</time>
      </trkpt>
      <trkpt lat="45.04697" lon="1.08016">
        <ele>157.39999389648</ele>
        <time>2011-07-13T12:56:34.000Z</time>
      </trkpt>
      <trkpt lat="45.04685" lon="1.0805">
        <ele>154</ele>
        <time>2011-07-13T12:56:38.000Z</time>
      </trkpt>
      <trkpt lat="45.0468" lon="1.08059">
        <ele>154.19999694824</ele>
        <time>2011-07-13T12:56:39.000Z</time>
      </trkpt>
      <trkpt lat="45.04667" lon="1.08106">
        <ele>150.19999694824</ele>
        <time>2011-07-13T12:56:44.000Z</time>
      </trkpt>
      <trkpt lat="45.04667" lon="1.08126">
        <ele>150.19999694824</ele>
        <time>2011-07-13T12:56:46.000Z</time>
      </trkpt>
      <trkpt lat="45.04672" lon="1.08175">
        <ele>144.60000610352</ele>
        <time>2011-07-13T12:56:52.000Z</time>
      </trkpt>
      <trkpt lat="45.04673" lon="1.08189">
        <ele>144</ele>
        <time>2011-07-13T12:56:54.000Z</time>
      </trkpt>
      <trkpt lat="45.04672" lon="1.08212">
        <ele>142</ele>
        <time>2011-07-13T12:56:57.000Z</time>
      </trkpt>
      <trkpt lat="45.04657" lon="1.08236">
        <ele>139.39999389648</ele>
        <time>2011-07-13T12:57:01.000Z</time>
      </trkpt>
      <trkpt lat="45.04647" lon="1.08237">
        <ele>137.80000305176</ele>
        <time>2011-07-13T12:57:03.000Z</time>
      </trkpt>
      <trkpt lat="45.04621" lon="1.08247">
        <ele>141.19999694824</ele>
        <time>2011-07-13T12:57:08.000Z</time>
      </trkpt>
      <trkpt lat="45.04599" lon="1.08254">
        <ele>143.39999389648</ele>
        <time>2011-07-13T12:57:12.000Z</time>
      </trkpt>
      <trkpt lat="45.0457" lon="1.08264">
        <ele>140.60000610352</ele>
        <time>2011-07-13T12:57:18.000Z</time>
      </trkpt>
      <trkpt lat="45.04547" lon="1.08267">
        <ele>137.80000305176</ele>
        <time>2011-07-13T12:57:24.000Z</time>
      </trkpt>
      <trkpt lat="45.04535" lon="1.08265">
        <ele>137.80000305176</ele>
        <time>2011-07-13T12:57:27.000Z</time>
      </trkpt>
      <trkpt lat="45.04513" lon="1.08251">
        <ele>139</ele>
        <time>2011-07-13T12:57:32.000Z</time>
      </trkpt>
      <trkpt lat="45.04502" lon="1.08237">
        <ele>139.80000305176</ele>
        <time>2011-07-13T12:57:35.000Z</time>
      </trkpt>
      <trkpt lat="45.0448" lon="1.08227">
        <ele>142</ele>
        <time>2011-07-13T12:57:39.000Z</time>
      </trkpt>
      <trkpt lat="45.04474" lon="1.08225">
        <ele>142.80000305176</ele>
        <time>2011-07-13T12:57:40.000Z</time>
      </trkpt>
      <trkpt lat="45.04463" lon="1.08223">
        <ele>144</ele>
        <time>2011-07-13T12:57:42.000Z</time>
      </trkpt>
      <trkpt lat="45.04424" lon="1.0821">
        <ele>149.39999389648</ele>
        <time>2011-07-13T12:57:48.000Z</time>
      </trkpt>
      <trkpt lat="45.04407" lon="1.08199">
        <ele>146</ele>
        <time>2011-07-13T12:57:52.000Z</time>
      </trkpt>
      <trkpt lat="45.04393" lon="1.08183">
        <ele>139.19999694824</ele>
        <time>2011-07-13T12:57:56.000Z</time>
      </trkpt>
      <trkpt lat="45.04377" lon="1.08161">
        <ele>133.19999694824</ele>
        <time>2011-07-13T12:58:01.000Z</time>
      </trkpt>
      <trkpt lat="45.04368" lon="1.08155">
        <ele>133.39999389648</ele>
        <time>2011-07-13T12:58:03.000Z</time>
      </trkpt>
      <trkpt lat="45.0436" lon="1.08152">
        <ele>133.39999389648</ele>
        <time>2011-07-13T12:58:07.000Z</time>
      </trkpt>
      <trkpt lat="45.04358" lon="1.08151">
        <ele>135</ele>
        <time>2011-07-13T12:58:09.000Z</time>
      </trkpt>
      <trkpt lat="45.04315" lon="1.08129">
        <ele>134.39999389648</ele>
        <time>2011-07-13T13:24:46.000Z</time>
      </trkpt>
      <trkpt lat="45.04306" lon="1.0813">
        <ele>133.39999389648</ele>
        <time>2011-07-13T13:24:49.000Z</time>
      </trkpt>
      <trkpt lat="45.04291" lon="1.08135">
        <ele>133.80000305176</ele>
        <time>2011-07-13T13:24:53.000Z</time>
      </trkpt>
      <trkpt lat="45.04268" lon="1.08132">
        <ele>133.39999389648</ele>
        <time>2011-07-13T13:24:59.000Z</time>
      </trkpt>
      <trkpt lat="45.04253" lon="1.08113">
        <ele>133.60000610352</ele>
        <time>2011-07-13T13:25:04.000Z</time>
      </trkpt>
      <trkpt lat="45.0425" lon="1.08106">
        <ele>133.60000610352</ele>
        <time>2011-07-13T13:25:06.000Z</time>
      </trkpt>
      <trkpt lat="45.04235" lon="1.08101">
        <ele>134.39999389648</ele>
        <time>2011-07-13T13:25:11.000Z</time>
      </trkpt>
      <trkpt lat="45.0423" lon="1.08104">
        <ele>134</ele>
        <time>2011-07-13T13:25:13.000Z</time>
      </trkpt>
      <trkpt lat="45.04209" lon="1.08112">
        <ele>133.39999389648</ele>
        <time>2011-07-13T13:25:19.000Z</time>
      </trkpt>
      <trkpt lat="45.04203" lon="1.08116">
        <ele>133.60000610352</ele>
        <time>2011-07-13T13:25:21.000Z</time>
      </trkpt>
      <trkpt lat="45.04201" lon="1.08139">
        <ele>133.80000305176</ele>
        <time>2011-07-13T13:25:26.000Z</time>
      </trkpt>
      <trkpt lat="45.04199" lon="1.08164">
        <ele>135.39999389648</ele>
        <time>2011-07-13T13:25:31.000Z</time>
      </trkpt>
      <trkpt lat="45.04195" lon="1.08179">
        <ele>136.60000610352</ele>
        <time>2011-07-13T13:25:34.000Z</time>
      </trkpt>
      <trkpt lat="45.04191" lon="1.0819">
        <ele>137</ele>
        <time>2011-07-13T13:25:36.000Z</time>
      </trkpt>
      <trkpt lat="45.04185" lon="1.082">
        <ele>137.19999694824</ele>
        <time>2011-07-13T13:25:38.000Z</time>
      </trkpt>
      <trkpt lat="45.04172" lon="1.0822">
        <ele>138.39999389648</ele>
        <time>2011-07-13T13:25:42.000Z</time>
      </trkpt>
      <trkpt lat="45.04152" lon="1.08265">
        <ele>140</ele>
        <time>2011-07-13T13:25:47.000Z</time>
      </trkpt>
      <trkpt lat="45.04147" lon="1.08272">
        <ele>140</ele>
        <time>2011-07-13T13:25:48.000Z</time>
      </trkpt>
      <trkpt lat="45.04117" lon="1.08299">
        <ele>139</ele>
        <time>2011-07-13T13:25:53.000Z</time>
      </trkpt>
      <trkpt lat="45.04091" lon="1.08322">
        <ele>136.60000610352</ele>
        <time>2011-07-13T13:25:58.000Z</time>
      </trkpt>
      <trkpt lat="45.04076" lon="1.08336">
        <ele>135.80000305176</ele>
        <time>2011-07-13T13:26:02.000Z</time>
      </trkpt>
      <trkpt lat="45.04064" lon="1.08354">
        <ele>134.60000610352</ele>
        <time>2011-07-13T13:26:07.000Z</time>
      </trkpt>
      <trkpt lat="45.0406" lon="1.08362">
        <ele>133.19999694824</ele>
        <time>2011-07-13T13:26:09.000Z</time>
      </trkpt>
      <trkpt lat="45.04054" lon="1.0838">
        <ele>131.39999389648</ele>
        <time>2011-07-13T13:26:12.000Z</time>
      </trkpt>
      <trkpt lat="45.04046" lon="1.08399">
        <ele>130</ele>
        <time>2011-07-13T13:26:15.000Z</time>
      </trkpt>
      <trkpt lat="45.04032" lon="1.08434">
        <ele>130.39999389648</ele>
        <time>2011-07-13T13:26:20.000Z</time>
      </trkpt>
      <trkpt lat="45.04027" lon="1.08451">
        <ele>126.80000305176</ele>
        <time>2011-07-13T13:26:23.000Z</time>
      </trkpt>
      <trkpt lat="45.04016" lon="1.08471">
        <ele>125.59999847412</ele>
        <time>2011-07-13T13:26:27.000Z</time>
      </trkpt>
      <trkpt lat="45.04003" lon="1.08494">
        <ele>125.59999847412</ele>
        <time>2011-07-13T13:26:31.000Z</time>
      </trkpt>
      <trkpt lat="45.03995" lon="1.08515">
        <ele>126</ele>
        <time>2011-07-13T13:26:34.000Z</time>
      </trkpt>
      <trkpt lat="45.03986" lon="1.0856">
        <ele>123.40000152588</ele>
        <time>2011-07-13T13:26:39.000Z</time>
      </trkpt>
      <trkpt lat="45.03975" lon="1.08607">
        <ele>122</ele>
        <time>2011-07-13T13:26:44.000Z</time>
      </trkpt>
      <trkpt lat="45.03961" lon="1.08646">
        <ele>119.19999694824</ele>
        <time>2011-07-13T13:26:49.000Z</time>
      </trkpt>
      <trkpt lat="45.03945" lon="1.08654">
        <ele>119</ele>
        <time>2011-07-13T13:26:52.000Z</time>
      </trkpt>
      <trkpt lat="45.03941" lon="1.08659">
        <ele>119.19999694824</ele>
        <time>2011-07-13T13:26:53.000Z</time>
      </trkpt>
      <trkpt lat="45.03926" lon="1.08686">
        <ele>119.59999847412</ele>
        <time>2011-07-13T13:26:59.000Z</time>
      </trkpt>
      <trkpt lat="45.03926" lon="1.0869">
        <ele>119.59999847412</ele>
        <time>2011-07-13T13:27:00.000Z</time>
      </trkpt>
      <trkpt lat="45.0393" lon="1.08711">
        <ele>121.19999694824</ele>
        <time>2011-07-13T13:27:05.000Z</time>
      </trkpt>
      <trkpt lat="45.0394" lon="1.0874">
        <ele>120.80000305176</ele>
        <time>2011-07-13T13:27:10.000Z</time>
      </trkpt>
      <trkpt lat="45.03943" lon="1.08755">
        <ele>120.59999847412</ele>
        <time>2011-07-13T13:27:12.000Z</time>
      </trkpt>
      <trkpt lat="45.03945" lon="1.08785">
        <ele>119.59999847412</ele>
        <time>2011-07-13T13:27:17.000Z</time>
      </trkpt>
      <trkpt lat="45.03939" lon="1.08813">
        <ele>119.19999694824</ele>
        <time>2011-07-13T13:27:24.000Z</time>
      </trkpt>
      <trkpt lat="45.03937" lon="1.08836">
        <ele>120.80000305176</ele>
        <time>2011-07-13T13:27:30.000Z</time>
      </trkpt>
      <trkpt lat="45.03936" lon="1.08855">
        <ele>122.59999847412</ele>
        <time>2011-07-13T13:27:35.000Z</time>
      </trkpt>
      <trkpt lat="45.03937" lon="1.08881">
        <ele>124.80000305176</ele>
        <time>2011-07-13T13:27:41.000Z</time>
      </trkpt>
      <trkpt lat="45.03938" lon="1.08886">
        <ele>125.59999847412</ele>
        <time>2011-07-13T13:27:42.000Z</time>
      </trkpt>
      <trkpt lat="45.03938" lon="1.08906">
        <ele>126.59999847412</ele>
        <time>2011-07-13T13:27:48.000Z</time>
      </trkpt>
      <trkpt lat="45.0394" lon="1.08914">
        <ele>123</ele>
        <time>2011-07-13T13:27:50.000Z</time>
      </trkpt>
      <trkpt lat="45.03943" lon="1.08926">
        <ele>118.19999694824</ele>
        <time>2011-07-13T13:27:53.000Z</time>
      </trkpt>
      <trkpt lat="45.03945" lon="1.08945">
        <ele>115.80000305176</ele>
        <time>2011-07-13T13:27:57.000Z</time>
      </trkpt>
      <trkpt lat="45.03941" lon="1.08978">
        <ele>114.59999847412</ele>
        <time>2011-07-13T13:28:03.000Z</time>
      </trkpt>
      <trkpt lat="45.03937" lon="1.09008">
        <ele>116.40000152588</ele>
        <time>2011-07-13T13:28:07.000Z</time>
      </trkpt>
      <trkpt lat="45.03933" lon="1.09037">
        <ele>118.59999847412</ele>
        <time>2011-07-13T13:28:11.000Z</time>
      </trkpt>
      <trkpt lat="45.03926" lon="1.09057">
        <ele>120.59999847412</ele>
        <time>2011-07-13T13:28:14.000Z</time>
      </trkpt>
      <trkpt lat="45.03913" lon="1.09102">
        <ele>117.80000305176</ele>
        <time>2011-07-13T13:28:20.000Z</time>
      </trkpt>
      <trkpt lat="45.03909" lon="1.09124">
        <ele>118</ele>
        <time>2011-07-13T13:28:23.000Z</time>
      </trkpt>
      <trkpt lat="45.03906" lon="1.09149">
        <ele>116.19999694824</ele>
        <time>2011-07-13T13:28:26.000Z</time>
      </trkpt>
      <trkpt lat="45.039" lon="1.09172">
        <ele>115.19999694824</ele>
        <time>2011-07-13T13:28:29.000Z</time>
      </trkpt>
      <trkpt lat="45.03894" lon="1.0919">
        <ele>117.19999694824</ele>
        <time>2011-07-13T13:28:32.000Z</time>
      </trkpt>
      <trkpt lat="45.03891" lon="1.09222">
        <ele>118</ele>
        <time>2011-07-13T13:28:36.000Z</time>
      </trkpt>
      <trkpt lat="45.03888" lon="1.09238">
        <ele>119</ele>
        <time>2011-07-13T13:28:38.000Z</time>
      </trkpt>
      <trkpt lat="45.0388" lon="1.09288">
        <ele>119.80000305176</ele>
        <time>2011-07-13T13:28:45.000Z</time>
      </trkpt>
      <trkpt lat="45.03873" lon="1.09327">
        <ele>117.19999694824</ele>
        <time>2011-07-13T13:28:51.000Z</time>
      </trkpt>
      <trkpt lat="45.03869" lon="1.09343">
        <ele>115.19999694824</ele>
        <time>2011-07-13T13:28:55.000Z</time>
      </trkpt>
      <trkpt lat="45.03863" lon="1.09369">
        <ele>114.19999694824</ele>
        <time>2011-07-13T13:29:03.000Z</time>
      </trkpt>
      <trkpt lat="45.03859" lon="1.09391">
        <ele>114</ele>
        <time>2011-07-13T13:29:09.000Z</time>
      </trkpt>
      <trkpt lat="45.03854" lon="1.0942">
        <ele>113.40000152588</ele>
        <time>2011-07-13T13:29:15.000Z</time>
      </trkpt>
      <trkpt lat="45.0385" lon="1.09429">
        <ele>112.80000305176</ele>
        <time>2011-07-13T13:29:17.000Z</time>
      </trkpt>
      <trkpt lat="45.03843" lon="1.09442">
        <ele>113.40000152588</ele>
        <time>2011-07-13T13:29:21.000Z</time>
      </trkpt>
      <trkpt lat="45.03841" lon="1.0945">
        <ele>113.80000305176</ele>
        <time>2011-07-13T13:29:24.000Z</time>
      </trkpt>
      <trkpt lat="45.03837" lon="1.0946">
        <ele>115.80000305176</ele>
        <time>2011-07-13T13:29:27.000Z</time>
      </trkpt>
      <trkpt lat="45.0384" lon="1.09475">
        <ele>117.40000152588</ele>
        <time>2011-07-13T13:29:32.000Z</time>
      </trkpt>
      <trkpt lat="45.03846" lon="1.09477">
        <ele>118</ele>
        <time>2011-07-13T13:29:34.000Z</time>
      </trkpt>
      <trkpt lat="45.03869" lon="1.09483">
        <ele>117</ele>
        <time>2011-07-13T13:29:41.000Z</time>
      </trkpt>
      <trkpt lat="45.03891" lon="1.09487">
        <ele>113.59999847412</ele>
        <time>2011-07-13T13:29:48.000Z</time>
      </trkpt>
      <trkpt lat="45.03919" lon="1.09492">
        <ele>110.40000152588</ele>
        <time>2011-07-13T13:29:56.000Z</time>
      </trkpt>
      <trkpt lat="45.0395" lon="1.09495">
        <ele>107.19999694824</ele>
        <time>2011-07-13T13:30:05.000Z</time>
      </trkpt>
      <trkpt lat="45.03953" lon="1.09495">
        <ele>107</ele>
        <time>2011-07-13T13:30:06.000Z</time>
      </trkpt>
      <trkpt lat="45.03959" lon="1.09511">
        <ele>105.59999847412</ele>
        <time>2011-07-13T13:30:10.000Z</time>
      </trkpt>
      <trkpt lat="45.03957" lon="1.09529">
        <ele>104</ele>
        <time>2011-07-13T13:30:13.000Z</time>
      </trkpt>
      <trkpt lat="45.03953" lon="1.09567">
        <ele>103.80000305176</ele>
        <time>2011-07-13T13:30:19.000Z</time>
      </trkpt>
      <trkpt lat="45.03949" lon="1.09585">
        <ele>104.59999847412</ele>
        <time>2011-07-13T13:30:22.000Z</time>
      </trkpt>
      <trkpt lat="45.03944" lon="1.09619">
        <ele>107.80000305176</ele>
        <time>2011-07-13T13:30:28.000Z</time>
      </trkpt>
      <trkpt lat="45.0394" lon="1.09653">
        <ele>109.19999694824</ele>
        <time>2011-07-13T13:30:34.000Z</time>
      </trkpt>
      <trkpt lat="45.03933" lon="1.09678">
        <ele>111.40000152588</ele>
        <time>2011-07-13T13:30:40.000Z</time>
      </trkpt>
      <trkpt lat="45.03927" lon="1.09698">
        <ele>113</ele>
        <time>2011-07-13T13:30:44.000Z</time>
      </trkpt>
      <trkpt lat="45.03915" lon="1.09734">
        <ele>116.59999847412</ele>
        <time>2011-07-13T13:30:50.000Z</time>
      </trkpt>
      <trkpt lat="45.03902" lon="1.09771">
        <ele>115.59999847412</ele>
        <time>2011-07-13T13:30:57.000Z</time>
      </trkpt>
      <trkpt lat="45.03893" lon="1.09798">
        <ele>111.59999847412</ele>
        <time>2011-07-13T13:31:03.000Z</time>
      </trkpt>
      <trkpt lat="45.03887" lon="1.09799">
        <ele>107</ele>
        <time>2011-07-13T13:31:08.000Z</time>
      </trkpt>
      <trkpt lat="45.03884" lon="1.09797">
        <ele>105.80000305176</ele>
        <time>2011-07-13T13:31:11.000Z</time>
      </trkpt>
      <trkpt lat="45.03875" lon="1.09789">
        <ele>102.80000305176</ele>
        <time>2011-07-13T13:31:18.000Z</time>
      </trkpt>
      <trkpt lat="45.03856" lon="1.09776">
        <ele>100.80000305176</ele>
        <time>2011-07-13T13:31:25.000Z</time>
      </trkpt>
      <trkpt lat="45.03828" lon="1.09757">
        <ele>100.59999847412</ele>
        <time>2011-07-13T13:31:34.000Z</time>
      </trkpt>
      <trkpt lat="45.03799" lon="1.09736">
        <ele>100.59999847412</ele>
        <time>2011-07-13T13:31:43.000Z</time>
      </trkpt>
      <trkpt lat="45.03794" lon="1.09735">
        <ele>101</ele>
        <time>2011-07-13T13:31:45.000Z</time>
      </trkpt>
      <trkpt lat="45.03787" lon="1.09746">
        <ele>102.40000152588</ele>
        <time>2011-07-13T13:31:51.000Z</time>
      </trkpt>
      <trkpt lat="45.03778" lon="1.09774">
        <ele>104.19999694824</ele>
        <time>2011-07-13T13:31:59.000Z</time>
      </trkpt>
      <trkpt lat="45.0377" lon="1.09804">
        <ele>107</ele>
        <time>2011-07-13T13:32:06.000Z</time>
      </trkpt>
      <trkpt lat="45.03762" lon="1.09822">
        <ele>108.19999694824</ele>
        <time>2011-07-13T13:32:11.000Z</time>
      </trkpt>
      <trkpt lat="45.03757" lon="1.09841">
        <ele>108.19999694824</ele>
        <time>2011-07-13T13:32:16.000Z</time>
      </trkpt>
      <trkpt lat="45.03751" lon="1.09858">
        <ele>108.80000305176</ele>
        <time>2011-07-13T13:32:21.000Z</time>
      </trkpt>
      <trkpt lat="45.03744" lon="1.09878">
        <ele>110.40000152588</ele>
        <time>2011-07-13T13:32:26.000Z</time>
      </trkpt>
      <trkpt lat="45.03737" lon="1.09901">
        <ele>111.19999694824</ele>
        <time>2011-07-13T13:32:31.000Z</time>
      </trkpt>
      <trkpt lat="45.03734" lon="1.0992">
        <ele>109.80000305176</ele>
        <time>2011-07-13T13:32:35.000Z</time>
      </trkpt>
      <trkpt lat="45.03721" lon="1.0993">
        <ele>110.40000152588</ele>
        <time>2011-07-13T13:32:40.000Z</time>
      </trkpt>
      <trkpt lat="45.03709" lon="1.09933">
        <ele>110.59999847412</ele>
        <time>2011-07-13T13:32:45.000Z</time>
      </trkpt>
      <trkpt lat="45.037" lon="1.09933">
        <ele>109.59999847412</ele>
        <time>2011-07-13T13:32:50.000Z</time>
      </trkpt>
      <trkpt lat="45.03691" lon="1.09935">
        <ele>108.19999694824</ele>
        <time>2011-07-13T13:32:57.000Z</time>
      </trkpt>
      <trkpt lat="45.03689" lon="1.09936">
        <ele>108.40000152588</ele>
        <time>2011-07-13T13:32:58.000Z</time>
      </trkpt>
      <trkpt lat="45.03678" lon="1.09937">
        <ele>109</ele>
        <time>2011-07-13T13:33:04.000Z</time>
      </trkpt>
      <trkpt lat="45.03669" lon="1.09939">
        <ele>110.40000152588</ele>
        <time>2011-07-13T13:33:09.000Z</time>
      </trkpt>
      <trkpt lat="45.03664" lon="1.09942">
        <ele>112</ele>
        <time>2011-07-13T13:33:12.000Z</time>
      </trkpt>
      <trkpt lat="45.03662" lon="1.09944">
        <ele>113</ele>
        <time>2011-07-13T13:33:14.000Z</time>
      </trkpt>
      <trkpt lat="45.03652" lon="1.0995">
        <ele>116</ele>
        <time>2011-07-13T13:33:21.000Z</time>
      </trkpt>
      <trkpt lat="45.03644" lon="1.09956">
        <ele>119.59999847412</ele>
        <time>2011-07-13T13:33:28.000Z</time>
      </trkpt>
      <trkpt lat="45.03636" lon="1.09963">
        <ele>123.19999694824</ele>
        <time>2011-07-13T13:33:34.000Z</time>
      </trkpt>
      <trkpt lat="45.03633" lon="1.09965">
        <ele>123.80000305176</ele>
        <time>2011-07-13T13:33:37.000Z</time>
      </trkpt>
      <trkpt lat="45.03623" lon="1.09972">
        <ele>126.40000152588</ele>
        <time>2011-07-13T13:33:44.000Z</time>
      </trkpt>
      <trkpt lat="45.0362" lon="1.09974">
        <ele>127</ele>
        <time>2011-07-13T13:33:46.000Z</time>
      </trkpt>
      <trkpt lat="45.03611" lon="1.09981">
        <ele>129.80000305176</ele>
        <time>2011-07-13T13:33:53.000Z</time>
      </trkpt>
      <trkpt lat="45.03605" lon="1.09986">
        <ele>131.80000305176</ele>
        <time>2011-07-13T13:33:57.000Z</time>
      </trkpt>
      <trkpt lat="45.03596" lon="1.09991">
        <ele>132.60000610352</ele>
        <time>2011-07-13T13:34:04.000Z</time>
      </trkpt>
      <trkpt lat="45.03587" lon="1.09997">
        <ele>133.19999694824</ele>
        <time>2011-07-13T13:34:11.000Z</time>
      </trkpt>
      <trkpt lat="45.03576" lon="1.1">
        <ele>135.19999694824</ele>
        <time>2011-07-13T13:34:19.000Z</time>
      </trkpt>
      <trkpt lat="45.03563" lon="1.09995">
        <ele>134</ele>
        <time>2011-07-13T13:34:27.000Z</time>
      </trkpt>
      <trkpt lat="45.03556" lon="1.09988">
        <ele>134.39999389648</ele>
        <time>2011-07-13T13:34:33.000Z</time>
      </trkpt>
      <trkpt lat="45.03551" lon="1.09973">
        <ele>135.39999389648</ele>
        <time>2011-07-13T13:34:41.000Z</time>
      </trkpt>
      <trkpt lat="45.03547" lon="1.09963">
        <ele>135</ele>
        <time>2011-07-13T13:34:47.000Z</time>
      </trkpt>
      <trkpt lat="45.0354" lon="1.09949">
        <ele>132.80000305176</ele>
        <time>2011-07-13T13:34:55.000Z</time>
      </trkpt>
      <trkpt lat="45.03535" lon="1.09933">
        <ele>133.39999389648</ele>
        <time>2011-07-13T13:35:02.000Z</time>
      </trkpt>
      <trkpt lat="45.0353" lon="1.09921">
        <ele>134.60000610352</ele>
        <time>2011-07-13T13:35:09.000Z</time>
      </trkpt>
      <trkpt lat="45.03523" lon="1.09905">
        <ele>136.19999694824</ele>
        <time>2011-07-13T13:35:17.000Z</time>
      </trkpt>
      <trkpt lat="45.03514" lon="1.09883">
        <ele>139</ele>
        <time>2011-07-13T13:35:26.000Z</time>
      </trkpt>
      <trkpt lat="45.03511" lon="1.09869">
        <ele>140.39999389648</ele>
        <time>2011-07-13T13:35:32.000Z</time>
      </trkpt>
      <trkpt lat="45.0351" lon="1.09866">
        <ele>140.60000610352</ele>
        <time>2011-07-13T13:35:33.000Z</time>
      </trkpt>
      <trkpt lat="45.03499" lon="1.09835">
        <ele>141.19999694824</ele>
        <time>2011-07-13T13:35:43.000Z</time>
      </trkpt>
      <trkpt lat="45.03493" lon="1.0982">
        <ele>142.80000305176</ele>
        <time>2011-07-13T13:35:48.000Z</time>
      </trkpt>
      <trkpt lat="45.03485" lon="1.09802">
        <ele>144.39999389648</ele>
        <time>2011-07-13T13:35:54.000Z</time>
      </trkpt>
      <trkpt lat="45.03477" lon="1.09783">
        <ele>144.80000305176</ele>
        <time>2011-07-13T13:36:01.000Z</time>
      </trkpt>
      <trkpt lat="45.0347" lon="1.09763">
        <ele>146.19999694824</ele>
        <time>2011-07-13T13:36:07.000Z</time>
      </trkpt>
      <trkpt lat="45.03462" lon="1.09744">
        <ele>145.60000610352</ele>
        <time>2011-07-13T13:36:13.000Z</time>
      </trkpt>
      <trkpt lat="45.03457" lon="1.09728">
        <ele>144</ele>
        <time>2011-07-13T13:36:18.000Z</time>
      </trkpt>
      <trkpt lat="45.03451" lon="1.09713">
        <ele>144.60000610352</ele>
        <time>2011-07-13T13:36:23.000Z</time>
      </trkpt>
      <trkpt lat="45.0344" lon="1.09698">
        <ele>144.80000305176</ele>
        <time>2011-07-13T13:36:29.000Z</time>
      </trkpt>
      <trkpt lat="45.03425" lon="1.0968">
        <ele>143.80000305176</ele>
        <time>2011-07-13T13:36:33.000Z</time>
      </trkpt>
      <trkpt lat="45.03407" lon="1.09658">
        <ele>142.19999694824</ele>
        <time>2011-07-13T13:36:37.000Z</time>
      </trkpt>
      <trkpt lat="45.03388" lon="1.09637">
        <ele>141.19999694824</ele>
        <time>2011-07-13T13:36:43.000Z</time>
      </trkpt>
      <trkpt lat="45.03359" lon="1.09601">
        <ele>141.60000610352</ele>
        <time>2011-07-13T13:36:51.000Z</time>
      </trkpt>
      <trkpt lat="45.03344" lon="1.09572">
        <ele>143.39999389648</ele>
        <time>2011-07-13T13:36:58.000Z</time>
      </trkpt>
      <trkpt lat="45.03336" lon="1.09549">
        <ele>145.80000305176</ele>
        <time>2011-07-13T13:37:04.000Z</time>
      </trkpt>
      <trkpt lat="45.03328" lon="1.09534">
        <ele>148.60000610352</ele>
        <time>2011-07-13T13:37:09.000Z</time>
      </trkpt>
      <trkpt lat="45.03284" lon="1.0948">
        <ele>157.60000610352</ele>
        <time>2011-07-13T13:37:30.000Z</time>
      </trkpt>
      <trkpt lat="45.03275" lon="1.0947">
        <ele>158.19999694824</ele>
        <time>2011-07-13T13:37:35.000Z</time>
      </trkpt>
      <trkpt lat="45.03267" lon="1.09462">
        <ele>161.80000305176</ele>
        <time>2011-07-13T13:37:41.000Z</time>
      </trkpt>
      <trkpt lat="45.0326" lon="1.09457">
        <ele>164.80000305176</ele>
        <time>2011-07-13T13:37:46.000Z</time>
      </trkpt>
      <trkpt lat="45.03255" lon="1.09453">
        <ele>167.19999694824</ele>
        <time>2011-07-13T13:37:51.000Z</time>
      </trkpt>
      <trkpt lat="45.03244" lon="1.09438">
        <ele>171.60000610352</ele>
        <time>2011-07-13T13:37:59.000Z</time>
      </trkpt>
      <trkpt lat="45.03234" lon="1.09433">
        <ele>177</ele>
        <time>2011-07-13T13:38:06.000Z</time>
      </trkpt>
      <trkpt lat="45.03227" lon="1.09431">
        <ele>178</ele>
        <time>2011-07-13T13:38:13.000Z</time>
      </trkpt>
      <trkpt lat="45.03225" lon="1.09431">
        <ele>177.60000610352</ele>
        <time>2011-07-13T13:38:14.000Z</time>
      </trkpt>
      <trkpt lat="45.03217" lon="1.09431">
        <ele>181.39999389648</ele>
        <time>2011-07-13T13:38:22.000Z</time>
      </trkpt>
      <trkpt lat="45.03211" lon="1.0943">
        <ele>183.39999389648</ele>
        <time>2011-07-13T13:38:28.000Z</time>
      </trkpt>
      <trkpt lat="45.03202" lon="1.09434">
        <ele>185.80000305176</ele>
        <time>2011-07-13T13:38:33.000Z</time>
      </trkpt>
      <trkpt lat="45.03197" lon="1.09441">
        <ele>189.19999694824</ele>
        <time>2011-07-13T13:38:37.000Z</time>
      </trkpt>
      <trkpt lat="45.03188" lon="1.09447">
        <ele>191.39999389648</ele>
        <time>2011-07-13T13:38:42.000Z</time>
      </trkpt>
      <trkpt lat="45.03186" lon="1.09449">
        <ele>192.80000305176</ele>
        <time>2011-07-13T13:38:44.000Z</time>
      </trkpt>
      <trkpt lat="45.03179" lon="1.09458">
        <ele>197.39999389648</ele>
        <time>2011-07-13T13:38:49.000Z</time>
      </trkpt>
      <trkpt lat="45.03173" lon="1.09468">
        <ele>202</ele>
        <time>2011-07-13T13:38:55.000Z</time>
      </trkpt>
      <trkpt lat="45.03168" lon="1.09475">
        <ele>202</ele>
        <time>2011-07-13T13:38:59.000Z</time>
      </trkpt>
      <trkpt lat="45.03158" lon="1.09484">
        <ele>200.80000305176</ele>
        <time>2011-07-13T13:39:05.000Z</time>
      </trkpt>
      <trkpt lat="45.03157" lon="1.09485">
        <ele>200</ele>
        <time>2011-07-13T13:39:06.000Z</time>
      </trkpt>
      <trkpt lat="45.03153" lon="1.09487">
        <ele>199.19999694824</ele>
        <time>2011-07-13T13:39:10.000Z</time>
      </trkpt>
      <trkpt lat="45.03141" lon="1.09483">
        <ele>194</ele>
        <time>2011-07-13T13:39:19.000Z</time>
      </trkpt>
      <trkpt lat="45.03139" lon="1.09481">
        <ele>193</ele>
        <time>2011-07-13T13:39:21.000Z</time>
      </trkpt>
      <trkpt lat="45.0313" lon="1.09479">
        <ele>192.19999694824</ele>
        <time>2011-07-13T13:39:29.000Z</time>
      </trkpt>
      <trkpt lat="45.03126" lon="1.09478">
        <ele>192.19999694824</ele>
        <time>2011-07-13T13:39:32.000Z</time>
      </trkpt>
      <trkpt lat="45.03118" lon="1.09472">
        <ele>192.39999389648</ele>
        <time>2011-07-13T13:39:40.000Z</time>
      </trkpt>
      <trkpt lat="45.03108" lon="1.09467">
        <ele>192.39999389648</ele>
        <time>2011-07-13T13:39:46.000Z</time>
      </trkpt>
      <trkpt lat="45.03106" lon="1.09467">
        <ele>192.80000305176</ele>
        <time>2011-07-13T13:39:47.000Z</time>
      </trkpt>
      <trkpt lat="45.03098" lon="1.09466">
        <ele>197.39999389648</ele>
        <time>2011-07-13T13:39:53.000Z</time>
      </trkpt>
      <trkpt lat="45.03095" lon="1.09463">
        <ele>198.39999389648</ele>
        <time>2011-07-13T13:39:57.000Z</time>
      </trkpt>
      <trkpt lat="45.03092" lon="1.09443">
        <ele>188.80000305176</ele>
        <time>2011-07-13T14:04:39.000Z</time>
      </trkpt>
      <trkpt lat="45.03087" lon="1.09441">
        <ele>194</ele>
        <time>2011-07-13T14:04:45.000Z</time>
      </trkpt>
      <trkpt lat="45.0308" lon="1.09436">
        <ele>200.19999694824</ele>
        <time>2011-07-13T14:04:50.000Z</time>
      </trkpt>
      <trkpt lat="45.03077" lon="1.09426">
        <ele>201</ele>
        <time>2011-07-13T14:04:56.000Z</time>
      </trkpt>
      <trkpt lat="45.03077" lon="1.09425">
        <ele>200.39999389648</ele>
        <time>2011-07-13T14:04:57.000Z</time>
      </trkpt>
      <trkpt lat="45.03076" lon="1.09421">
        <ele>199.19999694824</ele>
        <time>2011-07-13T14:04:59.000Z</time>
      </trkpt>
      <trkpt lat="45.03071" lon="1.09415">
        <ele>198.60000610352</ele>
        <time>2011-07-13T14:05:05.000Z</time>
      </trkpt>
      <trkpt lat="45.03069" lon="1.09413">
        <ele>199.60000610352</ele>
        <time>2011-07-13T14:05:15.000Z</time>
      </trkpt>
      <trkpt lat="45.0306" lon="1.09414">
        <ele>197.39999389648</ele>
        <time>2011-07-13T14:05:22.000Z</time>
      </trkpt>
      <trkpt lat="45.03049" lon="1.09416">
        <ele>197.19999694824</ele>
        <time>2011-07-13T14:05:29.000Z</time>
      </trkpt>
      <trkpt lat="45.03046" lon="1.09417">
        <ele>197</ele>
        <time>2011-07-13T14:05:31.000Z</time>
      </trkpt>
      <trkpt lat="45.03034" lon="1.09421">
        <ele>198.80000305176</ele>
        <time>2011-07-13T14:05:38.000Z</time>
      </trkpt>
      <trkpt lat="45.03022" lon="1.09421">
        <ele>198.80000305176</ele>
        <time>2011-07-13T14:05:45.000Z</time>
      </trkpt>
      <trkpt lat="45.03012" lon="1.09412">
        <ele>198.19999694824</ele>
        <time>2011-07-13T14:05:53.000Z</time>
      </trkpt>
      <trkpt lat="45.03011" lon="1.09411">
        <ele>198</ele>
        <time>2011-07-13T14:05:54.000Z</time>
      </trkpt>
      <trkpt lat="45.03007" lon="1.09404">
        <ele>199</ele>
        <time>2011-07-13T14:05:58.000Z</time>
      </trkpt>
      <trkpt lat="45.03004" lon="1.09402">
        <ele>198.39999389648</ele>
        <time>2011-07-13T14:06:01.000Z</time>
      </trkpt>
      <trkpt lat="45.02998" lon="1.09404">
        <ele>200.39999389648</ele>
        <time>2011-07-13T14:06:06.000Z</time>
      </trkpt>
      <trkpt lat="45.02992" lon="1.09406">
        <ele>200.80000305176</ele>
        <time>2011-07-13T14:06:11.000Z</time>
      </trkpt>
      <trkpt lat="45.0299" lon="1.09405">
        <ele>202.19999694824</ele>
        <time>2011-07-13T14:06:14.000Z</time>
      </trkpt>
      <trkpt lat="45.02987" lon="1.09407">
        <ele>219.39999389648</ele>
        <time>2011-07-13T14:06:44.000Z</time>
      </trkpt>
      <trkpt lat="45.02986" lon="1.09402">
        <ele>218.60000610352</ele>
        <time>2011-07-13T14:06:47.000Z</time>
      </trkpt>
      <trkpt lat="45.02987" lon="1.09392">
        <ele>214.19999694824</ele>
        <time>2011-07-13T14:06:53.000Z</time>
      </trkpt>
      <trkpt lat="45.02985" lon="1.0938">
        <ele>208.80000305176</ele>
        <time>2011-07-13T14:06:59.000Z</time>
      </trkpt>
      <trkpt lat="45.02986" lon="1.09365">
        <ele>204</ele>
        <time>2011-07-13T14:07:06.000Z</time>
      </trkpt>
      <trkpt lat="45.02988" lon="1.09357">
        <ele>201.80000305176</ele>
        <time>2011-07-13T14:07:11.000Z</time>
      </trkpt>
      <trkpt lat="45.02987" lon="1.09351">
        <ele>201.80000305176</ele>
        <time>2011-07-13T14:07:14.000Z</time>
      </trkpt>
      <trkpt lat="45.02989" lon="1.0934">
        <ele>206.19999694824</ele>
        <time>2011-07-13T14:07:21.000Z</time>
      </trkpt>
      <trkpt lat="45.02992" lon="1.09332">
        <ele>207.19999694824</ele>
        <time>2011-07-13T14:07:26.000Z</time>
      </trkpt>
      <trkpt lat="45.02995" lon="1.09324">
        <ele>206.19999694824</ele>
        <time>2011-07-13T14:07:31.000Z</time>
      </trkpt>
      <trkpt lat="45.02999" lon="1.09311">
        <ele>208.80000305176</ele>
        <time>2011-07-13T14:07:39.000Z</time>
      </trkpt>
      <trkpt lat="45.03" lon="1.09308">
        <ele>209.19999694824</ele>
        <time>2011-07-13T14:07:41.000Z</time>
      </trkpt>
      <trkpt lat="45.03007" lon="1.09293">
        <ele>213.19999694824</ele>
        <time>2011-07-13T14:07:51.000Z</time>
      </trkpt>
      <trkpt lat="45.03008" lon="1.09288">
        <ele>215.60000610352</ele>
        <time>2011-07-13T14:07:54.000Z</time>
      </trkpt>
      <trkpt lat="45.03012" lon="1.09271">
        <ele>211.39999389648</ele>
        <time>2011-07-13T14:08:02.000Z</time>
      </trkpt>
      <trkpt lat="45.03012" lon="1.09269">
        <ele>210.19999694824</ele>
        <time>2011-07-13T14:08:03.000Z</time>
      </trkpt>
      <trkpt lat="45.03018" lon="1.09248">
        <ele>205</ele>
        <time>2011-07-13T14:08:13.000Z</time>
      </trkpt>
      <trkpt lat="45.03021" lon="1.09232">
        <ele>200.80000305176</ele>
        <time>2011-07-13T14:08:20.000Z</time>
      </trkpt>
      <trkpt lat="45.03024" lon="1.09216">
        <ele>199</ele>
        <time>2011-07-13T14:08:27.000Z</time>
      </trkpt>
      <trkpt lat="45.03028" lon="1.092">
        <ele>195</ele>
        <time>2011-07-13T14:08:34.000Z</time>
      </trkpt>
      <trkpt lat="45.03029" lon="1.09185">
        <ele>193.19999694824</ele>
        <time>2011-07-13T14:08:40.000Z</time>
      </trkpt>
      <trkpt lat="45.03032" lon="1.09171">
        <ele>193</ele>
        <time>2011-07-13T14:08:46.000Z</time>
      </trkpt>
      <trkpt lat="45.03034" lon="1.09156">
        <ele>194.39999389648</ele>
        <time>2011-07-13T14:08:52.000Z</time>
      </trkpt>
      <trkpt lat="45.03034" lon="1.09153">
        <ele>194.80000305176</ele>
        <time>2011-07-13T14:08:53.000Z</time>
      </trkpt>
      <trkpt lat="45.03035" lon="1.09134">
        <ele>195.60000610352</ele>
        <time>2011-07-13T14:09:00.000Z</time>
      </trkpt>
      <trkpt lat="45.03035" lon="1.0913">
        <ele>195.39999389648</ele>
        <time>2011-07-13T14:09:01.000Z</time>
      </trkpt>
      <trkpt lat="45.03038" lon="1.09107">
        <ele>193.60000610352</ele>
        <time>2011-07-13T14:09:08.000Z</time>
      </trkpt>
      <trkpt lat="45.03039" lon="1.09104">
        <ele>193.60000610352</ele>
        <time>2011-07-13T14:09:09.000Z</time>
      </trkpt>
      <trkpt lat="45.03043" lon="1.09084">
        <ele>192.80000305176</ele>
        <time>2011-07-13T14:09:14.000Z</time>
      </trkpt>
      <trkpt lat="45.03043" lon="1.09057">
        <ele>197.19999694824</ele>
        <time>2011-07-13T14:09:20.000Z</time>
      </trkpt>
      <trkpt lat="45.03039" lon="1.09041">
        <ele>199.19999694824</ele>
        <time>2011-07-13T14:09:24.000Z</time>
      </trkpt>
      <trkpt lat="45.03029" lon="1.09041">
        <ele>200.39999389648</ele>
        <time>2011-07-13T14:09:28.000Z</time>
      </trkpt>
      <trkpt lat="45.03" lon="1.09056">
        <ele>202.39999389648</ele>
        <time>2011-07-13T14:09:37.000Z</time>
      </trkpt>
      <trkpt lat="45.02975" lon="1.0907">
        <ele>203.39999389648</ele>
        <time>2011-07-13T14:09:44.000Z</time>
      </trkpt>
      <trkpt lat="45.02957" lon="1.09075">
        <ele>201.60000610352</ele>
        <time>2011-07-13T14:09:48.000Z</time>
      </trkpt>
      <trkpt lat="45.02912" lon="1.09077">
        <ele>200.60000610352</ele>
        <time>2011-07-13T14:09:56.000Z</time>
      </trkpt>
      <trkpt lat="45.02879" lon="1.09082">
        <ele>198.80000305176</ele>
        <time>2011-07-13T14:10:01.000Z</time>
      </trkpt>
      <trkpt lat="45.02857" lon="1.09092">
        <ele>199.19999694824</ele>
        <time>2011-07-13T14:10:04.000Z</time>
      </trkpt>
      <trkpt lat="45.02826" lon="1.09098">
        <ele>197.60000610352</ele>
        <time>2011-07-13T14:10:08.000Z</time>
      </trkpt>
      <trkpt lat="45.02793" lon="1.09093">
        <ele>195.60000610352</ele>
        <time>2011-07-13T14:10:12.000Z</time>
      </trkpt>
      <trkpt lat="45.02763" lon="1.09101">
        <ele>194.80000305176</ele>
        <time>2011-07-13T14:10:16.000Z</time>
      </trkpt>
      <trkpt lat="45.02731" lon="1.0912">
        <ele>192</ele>
        <time>2011-07-13T14:10:21.000Z</time>
      </trkpt>
      <trkpt lat="45.02703" lon="1.09141">
        <ele>192.39999389648</ele>
        <time>2011-07-13T14:10:26.000Z</time>
      </trkpt>
      <trkpt lat="45.02693" lon="1.09149">
        <ele>192</ele>
        <time>2011-07-13T14:10:28.000Z</time>
      </trkpt>
      <trkpt lat="45.02672" lon="1.0916">
        <ele>191</ele>
        <time>2011-07-13T14:10:32.000Z</time>
      </trkpt>
      <trkpt lat="45.02634" lon="1.09168">
        <ele>196.19999694824</ele>
        <time>2011-07-13T14:10:38.000Z</time>
      </trkpt>
      <trkpt lat="45.02599" lon="1.09176">
        <ele>196</ele>
        <time>2011-07-13T14:10:44.000Z</time>
      </trkpt>
      <trkpt lat="45.02593" lon="1.09178">
        <ele>195.39999389648</ele>
        <time>2011-07-13T14:10:45.000Z</time>
      </trkpt>
      <trkpt lat="45.02559" lon="1.09193">
        <ele>195.19999694824</ele>
        <time>2011-07-13T14:10:50.000Z</time>
      </trkpt>
      <trkpt lat="45.02525" lon="1.09226">
        <ele>191.60000610352</ele>
        <time>2011-07-13T14:10:56.000Z</time>
      </trkpt>
      <trkpt lat="45.02493" lon="1.09268">
        <ele>188.80000305176</ele>
        <time>2011-07-13T14:11:03.000Z</time>
      </trkpt>
      <trkpt lat="45.02472" lon="1.09292">
        <ele>188</ele>
        <time>2011-07-13T14:11:07.000Z</time>
      </trkpt>
      <trkpt lat="45.02451" lon="1.09315">
        <ele>187.19999694824</ele>
        <time>2011-07-13T14:11:11.000Z</time>
      </trkpt>
      <trkpt lat="45.02404" lon="1.09375">
        <ele>186.19999694824</ele>
        <time>2011-07-13T14:11:20.000Z</time>
      </trkpt>
      <trkpt lat="45.02399" lon="1.09381">
        <ele>186.39999389648</ele>
        <time>2011-07-13T14:11:21.000Z</time>
      </trkpt>
      <trkpt lat="45.0238" lon="1.09426">
        <ele>189.80000305176</ele>
        <time>2011-07-13T14:11:27.000Z</time>
      </trkpt>
      <trkpt lat="45.02359" lon="1.09479">
        <ele>196.80000305176</ele>
        <time>2011-07-13T14:11:34.000Z</time>
      </trkpt>
      <trkpt lat="45.02356" lon="1.09487">
        <ele>198.60000610352</ele>
        <time>2011-07-13T14:11:35.000Z</time>
      </trkpt>
      <trkpt lat="45.02341" lon="1.09522">
        <ele>199.60000610352</ele>
        <time>2011-07-13T14:11:41.000Z</time>
      </trkpt>
      <trkpt lat="45.0233" lon="1.09547">
        <ele>198.80000305176</ele>
        <time>2011-07-13T14:11:46.000Z</time>
      </trkpt>
      <trkpt lat="45.02317" lon="1.09573">
        <ele>200.60000610352</ele>
        <time>2011-07-13T14:11:51.000Z</time>
      </trkpt>
      <trkpt lat="45.02299" lon="1.09607">
        <ele>200.39999389648</ele>
        <time>2011-07-13T14:11:59.000Z</time>
      </trkpt>
      <trkpt lat="45.02298" lon="1.09608">
        <ele>200.19999694824</ele>
        <time>2011-07-13T14:12:02.000Z</time>
      </trkpt>
      <trkpt lat="45.02292" lon="1.09616">
        <ele>204.19999694824</ele>
        <time>2011-07-13T14:15:27.000Z</time>
      </trkpt>
      <trkpt lat="45.02283" lon="1.09631">
        <ele>202.60000610352</ele>
        <time>2011-07-13T14:15:32.000Z</time>
      </trkpt>
      <trkpt lat="45.02265" lon="1.09657">
        <ele>200.39999389648</ele>
        <time>2011-07-13T14:15:37.000Z</time>
      </trkpt>
      <trkpt lat="45.02246" lon="1.09678">
        <ele>196.60000610352</ele>
        <time>2011-07-13T14:15:40.000Z</time>
      </trkpt>
      <trkpt lat="45.02204" lon="1.0969">
        <ele>187.60000610352</ele>
        <time>2011-07-13T14:15:44.000Z</time>
      </trkpt>
      <trkpt lat="45.0215" lon="1.09698">
        <ele>179.80000305176</ele>
        <time>2011-07-13T14:15:48.000Z</time>
      </trkpt>
      <trkpt lat="45.02124" lon="1.09705">
        <ele>177.60000610352</ele>
        <time>2011-07-13T14:15:50.000Z</time>
      </trkpt>
      <trkpt lat="45.02058" lon="1.09704">
        <ele>171.39999389648</ele>
        <time>2011-07-13T14:15:55.000Z</time>
      </trkpt>
      <trkpt lat="45.01985" lon="1.09696">
        <ele>168</ele>
        <time>2011-07-13T14:16:01.000Z</time>
      </trkpt>
      <trkpt lat="45.01943" lon="1.09686">
        <ele>167.19999694824</ele>
        <time>2011-07-13T14:16:05.000Z</time>
      </trkpt>
      <trkpt lat="45.01901" lon="1.09684">
        <ele>168.39999389648</ele>
        <time>2011-07-13T14:16:10.000Z</time>
      </trkpt>
      <trkpt lat="45.01871" lon="1.09684">
        <ele>170</ele>
        <time>2011-07-13T14:16:15.000Z</time>
      </trkpt>
      <trkpt lat="45.01842" lon="1.09678">
        <ele>171.19999694824</ele>
        <time>2011-07-13T14:16:22.000Z</time>
      </trkpt>
      <trkpt lat="45.01813" lon="1.09672">
        <ele>172</ele>
        <time>2011-07-13T14:16:29.000Z</time>
      </trkpt>
      <trkpt lat="45.01796" lon="1.0967">
        <ele>172.19999694824</ele>
        <time>2011-07-13T14:16:35.000Z</time>
      </trkpt>
      <trkpt lat="45.01773" lon="1.09675">
        <ele>171.19999694824</ele>
        <time>2011-07-13T14:16:42.000Z</time>
      </trkpt>
      <trkpt lat="45.01751" lon="1.09684">
        <ele>169.39999389648</ele>
        <time>2011-07-13T14:16:47.000Z</time>
      </trkpt>
      <trkpt lat="45.01719" lon="1.09705">
        <ele>166.19999694824</ele>
        <time>2011-07-13T14:16:53.000Z</time>
      </trkpt>
      <trkpt lat="45.01683" lon="1.09739">
        <ele>162.39999389648</ele>
        <time>2011-07-13T14:16:59.000Z</time>
      </trkpt>
      <trkpt lat="45.01643" lon="1.09777">
        <ele>156.80000305176</ele>
        <time>2011-07-13T14:17:04.000Z</time>
      </trkpt>
      <trkpt lat="45.0159" lon="1.09821">
        <ele>153.39999389648</ele>
        <time>2011-07-13T14:17:10.000Z</time>
      </trkpt>
      <trkpt lat="45.01573" lon="1.09835">
        <ele>152.39999389648</ele>
        <time>2011-07-13T14:17:12.000Z</time>
      </trkpt>
      <trkpt lat="45.01546" lon="1.09834">
        <ele>149.80000305176</ele>
        <time>2011-07-13T14:17:15.000Z</time>
      </trkpt>
      <trkpt lat="45.01538" lon="1.09828">
        <ele>149.19999694824</ele>
        <time>2011-07-13T14:17:16.000Z</time>
      </trkpt>
      <trkpt lat="45.01513" lon="1.0981">
        <ele>145.80000305176</ele>
        <time>2011-07-13T14:17:20.000Z</time>
      </trkpt>
      <trkpt lat="45.01501" lon="1.09799">
        <ele>143.60000610352</ele>
        <time>2011-07-13T14:17:24.000Z</time>
      </trkpt>
      <trkpt lat="45.01489" lon="1.09788">
        <ele>141.39999389648</ele>
        <time>2011-07-13T14:17:29.000Z</time>
      </trkpt>
      <trkpt lat="45.01482" lon="1.09782">
        <ele>140.19999694824</ele>
        <time>2011-07-13T14:17:31.000Z</time>
      </trkpt>
      <trkpt lat="45.01463" lon="1.09763">
        <ele>136.19999694824</ele>
        <time>2011-07-13T14:17:36.000Z</time>
      </trkpt>
      <trkpt lat="45.0144" lon="1.0974">
        <ele>131.39999389648</ele>
        <time>2011-07-13T14:17:41.000Z</time>
      </trkpt>
      <trkpt lat="45.01429" lon="1.09723">
        <ele>128.39999389648</ele>
        <time>2011-07-13T14:17:44.000Z</time>
      </trkpt>
      <trkpt lat="45.01425" lon="1.09711">
        <ele>126.59999847412</ele>
        <time>2011-07-13T14:17:46.000Z</time>
      </trkpt>
      <trkpt lat="45.01415" lon="1.09683">
        <ele>122</ele>
        <time>2011-07-13T14:17:51.000Z</time>
      </trkpt>
      <trkpt lat="45.01412" lon="1.0968">
        <ele>121.19999694824</ele>
        <time>2011-07-13T14:17:52.000Z</time>
      </trkpt>
      <trkpt lat="45.01388" lon="1.09663">
        <ele>117.40000152588</ele>
        <time>2011-07-13T14:17:57.000Z</time>
      </trkpt>
      <trkpt lat="45.01352" lon="1.09644">
        <ele>111.19999694824</ele>
        <time>2011-07-13T14:18:03.000Z</time>
      </trkpt>
      <trkpt lat="45.01345" lon="1.09642">
        <ele>110.40000152588</ele>
        <time>2011-07-13T14:18:04.000Z</time>
      </trkpt>
      <trkpt lat="45.01318" lon="1.0963">
        <ele>107.59999847412</ele>
        <time>2011-07-13T14:18:08.000Z</time>
      </trkpt>
      <trkpt lat="45.01292" lon="1.09607">
        <ele>104.59999847412</ele>
        <time>2011-07-13T14:18:12.000Z</time>
      </trkpt>
      <trkpt lat="45.01278" lon="1.09595">
        <ele>102.80000305176</ele>
        <time>2011-07-13T14:18:14.000Z</time>
      </trkpt>
      <trkpt lat="45.01265" lon="1.0958">
        <ele>101</ele>
        <time>2011-07-13T14:18:16.000Z</time>
      </trkpt>
      <trkpt lat="45.01239" lon="1.09558">
        <ele>96</ele>
        <time>2011-07-13T14:18:20.000Z</time>
      </trkpt>
      <trkpt lat="45.01206" lon="1.09547">
        <ele>90.599998474121</ele>
        <time>2011-07-13T14:18:24.000Z</time>
      </trkpt>
      <trkpt lat="45.01182" lon="1.0954">
        <ele>87</ele>
        <time>2011-07-13T14:18:27.000Z</time>
      </trkpt>
      <trkpt lat="45.01169" lon="1.09534">
        <ele>83.400001525879</ele>
        <time>2011-07-13T14:18:31.000Z</time>
      </trkpt>
      <trkpt lat="45.01167" lon="1.09531">
        <ele>83.400001525879</ele>
        <time>2011-07-13T14:18:35.000Z</time>
      </trkpt>
      <trkpt lat="45.01173" lon="1.09522">
        <ele>86.599998474121</ele>
        <time>2011-07-13T14:19:39.000Z</time>
      </trkpt>
      <trkpt lat="45.01172" lon="1.09521">
        <ele>86.800003051758</ele>
        <time>2011-07-13T14:19:40.000Z</time>
      </trkpt>
      <trkpt lat="45.01162" lon="1.09512">
        <ele>83.199996948242</ele>
        <time>2011-07-13T14:19:44.000Z</time>
      </trkpt>
      <trkpt lat="45.01158" lon="1.09508">
        <ele>81.800003051758</ele>
        <time>2011-07-13T14:19:47.000Z</time>
      </trkpt>
      <trkpt lat="45.01158" lon="1.09508">
        <ele>81.599998474121</ele>
        <time>2011-07-13T14:19:48.000Z</time>
      </trkpt>
      <trkpt lat="45.0115" lon="1.09493">
        <ele>81.199996948242</ele>
        <time>2011-07-13T14:20:07.000Z</time>
      </trkpt>
      <trkpt lat="45.01137" lon="1.09464">
        <ele>79.800003051758</ele>
        <time>2011-07-13T14:20:12.000Z</time>
      </trkpt>
      <trkpt lat="45.01112" lon="1.09414">
        <ele>75.800003051758</ele>
        <time>2011-07-13T14:20:19.000Z</time>
      </trkpt>
      <trkpt lat="45.01087" lon="1.09368">
        <ele>74</ele>
        <time>2011-07-13T14:20:25.000Z</time>
      </trkpt>
      <trkpt lat="45.0107" lon="1.09335">
        <ele>72.599998474121</ele>
        <time>2011-07-13T14:20:29.000Z</time>
      </trkpt>
      <trkpt lat="45.0105" lon="1.09311">
        <ele>71.599998474121</ele>
        <time>2011-07-13T14:20:33.000Z</time>
      </trkpt>
      <trkpt lat="45.0104" lon="1.09303">
        <ele>71</ele>
        <time>2011-07-13T14:20:35.000Z</time>
      </trkpt>
      <trkpt lat="45.01024" lon="1.09305">
        <ele>70</ele>
        <time>2011-07-13T14:20:39.000Z</time>
      </trkpt>
      <trkpt lat="45.01015" lon="1.0932">
        <ele>69.400001525879</ele>
        <time>2011-07-13T14:20:44.000Z</time>
      </trkpt>
      <trkpt lat="45.01017" lon="1.09318">
        <ele>69.400001525879</ele>
        <time>2011-07-13T14:20:48.000Z</time>
      </trkpt>
      <trkpt lat="45.01013" lon="1.09317">
        <ele>70.199996948242</ele>
        <time>2011-07-13T14:25:19.000Z</time>
      </trkpt>
      <trkpt lat="45.01006" lon="1.09328">
        <ele>66.800003051758</ele>
        <time>2011-07-13T14:25:29.000Z</time>
      </trkpt>
      <trkpt lat="45.00999" lon="1.09337">
        <ele>65.199996948242</ele>
        <time>2011-07-13T14:25:32.000Z</time>
      </trkpt>
      <trkpt lat="45.00989" lon="1.09348">
        <ele>64.599998474121</ele>
        <time>2011-07-13T14:25:36.000Z</time>
      </trkpt>
      <trkpt lat="45.00977" lon="1.09337">
        <ele>65.199996948242</ele>
        <time>2011-07-13T14:25:40.000Z</time>
      </trkpt>
      <trkpt lat="45.00957" lon="1.09292">
        <ele>66</ele>
        <time>2011-07-13T14:25:48.000Z</time>
      </trkpt>
      <trkpt lat="45.00942" lon="1.09257">
        <ele>66.800003051758</ele>
        <time>2011-07-13T14:25:54.000Z</time>
      </trkpt>
      <trkpt lat="45.00928" lon="1.09252">
        <ele>67.400001525879</ele>
        <time>2011-07-13T14:25:58.000Z</time>
      </trkpt>
      <trkpt lat="45.00913" lon="1.09263">
        <ele>67.599998474121</ele>
        <time>2011-07-13T14:26:02.000Z</time>
      </trkpt>
      <trkpt lat="45.00883" lon="1.09288">
        <ele>67.400001525879</ele>
        <time>2011-07-13T14:26:10.000Z</time>
      </trkpt>
      <trkpt lat="45.00833" lon="1.09325">
        <ele>66.400001525879</ele>
        <time>2011-07-13T14:26:23.000Z</time>
      </trkpt>
      <trkpt lat="45.00786" lon="1.09358">
        <ele>66</ele>
        <time>2011-07-13T14:26:35.000Z</time>
      </trkpt>
      <trkpt lat="45.0075" lon="1.09384">
        <ele>66</ele>
        <time>2011-07-13T14:26:44.000Z</time>
      </trkpt>
      <trkpt lat="45.00737" lon="1.0938">
        <ele>66.199996948242</ele>
        <time>2011-07-13T14:26:48.000Z</time>
      </trkpt>
      <trkpt lat="45.00737" lon="1.09375">
        <ele>66.199996948242</ele>
        <time>2011-07-13T14:26:49.000Z</time>
      </trkpt>
      <trkpt lat="45.00736" lon="1.0933">
        <ele>65.800003051758</ele>
        <time>2011-07-13T14:26:57.000Z</time>
      </trkpt>
      <trkpt lat="45.00724" lon="1.09295">
        <ele>64.800003051758</ele>
        <time>2011-07-13T14:27:03.000Z</time>
      </trkpt>
      <trkpt lat="45.00703" lon="1.09247">
        <ele>64</ele>
        <time>2011-07-13T14:27:11.000Z</time>
      </trkpt>
      <trkpt lat="45.00687" lon="1.09211">
        <ele>64.199996948242</ele>
        <time>2011-07-13T14:27:18.000Z</time>
      </trkpt>
      <trkpt lat="45.00684" lon="1.09189">
        <ele>65</ele>
        <time>2011-07-13T14:27:22.000Z</time>
      </trkpt>
      <trkpt lat="45.0069" lon="1.09178">
        <ele>65.400001525879</ele>
        <time>2011-07-13T14:27:25.000Z</time>
      </trkpt>
      <trkpt lat="45.00717" lon="1.09153">
        <ele>64.800003051758</ele>
        <time>2011-07-13T14:27:33.000Z</time>
      </trkpt>
      <trkpt lat="45.00743" lon="1.0913">
        <ele>63.400001525879</ele>
        <time>2011-07-13T14:27:40.000Z</time>
      </trkpt>
      <trkpt lat="45.00746" lon="1.09126">
        <ele>63.400001525879</ele>
        <time>2011-07-13T14:27:41.000Z</time>
      </trkpt>
      <trkpt lat="45.0076" lon="1.09097">
        <ele>63</ele>
        <time>2011-07-13T14:27:47.000Z</time>
      </trkpt>
      <trkpt lat="45.00769" lon="1.09069">
        <ele>63.200000762939</ele>
        <time>2011-07-13T14:27:52.000Z</time>
      </trkpt>
      <trkpt lat="45.00782" lon="1.09049">
        <ele>62.799999237061</ele>
        <time>2011-07-13T14:27:57.000Z</time>
      </trkpt>
      <trkpt lat="45.00795" lon="1.09027">
        <ele>61.400001525879</ele>
        <time>2011-07-13T14:28:02.000Z</time>
      </trkpt>
      <trkpt lat="45.00808" lon="1.09003">
        <ele>60.400001525879</ele>
        <time>2011-07-13T14:28:08.000Z</time>
      </trkpt>
      <trkpt lat="45.00813" lon="1.08982">
        <ele>61</ele>
        <time>2011-07-13T14:28:12.000Z</time>
      </trkpt>
      <trkpt lat="45.00827" lon="1.08955">
        <ele>61.200000762939</ele>
        <time>2011-07-13T14:28:17.000Z</time>
      </trkpt>
      <trkpt lat="45.00841" lon="1.08938">
        <ele>61.400001525879</ele>
        <time>2011-07-13T14:28:22.000Z</time>
      </trkpt>
      <trkpt lat="45.00859" lon="1.08911">
        <ele>59.599998474121</ele>
        <time>2011-07-13T14:28:29.000Z</time>
      </trkpt>
      <trkpt lat="45.00874" lon="1.08886">
        <ele>58.599998474121</ele>
        <time>2011-07-13T14:28:35.000Z</time>
      </trkpt>
      <trkpt lat="45.0089" lon="1.08869">
        <ele>57.200000762939</ele>
        <time>2011-07-13T14:28:40.000Z</time>
      </trkpt>
      <trkpt lat="45.0091" lon="1.08849">
        <ele>56.599998474121</ele>
        <time>2011-07-13T14:28:48.000Z</time>
      </trkpt>
      <trkpt lat="45.0092" lon="1.08837">
        <ele>56.200000762939</ele>
        <time>2011-07-13T14:28:52.000Z</time>
      </trkpt>
      <trkpt lat="45.00931" lon="1.0882">
        <ele>58.599998474121</ele>
        <time>2011-07-13T14:28:58.000Z</time>
      </trkpt>
      <trkpt lat="45.00946" lon="1.08804">
        <ele>58.799999237061</ele>
        <time>2011-07-13T14:29:05.000Z</time>
      </trkpt>
      <trkpt lat="45.0096" lon="1.08795">
        <ele>60.799999237061</ele>
        <time>2011-07-13T14:29:10.000Z</time>
      </trkpt>
      <trkpt lat="45.00971" lon="1.08789">
        <ele>61.599998474121</ele>
        <time>2011-07-13T14:29:15.000Z</time>
      </trkpt>
      <trkpt lat="45.00987" lon="1.08784">
        <ele>61.200000762939</ele>
        <time>2011-07-13T14:29:21.000Z</time>
      </trkpt>
      <trkpt lat="45.01004" lon="1.08785">
        <ele>60.400001525879</ele>
        <time>2011-07-13T14:29:27.000Z</time>
      </trkpt>
      <trkpt lat="45.01022" lon="1.0879">
        <ele>61</ele>
        <time>2011-07-13T14:29:33.000Z</time>
      </trkpt>
      <trkpt lat="45.01038" lon="1.08799">
        <ele>62.599998474121</ele>
        <time>2011-07-13T14:29:39.000Z</time>
      </trkpt>
      <trkpt lat="45.01051" lon="1.08809">
        <ele>62.799999237061</ele>
        <time>2011-07-13T14:29:44.000Z</time>
      </trkpt>
      <trkpt lat="45.01063" lon="1.08821">
        <ele>62.599998474121</ele>
        <time>2011-07-13T14:29:49.000Z</time>
      </trkpt>
      <trkpt lat="45.01083" lon="1.08827">
        <ele>61.599998474121</ele>
        <time>2011-07-13T14:29:54.000Z</time>
      </trkpt>
      <trkpt lat="45.01097" lon="1.08832">
        <ele>61.400001525879</ele>
        <time>2011-07-13T14:29:59.000Z</time>
      </trkpt>
      <trkpt lat="45.011" lon="1.08833">
        <ele>62.200000762939</ele>
        <time>2011-07-13T14:30:00.000Z</time>
      </trkpt>
      <trkpt lat="45.01111" lon="1.08852">
        <ele>63.799999237061</ele>
        <time>2011-07-13T14:30:07.000Z</time>
      </trkpt>
      <trkpt lat="45.01118" lon="1.08869">
        <ele>65.400001525879</ele>
        <time>2011-07-13T14:30:13.000Z</time>
      </trkpt>
      <trkpt lat="45.01125" lon="1.08887">
        <ele>65.599998474121</ele>
        <time>2011-07-13T14:30:18.000Z</time>
      </trkpt>
      <trkpt lat="45.01129" lon="1.08902">
        <ele>66</ele>
        <time>2011-07-13T14:30:23.000Z</time>
      </trkpt>
      <trkpt lat="45.01123" lon="1.08904">
        <ele>66.199996948242</ele>
        <time>2011-07-13T14:30:27.000Z</time>
      </trkpt>
      <trkpt lat="45.01103" lon="1.08903">
        <ele>66.199996948242</ele>
        <time>2011-07-13T14:30:34.000Z</time>
      </trkpt>
      <trkpt lat="45.01092" lon="1.08896">
        <ele>67</ele>
        <time>2011-07-13T14:30:38.000Z</time>
      </trkpt>
      <trkpt lat="45.01094" lon="1.08869">
        <ele>67.800003051758</ele>
        <time>2011-07-13T14:30:44.000Z</time>
      </trkpt>
      <trkpt lat="45.011" lon="1.08825">
        <ele>67.599998474121</ele>
        <time>2011-07-13T14:30:53.000Z</time>
      </trkpt>
      <trkpt lat="45.01107" lon="1.08782">
        <ele>67.599998474121</ele>
        <time>2011-07-13T14:31:01.000Z</time>
      </trkpt>
      <trkpt lat="45.01111" lon="1.08759">
        <ele>67</ele>
        <time>2011-07-13T14:31:05.000Z</time>
      </trkpt>
      <trkpt lat="45.01106" lon="1.08742">
        <ele>67</ele>
        <time>2011-07-13T14:31:09.000Z</time>
      </trkpt>
      <trkpt lat="45.01098" lon="1.08743">
        <ele>66.800003051758</ele>
        <time>2011-07-13T14:31:11.000Z</time>
      </trkpt>
      <trkpt lat="45.0108" lon="1.08742">
        <ele>67.400001525879</ele>
        <time>2011-07-13T14:31:16.000Z</time>
      </trkpt>
      <trkpt lat="45.01062" lon="1.08735">
        <ele>68.599998474121</ele>
        <time>2011-07-13T14:31:21.000Z</time>
      </trkpt>
      <trkpt lat="45.01048" lon="1.0873">
        <ele>69</ele>
        <time>2011-07-13T14:31:25.000Z</time>
      </trkpt>
      <trkpt lat="45.01039" lon="1.08724">
        <ele>69.800003051758</ele>
        <time>2011-07-13T14:31:29.000Z</time>
      </trkpt>
      <trkpt lat="45.01027" lon="1.08716">
        <ele>70.800003051758</ele>
        <time>2011-07-13T14:31:35.000Z</time>
      </trkpt>
      <trkpt lat="45.01011" lon="1.08709">
        <ele>70.599998474121</ele>
        <time>2011-07-13T14:31:40.000Z</time>
      </trkpt>
      <trkpt lat="45.01008" lon="1.08709">
        <ele>70.199996948242</ele>
        <time>2011-07-13T14:31:41.000Z</time>
      </trkpt>
      <trkpt lat="45.00999" lon="1.08707">
        <ele>70.400001525879</ele>
        <time>2011-07-13T14:31:43.000Z</time>
      </trkpt>
      <trkpt lat="45.0097" lon="1.08702">
        <ele>70.599998474121</ele>
        <time>2011-07-13T14:31:50.000Z</time>
      </trkpt>
      <trkpt lat="45.00953" lon="1.08697">
        <ele>70.599998474121</ele>
        <time>2011-07-13T14:31:56.000Z</time>
      </trkpt>
      <trkpt lat="45.00943" lon="1.08698">
        <ele>71.400001525879</ele>
        <time>2011-07-13T14:32:00.000Z</time>
      </trkpt>
      <trkpt lat="45.00922" lon="1.087">
        <ele>71</ele>
        <time>2011-07-13T14:32:05.000Z</time>
      </trkpt>
      <trkpt lat="45.00919" lon="1.08701">
        <ele>70.199996948242</ele>
        <time>2011-07-13T14:32:06.000Z</time>
      </trkpt>
      <trkpt lat="45.00916" lon="1.08708">
        <ele>71.400001525879</ele>
        <time>2011-07-13T14:32:09.000Z</time>
      </trkpt>
      <trkpt lat="45.00933" lon="1.0871">
        <ele>70.400001525879</ele>
        <time>2011-07-13T14:32:14.000Z</time>
      </trkpt>
      <trkpt lat="45.00938" lon="1.0871">
        <ele>69.800003051758</ele>
        <time>2011-07-13T14:32:15.000Z</time>
      </trkpt>
      <trkpt lat="45.00945" lon="1.08717">
        <ele>68.400001525879</ele>
        <time>2011-07-13T14:32:20.000Z</time>
      </trkpt>
      <trkpt lat="45.00944" lon="1.08718">
        <ele>67.400001525879</ele>
        <time>2011-07-13T14:32:21.000Z</time>
      </trkpt>
      <trkpt lat="45.00936" lon="1.08724">
        <ele>67.800003051758</ele>
        <time>2011-07-13T14:32:26.000Z</time>
      </trkpt>
      <trkpt lat="45.00926" lon="1.08728">
        <ele>67.400001525879</ele>
        <time>2011-07-13T14:32:31.000Z</time>
      </trkpt>
      <trkpt lat="45.00919" lon="1.08736">
        <ele>67</ele>
        <time>2011-07-13T14:32:37.000Z</time>
      </trkpt>
      <trkpt lat="45.00909" lon="1.08745">
        <ele>66.400001525879</ele>
        <time>2011-07-13T14:32:43.000Z</time>
      </trkpt>
      <trkpt lat="45.009" lon="1.0875">
        <ele>66.400001525879</ele>
        <time>2011-07-13T14:32:48.000Z</time>
      </trkpt>
      <trkpt lat="45.0089" lon="1.08763">
        <ele>65.199996948242</ele>
        <time>2011-07-13T14:32:54.000Z</time>
      </trkpt>
      <trkpt lat="45.00877" lon="1.08777">
        <ele>65.199996948242</ele>
        <time>2011-07-13T14:33:00.000Z</time>
      </trkpt>
      <trkpt lat="45.00869" lon="1.08784">
        <ele>66.599998474121</ele>
        <time>2011-07-13T14:33:04.000Z</time>
      </trkpt>
      <trkpt lat="45.00862" lon="1.08795">
        <ele>66.400001525879</ele>
        <time>2011-07-13T14:33:09.000Z</time>
      </trkpt>
      <trkpt lat="45.00856" lon="1.08805">
        <ele>67.199996948242</ele>
        <time>2011-07-13T14:33:13.000Z</time>
      </trkpt>
      <trkpt lat="45.0085" lon="1.08813">
        <ele>66.599998474121</ele>
        <time>2011-07-13T14:33:17.000Z</time>
      </trkpt>
      <trkpt lat="45.00838" lon="1.08824">
        <ele>65.199996948242</ele>
        <time>2011-07-13T14:33:23.000Z</time>
      </trkpt>
      <trkpt lat="45.00828" lon="1.08838">
        <ele>64.400001525879</ele>
        <time>2011-07-13T14:33:28.000Z</time>
      </trkpt>
      <trkpt lat="45.00823" lon="1.08846">
        <ele>63.400001525879</ele>
        <time>2011-07-13T14:33:31.000Z</time>
      </trkpt>
      <trkpt lat="45.00811" lon="1.08866">
        <ele>63.400001525879</ele>
        <time>2011-07-13T14:33:37.000Z</time>
      </trkpt>
      <trkpt lat="45.00802" lon="1.08877">
        <ele>62.200000762939</ele>
        <time>2011-07-13T14:33:41.000Z</time>
      </trkpt>
      <trkpt lat="45.00791" lon="1.08899">
        <ele>63</ele>
        <time>2011-07-13T14:33:47.000Z</time>
      </trkpt>
      <trkpt lat="45.0078" lon="1.08921">
        <ele>63.200000762939</ele>
        <time>2011-07-13T14:33:53.000Z</time>
      </trkpt>
      <trkpt lat="45.00771" lon="1.08941">
        <ele>63.200000762939</ele>
        <time>2011-07-13T14:33:58.000Z</time>
      </trkpt>
      <trkpt lat="45.00765" lon="1.08958">
        <ele>65</ele>
        <time>2011-07-13T14:34:02.000Z</time>
      </trkpt>
      <trkpt lat="45.00761" lon="1.08972">
        <ele>65.800003051758</ele>
        <time>2011-07-13T14:34:06.000Z</time>
      </trkpt>
      <trkpt lat="45.0075" lon="1.08987">
        <ele>65.400001525879</ele>
        <time>2011-07-13T14:34:12.000Z</time>
      </trkpt>
      <trkpt lat="45.00742" lon="1.09006">
        <ele>65.400001525879</ele>
        <time>2011-07-13T14:34:18.000Z</time>
      </trkpt>
      <trkpt lat="45.00732" lon="1.09016">
        <ele>65.599998474121</ele>
        <time>2011-07-13T14:34:23.000Z</time>
      </trkpt>
      <trkpt lat="45.00728" lon="1.0902">
        <ele>65.199996948242</ele>
        <time>2011-07-13T14:34:25.000Z</time>
      </trkpt>
      <trkpt lat="45.00716" lon="1.09028">
        <ele>63.799999237061</ele>
        <time>2011-07-13T14:34:30.000Z</time>
      </trkpt>
      <trkpt lat="45.00704" lon="1.09031">
        <ele>63.400001525879</ele>
        <time>2011-07-13T14:34:34.000Z</time>
      </trkpt>
      <trkpt lat="45.00694" lon="1.09031">
        <ele>64.800003051758</ele>
        <time>2011-07-13T14:34:39.000Z</time>
      </trkpt>
      <trkpt lat="45.00682" lon="1.0904">
        <ele>66</ele>
        <time>2011-07-13T14:34:46.000Z</time>
      </trkpt>
      <trkpt lat="45.00676" lon="1.09046">
        <ele>65.400001525879</ele>
        <time>2011-07-13T14:34:51.000Z</time>
      </trkpt>
      <trkpt lat="45.00675" lon="1.0905">
        <ele>65.800003051758</ele>
        <time>2011-07-13T14:34:53.000Z</time>
      </trkpt>
      <trkpt lat="45.00669" lon="1.09059">
        <ele>66</ele>
        <time>2011-07-13T14:34:58.000Z</time>
      </trkpt>
      <trkpt lat="45.00657" lon="1.09072">
        <ele>65</ele>
        <time>2011-07-13T14:35:05.000Z</time>
      </trkpt>
      <trkpt lat="45.00648" lon="1.09079">
        <ele>66</ele>
        <time>2011-07-13T14:35:08.000Z</time>
      </trkpt>
      <trkpt lat="45.00638" lon="1.09085">
        <ele>65.599998474121</ele>
        <time>2011-07-13T14:35:13.000Z</time>
      </trkpt>
      <trkpt lat="45.00633" lon="1.09091">
        <ele>65.400001525879</ele>
        <time>2011-07-13T14:35:17.000Z</time>
      </trkpt>
      <trkpt lat="45.00626" lon="1.09094">
        <ele>64</ele>
        <time>2011-07-13T14:35:22.000Z</time>
      </trkpt>
      <trkpt lat="45.00614" lon="1.09103">
        <ele>65</ele>
        <time>2011-07-13T14:35:27.000Z</time>
      </trkpt>
      <trkpt lat="45.00599" lon="1.09116">
        <ele>67.400001525879</ele>
        <time>2011-07-13T14:35:33.000Z</time>
      </trkpt>
      <trkpt lat="45.00585" lon="1.09131">
        <ele>72.400001525879</ele>
        <time>2011-07-13T14:35:38.000Z</time>
      </trkpt>
      <trkpt lat="45.0057" lon="1.09149">
        <ele>70.800003051758</ele>
        <time>2011-07-13T14:35:45.000Z</time>
      </trkpt>
      <trkpt lat="45.00554" lon="1.09163">
        <ele>70</ele>
        <time>2011-07-13T14:35:51.000Z</time>
      </trkpt>
      <trkpt lat="45.00538" lon="1.09176">
        <ele>68.599998474121</ele>
        <time>2011-07-13T14:35:57.000Z</time>
      </trkpt>
      <trkpt lat="45.00536" lon="1.09178">
        <ele>68.800003051758</ele>
        <time>2011-07-13T14:35:58.000Z</time>
      </trkpt>
      <trkpt lat="45.00523" lon="1.0919">
        <ele>70</ele>
        <time>2011-07-13T14:36:03.000Z</time>
      </trkpt>
      <trkpt lat="45.00506" lon="1.09205">
        <ele>72.400001525879</ele>
        <time>2011-07-13T14:36:09.000Z</time>
      </trkpt>
      <trkpt lat="45.00495" lon="1.09216">
        <ele>73</ele>
        <time>2011-07-13T14:36:13.000Z</time>
      </trkpt>
      <trkpt lat="45.00478" lon="1.09233">
        <ele>73.800003051758</ele>
        <time>2011-07-13T14:36:18.000Z</time>
      </trkpt>
      <trkpt lat="45.00465" lon="1.09245">
        <ele>75.599998474121</ele>
        <time>2011-07-13T14:36:23.000Z</time>
      </trkpt>
      <trkpt lat="45.00454" lon="1.0926">
        <ele>77.400001525879</ele>
        <time>2011-07-13T14:36:29.000Z</time>
      </trkpt>
      <trkpt lat="45.00445" lon="1.09272">
        <ele>79</ele>
        <time>2011-07-13T14:36:34.000Z</time>
      </trkpt>
      <trkpt lat="45.0043" lon="1.09287">
        <ele>78.599998474121</ele>
        <time>2011-07-13T14:36:39.000Z</time>
      </trkpt>
      <trkpt lat="45.00416" lon="1.09296">
        <ele>80</ele>
        <time>2011-07-13T14:36:44.000Z</time>
      </trkpt>
      <trkpt lat="45.00405" lon="1.09302">
        <ele>82.400001525879</ele>
        <time>2011-07-13T14:36:50.000Z</time>
      </trkpt>
      <trkpt lat="45.00397" lon="1.09303">
        <ele>81.199996948242</ele>
        <time>2011-07-13T14:36:55.000Z</time>
      </trkpt>
      <trkpt lat="45.00393" lon="1.09306">
        <ele>82</ele>
        <time>2011-07-13T14:37:00.000Z</time>
      </trkpt>
      <trkpt lat="45.00389" lon="1.0931">
        <ele>83.400001525879</ele>
        <time>2011-07-13T14:37:05.000Z</time>
      </trkpt>
      <trkpt lat="45.00376" lon="1.09319">
        <ele>82.400001525879</ele>
        <time>2011-07-13T14:37:48.000Z</time>
      </trkpt>
      <trkpt lat="45.00369" lon="1.09321">
        <ele>80.199996948242</ele>
        <time>2011-07-13T14:37:53.000Z</time>
      </trkpt>
      <trkpt lat="45.00364" lon="1.09337">
        <ele>81.800003051758</ele>
        <time>2011-07-13T14:37:58.000Z</time>
      </trkpt>
      <trkpt lat="45.00358" lon="1.09346">
        <ele>82.599998474121</ele>
        <time>2011-07-13T14:38:03.000Z</time>
      </trkpt>
      <trkpt lat="45.00355" lon="1.09352">
        <ele>82.599998474121</ele>
        <time>2011-07-13T14:38:06.000Z</time>
      </trkpt>
      <trkpt lat="45.00349" lon="1.09365">
        <ele>84.599998474121</ele>
        <time>2011-07-13T14:38:11.000Z</time>
      </trkpt>
      <trkpt lat="45.00348" lon="1.09374">
        <ele>86.199996948242</ele>
        <time>2011-07-13T14:38:15.000Z</time>
      </trkpt>
      <trkpt lat="45.00343" lon="1.09388">
        <ele>88.800003051758</ele>
        <time>2011-07-13T14:38:21.000Z</time>
      </trkpt>
      <trkpt lat="45.00338" lon="1.09401">
        <ele>92</ele>
        <time>2011-07-13T14:38:28.000Z</time>
      </trkpt>
      <trkpt lat="45.00332" lon="1.0941">
        <ele>90.599998474121</ele>
        <time>2011-07-13T14:38:34.000Z</time>
      </trkpt>
      <trkpt lat="45.00326" lon="1.09421">
        <ele>91.599998474121</ele>
        <time>2011-07-13T14:38:40.000Z</time>
      </trkpt>
      <trkpt lat="45.0032" lon="1.0943">
        <ele>91.199996948242</ele>
        <time>2011-07-13T14:38:44.000Z</time>
      </trkpt>
      <trkpt lat="45.00311" lon="1.0944">
        <ele>89.800003051758</ele>
        <time>2011-07-13T14:38:49.000Z</time>
      </trkpt>
      <trkpt lat="45.00301" lon="1.09455">
        <ele>89.599998474121</ele>
        <time>2011-07-13T14:38:57.000Z</time>
      </trkpt>
      <trkpt lat="45.00291" lon="1.09473">
        <ele>90.800003051758</ele>
        <time>2011-07-13T14:39:04.000Z</time>
      </trkpt>
      <trkpt lat="45.00283" lon="1.09492">
        <ele>93.800003051758</ele>
        <time>2011-07-13T14:39:11.000Z</time>
      </trkpt>
      <trkpt lat="45.00272" lon="1.09505">
        <ele>94</ele>
        <time>2011-07-13T14:39:17.000Z</time>
      </trkpt>
      <trkpt lat="45.00262" lon="1.09518">
        <ele>96</ele>
        <time>2011-07-13T14:39:24.000Z</time>
      </trkpt>
      <trkpt lat="45.00256" lon="1.09528">
        <ele>96.199996948242</ele>
        <time>2011-07-13T14:39:30.000Z</time>
      </trkpt>
      <trkpt lat="45.00253" lon="1.09537">
        <ele>96.199996948242</ele>
        <time>2011-07-13T14:39:35.000Z</time>
      </trkpt>
      <trkpt lat="45.00252" lon="1.09556">
        <ele>96</ele>
        <time>2011-07-13T14:39:39.000Z</time>
      </trkpt>
      <trkpt lat="45.00252" lon="1.09567">
        <ele>96.199996948242</ele>
        <time>2011-07-13T14:39:41.000Z</time>
      </trkpt>
      <trkpt lat="45.00241" lon="1.09583">
        <ele>98.199996948242</ele>
        <time>2011-07-13T14:39:45.000Z</time>
      </trkpt>
      <trkpt lat="45.00239" lon="1.09586">
        <ele>99</ele>
        <time>2011-07-13T14:39:46.000Z</time>
      </trkpt>
      <trkpt lat="45.00226" lon="1.09607">
        <ele>101.40000152588</ele>
        <time>2011-07-13T14:39:53.000Z</time>
      </trkpt>
      <trkpt lat="45.0022" lon="1.09619">
        <ele>102</ele>
        <time>2011-07-13T14:39:57.000Z</time>
      </trkpt>
      <trkpt lat="45.00219" lon="1.09624">
        <ele>103.80000305176</ele>
        <time>2011-07-13T14:40:00.000Z</time>
      </trkpt>
      <trkpt lat="45.00216" lon="1.0963">
        <ele>102.40000152588</ele>
        <time>2011-07-13T14:40:05.000Z</time>
      </trkpt>
      <trkpt lat="45.00214" lon="1.09633">
        <ele>100.80000305176</ele>
        <time>2011-07-13T14:40:07.000Z</time>
      </trkpt>
      <trkpt lat="45.00214" lon="1.09651">
        <ele>98.800003051758</ele>
        <time>2011-07-13T14:40:13.000Z</time>
      </trkpt>
      <trkpt lat="45.00208" lon="1.09673">
        <ele>99.199996948242</ele>
        <time>2011-07-13T14:40:17.000Z</time>
      </trkpt>
      <trkpt lat="45.00202" lon="1.09696">
        <ele>101.59999847412</ele>
        <time>2011-07-13T14:40:22.000Z</time>
      </trkpt>
      <trkpt lat="45.00197" lon="1.09715">
        <ele>102.80000305176</ele>
        <time>2011-07-13T14:40:26.000Z</time>
      </trkpt>
      <trkpt lat="45.00186" lon="1.09741">
        <ele>103.80000305176</ele>
        <time>2011-07-13T14:40:32.000Z</time>
      </trkpt>
      <trkpt lat="45.0018" lon="1.09758">
        <ele>101.59999847412</ele>
        <time>2011-07-13T14:40:37.000Z</time>
      </trkpt>
      <trkpt lat="45.00178" lon="1.09776">
        <ele>101.59999847412</ele>
        <time>2011-07-13T14:40:42.000Z</time>
      </trkpt>
      <trkpt lat="45.00178" lon="1.09784">
        <ele>103.19999694824</ele>
        <time>2011-07-13T14:40:46.000Z</time>
      </trkpt>
      <trkpt lat="45.00178" lon="1.09785">
        <ele>103</ele>
        <time>2011-07-13T14:40:48.000Z</time>
      </trkpt>
      <trkpt lat="45.00175" lon="1.09786">
        <ele>97.400001525879</ele>
        <time>2011-07-13T14:40:52.000Z</time>
      </trkpt>
      <trkpt lat="45.00181" lon="1.09789">
        <ele>97.400001525879</ele>
        <time>2011-07-13T14:40:58.000Z</time>
      </trkpt>
      <trkpt lat="45.00184" lon="1.09789">
        <ele>96.599998474121</ele>
        <time>2011-07-13T14:41:01.000Z</time>
      </trkpt>
      <trkpt lat="45.00188" lon="1.0979">
        <ele>83</ele>
        <time>2011-07-13T14:41:25.000Z</time>
      </trkpt>
      <trkpt lat="45.00182" lon="1.09782">
        <ele>65</ele>
        <time>2011-07-13T14:41:46.000Z</time>
      </trkpt>
      <trkpt lat="45.00187" lon="1.09783">
        <ele>80.599998474121</ele>
        <time>2011-07-13T14:41:57.000Z</time>
      </trkpt>
      <trkpt lat="45.00178" lon="1.09782">
        <ele>78.199996948242</ele>
        <time>2011-07-13T14:42:10.000Z</time>
      </trkpt>
      <trkpt lat="45.00178" lon="1.09782">
        <ele>78.599998474121</ele>
        <time>2011-07-13T14:42:11.000Z</time>
      </trkpt>
      <trkpt lat="45.00192" lon="1.09805">
        <ele>120.80000305176</ele>
        <time>2011-07-13T14:45:29.000Z</time>
      </trkpt>
      <trkpt lat="45.00189" lon="1.09813">
        <ele>102.80000305176</ele>
        <time>2011-07-13T14:45:43.000Z</time>
      </trkpt>
      <trkpt lat="45.00181" lon="1.09827">
        <ele>96.400001525879</ele>
        <time>2011-07-13T14:45:48.000Z</time>
      </trkpt>
      <trkpt lat="45.00162" lon="1.09843">
        <ele>93.599998474121</ele>
        <time>2011-07-13T14:45:54.000Z</time>
      </trkpt>
      <trkpt lat="45.00155" lon="1.09853">
        <ele>91.800003051758</ele>
        <time>2011-07-13T14:45:58.000Z</time>
      </trkpt>
      <trkpt lat="45.0014" lon="1.09869">
        <ele>90</ele>
        <time>2011-07-13T14:46:03.000Z</time>
      </trkpt>
      <trkpt lat="45.00125" lon="1.09883">
        <ele>86.800003051758</ele>
        <time>2011-07-13T14:46:08.000Z</time>
      </trkpt>
      <trkpt lat="45.00117" lon="1.09895">
        <ele>85.800003051758</ele>
        <time>2011-07-13T14:46:12.000Z</time>
      </trkpt>
      <trkpt lat="45.00111" lon="1.09908">
        <ele>88.199996948242</ele>
        <time>2011-07-13T14:46:18.000Z</time>
      </trkpt>
      <trkpt lat="45.00109" lon="1.09917">
        <ele>89.199996948242</ele>
        <time>2011-07-13T14:46:22.000Z</time>
      </trkpt>
      <trkpt lat="45.00105" lon="1.09931">
        <ele>87.199996948242</ele>
        <time>2011-07-13T14:46:27.000Z</time>
      </trkpt>
      <trkpt lat="45.00095" lon="1.09952">
        <ele>84.800003051758</ele>
        <time>2011-07-13T14:46:32.000Z</time>
      </trkpt>
      <trkpt lat="45.0009" lon="1.09957">
        <ele>83.599998474121</ele>
        <time>2011-07-13T14:46:34.000Z</time>
      </trkpt>
      <trkpt lat="45.00083" lon="1.0996">
        <ele>82.800003051758</ele>
        <time>2011-07-13T14:46:36.000Z</time>
      </trkpt>
      <trkpt lat="45.00069" lon="1.09974">
        <ele>82.599998474121</ele>
        <time>2011-07-13T14:46:40.000Z</time>
      </trkpt>
      <trkpt lat="45.00064" lon="1.0999">
        <ele>81.599998474121</ele>
        <time>2011-07-13T14:46:43.000Z</time>
      </trkpt>
      <trkpt lat="45.00052" lon="1.10013">
        <ele>80.599998474121</ele>
        <time>2011-07-13T14:46:47.000Z</time>
      </trkpt>
      <trkpt lat="45.00033" lon="1.10042">
        <ele>80.199996948242</ele>
        <time>2011-07-13T14:46:51.000Z</time>
      </trkpt>
      <trkpt lat="45.00027" lon="1.10044">
        <ele>79.800003051758</ele>
        <time>2011-07-13T14:46:52.000Z</time>
      </trkpt>
      <trkpt lat="45.00006" lon="1.10061">
        <ele>79.599998474121</ele>
        <time>2011-07-13T14:46:58.000Z</time>
      </trkpt>
      <trkpt lat="44.99995" lon="1.10063">
        <ele>80.199996948242</ele>
        <time>2011-07-13T14:47:03.000Z</time>
      </trkpt>
      <trkpt lat="44.99994" lon="1.10063">
        <ele>80</ele>
        <time>2011-07-13T14:47:04.000Z</time>
      </trkpt>
      <trkpt lat="44.99985" lon="1.10067">
        <ele>82.599998474121</ele>
        <time>2011-07-13T14:47:09.000Z</time>
      </trkpt>
      <trkpt lat="44.99984" lon="1.10069">
        <ele>83.199996948242</ele>
        <time>2011-07-13T14:47:10.000Z</time>
      </trkpt>
      <trkpt lat="44.99979" lon="1.10075">
        <ele>86.800003051758</ele>
        <time>2011-07-13T14:47:14.000Z</time>
      </trkpt>
      <trkpt lat="44.99973" lon="1.10079">
        <ele>88.199996948242</ele>
        <time>2011-07-13T14:47:20.000Z</time>
      </trkpt>
      <trkpt lat="44.99972" lon="1.10081">
        <ele>89</ele>
        <time>2011-07-13T14:47:21.000Z</time>
      </trkpt>
      <trkpt lat="44.99962" lon="1.10094">
        <ele>93.800003051758</ele>
        <time>2011-07-13T14:47:29.000Z</time>
      </trkpt>
      <trkpt lat="44.99955" lon="1.10099">
        <ele>90.400001525879</ele>
        <time>2011-07-13T14:47:36.000Z</time>
      </trkpt>
      <trkpt lat="44.99944" lon="1.10104">
        <ele>87.599998474121</ele>
        <time>2011-07-13T14:47:43.000Z</time>
      </trkpt>
      <trkpt lat="44.99941" lon="1.10105">
        <ele>87.400001525879</ele>
        <time>2011-07-13T14:47:46.000Z</time>
      </trkpt>
      <trkpt lat="44.99937" lon="1.10105">
        <ele>87.199996948242</ele>
        <time>2011-07-13T14:47:50.000Z</time>
      </trkpt>
      <trkpt lat="44.9993" lon="1.10115">
        <ele>84.800003051758</ele>
        <time>2011-07-13T14:47:58.000Z</time>
      </trkpt>
      <trkpt lat="44.99924" lon="1.10129">
        <ele>83.800003051758</ele>
        <time>2011-07-13T14:48:06.000Z</time>
      </trkpt>
      <trkpt lat="44.99922" lon="1.10134">
        <ele>83.800003051758</ele>
        <time>2011-07-13T14:48:09.000Z</time>
      </trkpt>
      <trkpt lat="44.99912" lon="1.10139">
        <ele>85</ele>
        <time>2011-07-13T14:48:16.000Z</time>
      </trkpt>
      <trkpt lat="44.99901" lon="1.10144">
        <ele>86</ele>
        <time>2011-07-13T14:48:23.000Z</time>
      </trkpt>
      <trkpt lat="44.99891" lon="1.10149">
        <ele>85.199996948242</ele>
        <time>2011-07-13T14:48:30.000Z</time>
      </trkpt>
      <trkpt lat="44.99882" lon="1.10153">
        <ele>85.199996948242</ele>
        <time>2011-07-13T14:48:37.000Z</time>
      </trkpt>
      <trkpt lat="44.99873" lon="1.10159">
        <ele>85</ele>
        <time>2011-07-13T14:48:43.000Z</time>
      </trkpt>
      <trkpt lat="44.9986" lon="1.10166">
        <ele>85.400001525879</ele>
        <time>2011-07-13T14:48:51.000Z</time>
      </trkpt>
      <trkpt lat="44.99845" lon="1.10174">
        <ele>85.599998474121</ele>
        <time>2011-07-13T14:49:00.000Z</time>
      </trkpt>
      <trkpt lat="44.9983" lon="1.10182">
        <ele>86.800003051758</ele>
        <time>2011-07-13T14:49:08.000Z</time>
      </trkpt>
      <trkpt lat="44.99814" lon="1.10192">
        <ele>89.800003051758</ele>
        <time>2011-07-13T14:49:17.000Z</time>
      </trkpt>
      <trkpt lat="44.998" lon="1.102">
        <ele>92.199996948242</ele>
        <time>2011-07-13T14:49:25.000Z</time>
      </trkpt>
      <trkpt lat="44.99786" lon="1.10207">
        <ele>91.599998474121</ele>
        <time>2011-07-13T14:49:33.000Z</time>
      </trkpt>
      <trkpt lat="44.99773" lon="1.10211">
        <ele>91.400001525879</ele>
        <time>2011-07-13T14:49:41.000Z</time>
      </trkpt>
      <trkpt lat="44.99772" lon="1.10213">
        <ele>92</ele>
        <time>2011-07-13T14:49:45.000Z</time>
      </trkpt>
      <trkpt lat="44.99766" lon="1.10215">
        <ele>96.800003051758</ele>
        <time>2011-07-13T14:50:02.000Z</time>
      </trkpt>
      <trkpt lat="44.99751" lon="1.1022">
        <ele>98</ele>
        <time>2011-07-13T14:50:09.000Z</time>
      </trkpt>
      <trkpt lat="44.99747" lon="1.10221">
        <ele>98.599998474121</ele>
        <time>2011-07-13T14:50:11.000Z</time>
      </trkpt>
      <trkpt lat="44.9974" lon="1.10214">
        <ele>99.199996948242</ele>
        <time>2011-07-13T14:50:17.000Z</time>
      </trkpt>
      <trkpt lat="44.99735" lon="1.10205">
        <ele>100.19999694824</ele>
        <time>2011-07-13T14:50:22.000Z</time>
      </trkpt>
      <trkpt lat="44.99733" lon="1.102">
        <ele>100.80000305176</ele>
        <time>2011-07-13T14:50:24.000Z</time>
      </trkpt>
      <trkpt lat="44.99731" lon="1.10187">
        <ele>101.19999694824</ele>
        <time>2011-07-13T14:50:30.000Z</time>
      </trkpt>
      <trkpt lat="44.99738" lon="1.10169">
        <ele>99</ele>
        <time>2011-07-13T14:50:38.000Z</time>
      </trkpt>
      <trkpt lat="44.99744" lon="1.10158">
        <ele>98</ele>
        <time>2011-07-13T14:50:43.000Z</time>
      </trkpt>
      <trkpt lat="44.99753" lon="1.10152">
        <ele>100</ele>
        <time>2011-07-13T14:50:49.000Z</time>
      </trkpt>
      <trkpt lat="44.9976" lon="1.1015">
        <ele>102.80000305176</ele>
        <time>2011-07-13T14:50:55.000Z</time>
      </trkpt>
      <trkpt lat="44.99767" lon="1.10147">
        <ele>103.40000152588</ele>
        <time>2011-07-13T14:51:00.000Z</time>
      </trkpt>
      <trkpt lat="44.99774" lon="1.10143">
        <ele>104.40000152588</ele>
        <time>2011-07-13T14:51:04.000Z</time>
      </trkpt>
      <trkpt lat="44.99783" lon="1.10136">
        <ele>105.40000152588</ele>
        <time>2011-07-13T14:51:11.000Z</time>
      </trkpt>
      <trkpt lat="44.99788" lon="1.1013">
        <ele>106</ele>
        <time>2011-07-13T14:51:16.000Z</time>
      </trkpt>
      <trkpt lat="44.99796" lon="1.10122">
        <ele>106</ele>
        <time>2011-07-13T14:51:22.000Z</time>
      </trkpt>
      <trkpt lat="44.99802" lon="1.10117">
        <ele>107.40000152588</ele>
        <time>2011-07-13T14:51:27.000Z</time>
      </trkpt>
      <trkpt lat="44.99803" lon="1.10115">
        <ele>107.19999694824</ele>
        <time>2011-07-13T14:51:29.000Z</time>
      </trkpt>
      <trkpt lat="44.99814" lon="1.10108">
        <ele>106.40000152588</ele>
        <time>2011-07-13T14:52:48.000Z</time>
      </trkpt>
      <trkpt lat="44.99822" lon="1.10099">
        <ele>107.40000152588</ele>
        <time>2011-07-13T14:52:55.000Z</time>
      </trkpt>
      <trkpt lat="44.99833" lon="1.10088">
        <ele>107.19999694824</ele>
        <time>2011-07-13T14:53:02.000Z</time>
      </trkpt>
      <trkpt lat="44.9984" lon="1.10083">
        <ele>106.40000152588</ele>
        <time>2011-07-13T14:53:07.000Z</time>
      </trkpt>
      <trkpt lat="44.99858" lon="1.10075">
        <ele>106.59999847412</ele>
        <time>2011-07-13T14:53:15.000Z</time>
      </trkpt>
      <trkpt lat="44.99866" lon="1.10066">
        <ele>107.59999847412</ele>
        <time>2011-07-13T14:53:20.000Z</time>
      </trkpt>
      <trkpt lat="44.99874" lon="1.10059">
        <ele>109.19999694824</ele>
        <time>2011-07-13T14:53:25.000Z</time>
      </trkpt>
      <trkpt lat="44.99881" lon="1.10052">
        <ele>111</ele>
        <time>2011-07-13T14:53:29.000Z</time>
      </trkpt>
      <trkpt lat="44.99886" lon="1.10049">
        <ele>112.80000305176</ele>
        <time>2011-07-13T14:53:33.000Z</time>
      </trkpt>
      <trkpt lat="44.99889" lon="1.10047">
        <ele>113.40000152588</ele>
        <time>2011-07-13T14:53:36.000Z</time>
      </trkpt>
      <trkpt lat="44.99891" lon="1.10044">
        <ele>113.80000305176</ele>
        <time>2011-07-13T14:53:40.000Z</time>
      </trkpt>
      <trkpt lat="44.99898" lon="1.10038">
        <ele>117.19999694824</ele>
        <time>2011-07-13T14:54:07.000Z</time>
      </trkpt>
      <trkpt lat="44.99904" lon="1.10032">
        <ele>118</ele>
        <time>2011-07-13T14:54:15.000Z</time>
      </trkpt>
      <trkpt lat="44.99913" lon="1.10024">
        <ele>117.40000152588</ele>
        <time>2011-07-13T14:54:21.000Z</time>
      </trkpt>
      <trkpt lat="44.99924" lon="1.10011">
        <ele>116.19999694824</ele>
        <time>2011-07-13T14:54:27.000Z</time>
      </trkpt>
      <trkpt lat="44.99936" lon="1.09997">
        <ele>115</ele>
        <time>2011-07-13T14:54:33.000Z</time>
      </trkpt>
      <trkpt lat="44.99942" lon="1.09985">
        <ele>114.80000305176</ele>
        <time>2011-07-13T14:54:38.000Z</time>
      </trkpt>
      <trkpt lat="44.9995" lon="1.09969">
        <ele>114.80000305176</ele>
        <time>2011-07-13T14:54:45.000Z</time>
      </trkpt>
      <trkpt lat="44.99953" lon="1.0996">
        <ele>115</ele>
        <time>2011-07-13T14:54:50.000Z</time>
      </trkpt>
      <trkpt lat="44.99956" lon="1.09948">
        <ele>114.19999694824</ele>
        <time>2011-07-13T14:54:56.000Z</time>
      </trkpt>
      <trkpt lat="44.99959" lon="1.09936">
        <ele>112.80000305176</ele>
        <time>2011-07-13T14:55:03.000Z</time>
      </trkpt>
      <trkpt lat="44.99962" lon="1.09918">
        <ele>116.40000152588</ele>
        <time>2011-07-13T14:55:12.000Z</time>
      </trkpt>
      <trkpt lat="44.99961" lon="1.09914">
        <ele>116.40000152588</ele>
        <time>2011-07-13T14:55:14.000Z</time>
      </trkpt>
      <trkpt lat="44.99952" lon="1.09908">
        <ele>114.80000305176</ele>
        <time>2011-07-13T14:55:21.000Z</time>
      </trkpt>
      <trkpt lat="44.99945" lon="1.09901">
        <ele>116.59999847412</ele>
        <time>2011-07-13T14:55:26.000Z</time>
      </trkpt>
      <trkpt lat="44.99937" lon="1.0989">
        <ele>119</ele>
        <time>2011-07-13T14:55:33.000Z</time>
      </trkpt>
      <trkpt lat="44.99935" lon="1.09889">
        <ele>119.19999694824</ele>
        <time>2011-07-13T14:55:34.000Z</time>
      </trkpt>
      <trkpt lat="44.9993" lon="1.09882">
        <ele>119.59999847412</ele>
        <time>2011-07-13T14:55:39.000Z</time>
      </trkpt>
      <trkpt lat="44.99923" lon="1.09873">
        <ele>119.19999694824</ele>
        <time>2011-07-13T14:55:46.000Z</time>
      </trkpt>
      <trkpt lat="44.99922" lon="1.09871">
        <ele>119.59999847412</ele>
        <time>2011-07-13T14:55:47.000Z</time>
      </trkpt>
      <trkpt lat="44.99916" lon="1.09863">
        <ele>118.80000305176</ele>
        <time>2011-07-13T14:55:52.000Z</time>
      </trkpt>
      <trkpt lat="44.99909" lon="1.09854">
        <ele>119.59999847412</ele>
        <time>2011-07-13T14:55:58.000Z</time>
      </trkpt>
      <trkpt lat="44.99901" lon="1.0985">
        <ele>120.59999847412</ele>
        <time>2011-07-13T14:56:05.000Z</time>
      </trkpt>
      <trkpt lat="44.99899" lon="1.09849">
        <ele>120.19999694824</ele>
        <time>2011-07-13T14:56:06.000Z</time>
      </trkpt>
      <trkpt lat="44.9989" lon="1.09844">
        <ele>124</ele>
        <time>2011-07-13T14:56:13.000Z</time>
      </trkpt>
      <trkpt lat="44.99883" lon="1.09841">
        <ele>125.40000152588</ele>
        <time>2011-07-13T14:56:19.000Z</time>
      </trkpt>
      <trkpt lat="44.99875" lon="1.09836">
        <ele>127.80000305176</ele>
        <time>2011-07-13T14:56:26.000Z</time>
      </trkpt>
      <trkpt lat="44.99871" lon="1.09825">
        <ele>127</ele>
        <time>2011-07-13T14:56:31.000Z</time>
      </trkpt>
      <trkpt lat="44.99874" lon="1.09812">
        <ele>127</ele>
        <time>2011-07-13T14:56:36.000Z</time>
      </trkpt>
      <trkpt lat="44.99877" lon="1.09797">
        <ele>127.40000152588</ele>
        <time>2011-07-13T14:56:42.000Z</time>
      </trkpt>
      <trkpt lat="44.99881" lon="1.09782">
        <ele>127.59999847412</ele>
        <time>2011-07-13T14:56:48.000Z</time>
      </trkpt>
      <trkpt lat="44.99886" lon="1.0977">
        <ele>126.19999694824</ele>
        <time>2011-07-13T14:56:54.000Z</time>
      </trkpt>
      <trkpt lat="44.99888" lon="1.09762">
        <ele>130.39999389648</ele>
        <time>2011-07-13T14:56:59.000Z</time>
      </trkpt>
      <trkpt lat="44.99889" lon="1.09754">
        <ele>155</ele>
        <time>2011-07-13T14:58:09.000Z</time>
      </trkpt>
      <trkpt lat="44.99896" lon="1.09744">
        <ele>153.60000610352</ele>
        <time>2011-07-13T14:58:15.000Z</time>
      </trkpt>
      <trkpt lat="44.99897" lon="1.09742">
        <ele>153.60000610352</ele>
        <time>2011-07-13T14:58:16.000Z</time>
      </trkpt>
      <trkpt lat="44.99902" lon="1.09734">
        <ele>154</ele>
        <time>2011-07-13T14:58:22.000Z</time>
      </trkpt>
      <trkpt lat="44.99909" lon="1.09722">
        <ele>154.19999694824</ele>
        <time>2011-07-13T14:58:29.000Z</time>
      </trkpt>
      <trkpt lat="44.99913" lon="1.09717">
        <ele>154</ele>
        <time>2011-07-13T14:58:35.000Z</time>
      </trkpt>
      <trkpt lat="44.99919" lon="1.09712">
        <ele>154.60000610352</ele>
        <time>2011-07-13T14:58:42.000Z</time>
      </trkpt>
      <trkpt lat="44.99924" lon="1.09708">
        <ele>156.39999389648</ele>
        <time>2011-07-13T14:58:48.000Z</time>
      </trkpt>
      <trkpt lat="44.9993" lon="1.09702">
        <ele>157.19999694824</ele>
        <time>2011-07-13T14:58:55.000Z</time>
      </trkpt>
      <trkpt lat="44.99936" lon="1.09695">
        <ele>158</ele>
        <time>2011-07-13T14:59:02.000Z</time>
      </trkpt>
      <trkpt lat="44.99944" lon="1.09683">
        <ele>157.19999694824</ele>
        <time>2011-07-13T14:59:10.000Z</time>
      </trkpt>
      <trkpt lat="44.99947" lon="1.09677">
        <ele>156</ele>
        <time>2011-07-13T14:59:15.000Z</time>
      </trkpt>
      <trkpt lat="44.9995" lon="1.09669">
        <ele>156.39999389648</ele>
        <time>2011-07-13T14:59:22.000Z</time>
      </trkpt>
      <trkpt lat="44.99952" lon="1.09663">
        <ele>156.80000305176</ele>
        <time>2011-07-13T14:59:27.000Z</time>
      </trkpt>
      <trkpt lat="44.99952" lon="1.09662">
        <ele>157</ele>
        <time>2011-07-13T14:59:28.000Z</time>
      </trkpt>
      <trkpt lat="44.99955" lon="1.09656">
        <ele>158.19999694824</ele>
        <time>2011-07-13T14:59:35.000Z</time>
      </trkpt>
      <trkpt lat="44.99955" lon="1.0965">
        <ele>159.80000305176</ele>
        <time>2011-07-13T14:59:39.000Z</time>
      </trkpt>
      <trkpt lat="44.99952" lon="1.09644">
        <ele>162</ele>
        <time>2011-07-13T14:59:44.000Z</time>
      </trkpt>
      <trkpt lat="44.99948" lon="1.09637">
        <ele>161.80000305176</ele>
        <time>2011-07-13T14:59:50.000Z</time>
      </trkpt>
      <trkpt lat="44.99945" lon="1.0963">
        <ele>164.19999694824</ele>
        <time>2011-07-13T14:59:56.000Z</time>
      </trkpt>
      <trkpt lat="44.99945" lon="1.0963">
        <ele>164</ele>
        <time>2011-07-13T14:59:57.000Z</time>
      </trkpt>
      <trkpt lat="44.99944" lon="1.09629">
        <ele>161.39999389648</ele>
        <time>2011-07-13T15:02:01.000Z</time>
      </trkpt>
      <trkpt lat="44.99952" lon="1.09619">
        <ele>158.60000610352</ele>
        <time>2011-07-13T15:02:08.000Z</time>
      </trkpt>
      <trkpt lat="44.99956" lon="1.0961">
        <ele>158</ele>
        <time>2011-07-13T15:02:12.000Z</time>
      </trkpt>
      <trkpt lat="44.99962" lon="1.09593">
        <ele>159.60000610352</ele>
        <time>2011-07-13T15:02:19.000Z</time>
      </trkpt>
      <trkpt lat="44.99968" lon="1.09582">
        <ele>162</ele>
        <time>2011-07-13T15:02:25.000Z</time>
      </trkpt>
      <trkpt lat="44.9997" lon="1.09578">
        <ele>161.39999389648</ele>
        <time>2011-07-13T15:02:27.000Z</time>
      </trkpt>
      <trkpt lat="44.9997" lon="1.09562">
        <ele>160.80000305176</ele>
        <time>2011-07-13T15:02:35.000Z</time>
      </trkpt>
      <trkpt lat="44.99969" lon="1.0955">
        <ele>159.60000610352</ele>
        <time>2011-07-13T15:02:40.000Z</time>
      </trkpt>
      <trkpt lat="44.99967" lon="1.09545">
        <ele>159.39999389648</ele>
        <time>2011-07-13T15:02:42.000Z</time>
      </trkpt>
      <trkpt lat="44.9996" lon="1.09535">
        <ele>160.39999389648</ele>
        <time>2011-07-13T15:02:48.000Z</time>
      </trkpt>
      <trkpt lat="44.9995" lon="1.09522">
        <ele>161.19999694824</ele>
        <time>2011-07-13T15:02:56.000Z</time>
      </trkpt>
      <trkpt lat="44.99944" lon="1.09514">
        <ele>162.80000305176</ele>
        <time>2011-07-13T15:03:02.000Z</time>
      </trkpt>
      <trkpt lat="44.99938" lon="1.09497">
        <ele>166.39999389648</ele>
        <time>2011-07-13T15:03:09.000Z</time>
      </trkpt>
      <trkpt lat="44.99932" lon="1.09483">
        <ele>168.39999389648</ele>
        <time>2011-07-13T15:03:16.000Z</time>
      </trkpt>
      <trkpt lat="44.99923" lon="1.09471">
        <ele>169.60000610352</ele>
        <time>2011-07-13T15:03:23.000Z</time>
      </trkpt>
      <trkpt lat="44.99916" lon="1.09464">
        <ele>169.80000305176</ele>
        <time>2011-07-13T15:03:28.000Z</time>
      </trkpt>
      <trkpt lat="44.99914" lon="1.09457">
        <ele>170.19999694824</ele>
        <time>2011-07-13T15:03:32.000Z</time>
      </trkpt>
      <trkpt lat="44.9992" lon="1.09443">
        <ele>169.19999694824</ele>
        <time>2011-07-13T15:03:39.000Z</time>
      </trkpt>
      <trkpt lat="44.99924" lon="1.09429">
        <ele>167.80000305176</ele>
        <time>2011-07-13T15:03:42.000Z</time>
      </trkpt>
      <trkpt lat="44.99925" lon="1.09405">
        <ele>165.39999389648</ele>
        <time>2011-07-13T15:03:46.000Z</time>
      </trkpt>
      <trkpt lat="44.99927" lon="1.09399">
        <ele>164.80000305176</ele>
        <time>2011-07-13T15:03:47.000Z</time>
      </trkpt>
      <trkpt lat="44.99914" lon="1.09376">
        <ele>166.19999694824</ele>
        <time>2011-07-13T15:03:51.000Z</time>
      </trkpt>
      <trkpt lat="44.99888" lon="1.09367">
        <ele>165.19999694824</ele>
        <time>2011-07-13T15:03:56.000Z</time>
      </trkpt>
      <trkpt lat="44.99868" lon="1.09362">
        <ele>164.39999389648</ele>
        <time>2011-07-13T15:04:00.000Z</time>
      </trkpt>
      <trkpt lat="44.99846" lon="1.0936">
        <ele>164.60000610352</ele>
        <time>2011-07-13T15:04:06.000Z</time>
      </trkpt>
      <trkpt lat="44.99825" lon="1.09362">
        <ele>163.60000610352</ele>
        <time>2011-07-13T15:04:13.000Z</time>
      </trkpt>
      <trkpt lat="44.99816" lon="1.09371">
        <ele>165</ele>
        <time>2011-07-13T15:04:18.000Z</time>
      </trkpt>
      <trkpt lat="44.99806" lon="1.09377">
        <ele>170.60000610352</ele>
        <time>2011-07-13T15:04:24.000Z</time>
      </trkpt>
      <trkpt lat="44.99801" lon="1.09376">
        <ele>172.19999694824</ele>
        <time>2011-07-13T15:04:28.000Z</time>
      </trkpt>
      <trkpt lat="44.99797" lon="1.09374">
        <ele>174</ele>
        <time>2011-07-13T15:04:31.000Z</time>
      </trkpt>
      <trkpt lat="44.99791" lon="1.09372">
        <ele>174.19999694824</ele>
        <time>2011-07-13T15:04:36.000Z</time>
      </trkpt>
      <trkpt lat="44.99785" lon="1.09373">
        <ele>175</ele>
        <time>2011-07-13T15:04:41.000Z</time>
      </trkpt>
      <trkpt lat="44.99777" lon="1.09374">
        <ele>176.39999389648</ele>
        <time>2011-07-13T15:04:48.000Z</time>
      </trkpt>
      <trkpt lat="44.99769" lon="1.09373">
        <ele>176.80000305176</ele>
        <time>2011-07-13T15:04:54.000Z</time>
      </trkpt>
      <trkpt lat="44.99759" lon="1.09373">
        <ele>177.80000305176</ele>
        <time>2011-07-13T15:05:01.000Z</time>
      </trkpt>
      <trkpt lat="44.99749" lon="1.09371">
        <ele>179</ele>
        <time>2011-07-13T15:05:07.000Z</time>
      </trkpt>
      <trkpt lat="44.99734" lon="1.09369">
        <ele>177.39999389648</ele>
        <time>2011-07-13T15:05:14.000Z</time>
      </trkpt>
      <trkpt lat="44.99716" lon="1.09367">
        <ele>174.60000610352</ele>
        <time>2011-07-13T15:05:21.000Z</time>
      </trkpt>
      <trkpt lat="44.99701" lon="1.09363">
        <ele>174.39999389648</ele>
        <time>2011-07-13T15:05:28.000Z</time>
      </trkpt>
      <trkpt lat="44.99686" lon="1.09359">
        <ele>174.19999694824</ele>
        <time>2011-07-13T15:05:34.000Z</time>
      </trkpt>
      <trkpt lat="44.9967" lon="1.09358">
        <ele>174</ele>
        <time>2011-07-13T15:05:39.000Z</time>
      </trkpt>
      <trkpt lat="44.99659" lon="1.09357">
        <ele>173</ele>
        <time>2011-07-13T15:05:44.000Z</time>
      </trkpt>
      <trkpt lat="44.99649" lon="1.09356">
        <ele>172.39999389648</ele>
        <time>2011-07-13T15:05:49.000Z</time>
      </trkpt>
      <trkpt lat="44.99641" lon="1.0936">
        <ele>172.39999389648</ele>
        <time>2011-07-13T15:05:53.000Z</time>
      </trkpt>
      <trkpt lat="44.9964" lon="1.09364">
        <ele>172.80000305176</ele>
        <time>2011-07-13T15:05:55.000Z</time>
      </trkpt>
      <trkpt lat="44.99641" lon="1.09373">
        <ele>177.19999694824</ele>
        <time>2011-07-13T15:06:01.000Z</time>
      </trkpt>
      <trkpt lat="44.99641" lon="1.09378">
        <ele>177.19999694824</ele>
        <time>2011-07-13T15:06:03.000Z</time>
      </trkpt>
      <trkpt lat="44.99639" lon="1.09382">
        <ele>177</ele>
        <time>2011-07-13T15:06:05.000Z</time>
      </trkpt>
      <trkpt lat="44.99639" lon="1.09392">
        <ele>180.39999389648</ele>
        <time>2011-07-13T15:06:10.000Z</time>
      </trkpt>
      <trkpt lat="44.99637" lon="1.09402">
        <ele>182</ele>
        <time>2011-07-13T15:06:14.000Z</time>
      </trkpt>
      <trkpt lat="44.99634" lon="1.09413">
        <ele>184.60000610352</ele>
        <time>2011-07-13T15:06:19.000Z</time>
      </trkpt>
      <trkpt lat="44.99632" lon="1.09431">
        <ele>190.60000610352</ele>
        <time>2011-07-13T15:06:26.000Z</time>
      </trkpt>
      <trkpt lat="44.99632" lon="1.09434">
        <ele>191.19999694824</ele>
        <time>2011-07-13T15:06:27.000Z</time>
      </trkpt>
      <trkpt lat="44.99633" lon="1.09449">
        <ele>194.80000305176</ele>
        <time>2011-07-13T15:06:34.000Z</time>
      </trkpt>
      <trkpt lat="44.99633" lon="1.09468">
        <ele>197.80000305176</ele>
        <time>2011-07-13T15:06:42.000Z</time>
      </trkpt>
      <trkpt lat="44.99633" lon="1.09471">
        <ele>197.60000610352</ele>
        <time>2011-07-13T15:06:44.000Z</time>
      </trkpt>
      <trkpt lat="44.99631" lon="1.09481">
        <ele>199</ele>
        <time>2011-07-13T15:06:50.000Z</time>
      </trkpt>
      <trkpt lat="44.99629" lon="1.09494">
        <ele>201</ele>
        <time>2011-07-13T15:06:56.000Z</time>
      </trkpt>
      <trkpt lat="44.99628" lon="1.09503">
        <ele>202.80000305176</ele>
        <time>2011-07-13T15:07:01.000Z</time>
      </trkpt>
      <trkpt lat="44.99627" lon="1.09507">
        <ele>202.19999694824</ele>
        <time>2011-07-13T15:07:03.000Z</time>
      </trkpt>
      <trkpt lat="44.99626" lon="1.09526">
        <ele>200.80000305176</ele>
        <time>2011-07-13T15:07:11.000Z</time>
      </trkpt>
      <trkpt lat="44.99624" lon="1.0954">
        <ele>204.19999694824</ele>
        <time>2011-07-13T15:07:18.000Z</time>
      </trkpt>
      <trkpt lat="44.99621" lon="1.09553">
        <ele>208</ele>
        <time>2011-07-13T15:07:25.000Z</time>
      </trkpt>
      <trkpt lat="44.9962" lon="1.09562">
        <ele>209.60000610352</ele>
        <time>2011-07-13T15:07:29.000Z</time>
      </trkpt>
      <trkpt lat="44.99619" lon="1.09574">
        <ele>213.19999694824</ele>
        <time>2011-07-13T15:07:35.000Z</time>
      </trkpt>
      <trkpt lat="44.99619" lon="1.09592">
        <ele>212.39999389648</ele>
        <time>2011-07-13T15:07:42.000Z</time>
      </trkpt>
      <trkpt lat="44.99619" lon="1.09604">
        <ele>210.19999694824</ele>
        <time>2011-07-13T15:07:47.000Z</time>
      </trkpt>
      <trkpt lat="44.99618" lon="1.0961">
        <ele>209.19999694824</ele>
        <time>2011-07-13T15:07:52.000Z</time>
      </trkpt>
      <trkpt lat="44.99618" lon="1.09611">
        <ele>208.80000305176</ele>
        <time>2011-07-13T15:07:54.000Z</time>
      </trkpt>
      <trkpt lat="44.99619" lon="1.09611">
        <ele>207</ele>
        <time>2011-07-13T15:08:02.000Z</time>
      </trkpt>
      <trkpt lat="44.99614" lon="1.09612">
        <ele>201.80000305176</ele>
        <time>2011-07-13T15:08:41.000Z</time>
      </trkpt>
      <trkpt lat="44.99614" lon="1.09616">
        <ele>207.60000610352</ele>
        <time>2011-07-13T15:12:25.000Z</time>
      </trkpt>
      <trkpt lat="44.99614" lon="1.0962">
        <ele>207.60000610352</ele>
        <time>2011-07-13T15:14:30.000Z</time>
      </trkpt>
      <trkpt lat="44.99605" lon="1.0962">
        <ele>207.39999389648</ele>
        <time>2011-07-13T15:14:37.000Z</time>
      </trkpt>
      <trkpt lat="44.99603" lon="1.09619">
        <ele>207.19999694824</ele>
        <time>2011-07-13T15:14:38.000Z</time>
      </trkpt>
      <trkpt lat="44.99596" lon="1.0962">
        <ele>207.19999694824</ele>
        <time>2011-07-13T15:14:42.000Z</time>
      </trkpt>
      <trkpt lat="44.99573" lon="1.09624">
        <ele>208</ele>
        <time>2011-07-13T15:14:53.000Z</time>
      </trkpt>
      <trkpt lat="44.99555" lon="1.09626">
        <ele>208</ele>
        <time>2011-07-13T15:15:00.000Z</time>
      </trkpt>
      <trkpt lat="44.99534" lon="1.09629">
        <ele>208.19999694824</ele>
        <time>2011-07-13T15:15:07.000Z</time>
      </trkpt>
      <trkpt lat="44.99502" lon="1.09632">
        <ele>209.19999694824</ele>
        <time>2011-07-13T15:15:18.000Z</time>
      </trkpt>
      <trkpt lat="44.99466" lon="1.09639">
        <ele>210.19999694824</ele>
        <time>2011-07-13T15:15:30.000Z</time>
      </trkpt>
      <trkpt lat="44.99448" lon="1.09649">
        <ele>211.19999694824</ele>
        <time>2011-07-13T15:15:37.000Z</time>
      </trkpt>
      <trkpt lat="44.99441" lon="1.0964">
        <ele>211.80000305176</ele>
        <time>2011-07-13T15:15:41.000Z</time>
      </trkpt>
      <trkpt lat="44.99441" lon="1.09637">
        <ele>211.80000305176</ele>
        <time>2011-07-13T15:15:42.000Z</time>
      </trkpt>
      <trkpt lat="44.99443" lon="1.09605">
        <ele>211</ele>
        <time>2011-07-13T15:15:50.000Z</time>
      </trkpt>
      <trkpt lat="44.99437" lon="1.0958">
        <ele>209.60000610352</ele>
        <time>2011-07-13T15:15:55.000Z</time>
      </trkpt>
      <trkpt lat="44.99416" lon="1.09545">
        <ele>207.60000610352</ele>
        <time>2011-07-13T15:16:02.000Z</time>
      </trkpt>
      <trkpt lat="44.99412" lon="1.0954">
        <ele>207.39999389648</ele>
        <time>2011-07-13T15:16:03.000Z</time>
      </trkpt>
      <trkpt lat="44.99391" lon="1.09509">
        <ele>205.39999389648</ele>
        <time>2011-07-13T15:16:08.000Z</time>
      </trkpt>
      <trkpt lat="44.99378" lon="1.09468">
        <ele>202.60000610352</ele>
        <time>2011-07-13T15:16:13.000Z</time>
      </trkpt>
      <trkpt lat="44.99377" lon="1.0944">
        <ele>202.19999694824</ele>
        <time>2011-07-13T15:16:16.000Z</time>
      </trkpt>
      <trkpt lat="44.99362" lon="1.09389">
        <ele>203.80000305176</ele>
        <time>2011-07-13T15:16:24.000Z</time>
      </trkpt>
      <trkpt lat="44.99343" lon="1.09342">
        <ele>206.80000305176</ele>
        <time>2011-07-13T15:16:33.000Z</time>
      </trkpt>
      <trkpt lat="44.9934" lon="1.09337">
        <ele>207.19999694824</ele>
        <time>2011-07-13T15:16:34.000Z</time>
      </trkpt>
      <trkpt lat="44.99328" lon="1.09307">
        <ele>207.39999389648</ele>
        <time>2011-07-13T15:16:41.000Z</time>
      </trkpt>
      <trkpt lat="44.99328" lon="1.09303">
        <ele>207</ele>
        <time>2011-07-13T15:16:42.000Z</time>
      </trkpt>
      <trkpt lat="44.99339" lon="1.09286">
        <ele>205.19999694824</ele>
        <time>2011-07-13T15:16:46.000Z</time>
      </trkpt>
      <trkpt lat="44.99368" lon="1.09245">
        <ele>202.80000305176</ele>
        <time>2011-07-13T15:16:53.000Z</time>
      </trkpt>
      <trkpt lat="44.99387" lon="1.09218">
        <ele>201.39999389648</ele>
        <time>2011-07-13T15:16:57.000Z</time>
      </trkpt>
      <trkpt lat="44.99389" lon="1.09184">
        <ele>200</ele>
        <time>2011-07-13T15:17:01.000Z</time>
      </trkpt>
      <trkpt lat="44.9937" lon="1.09129">
        <ele>197.80000305176</ele>
        <time>2011-07-13T15:17:07.000Z</time>
      </trkpt>
      <trkpt lat="44.99365" lon="1.09089">
        <ele>195.60000610352</ele>
        <time>2011-07-13T15:17:11.000Z</time>
      </trkpt>
      <trkpt lat="44.99351" lon="1.09044">
        <ele>188</ele>
        <time>2011-07-13T15:17:17.000Z</time>
      </trkpt>
      <trkpt lat="44.99343" lon="1.09028">
        <ele>184.80000305176</ele>
        <time>2011-07-13T15:17:19.000Z</time>
      </trkpt>
      <trkpt lat="44.99331" lon="1.09009">
        <ele>181</ele>
        <time>2011-07-13T15:17:22.000Z</time>
      </trkpt>
      <trkpt lat="44.99319" lon="1.08988">
        <ele>176.60000610352</ele>
        <time>2011-07-13T15:17:27.000Z</time>
      </trkpt>
      <trkpt lat="44.99317" lon="1.08978">
        <ele>174</ele>
        <time>2011-07-13T15:17:31.000Z</time>
      </trkpt>
      <trkpt lat="44.99312" lon="1.08961">
        <ele>169.39999389648</ele>
        <time>2011-07-13T15:17:35.000Z</time>
      </trkpt>
      <trkpt lat="44.99309" lon="1.08952">
        <ele>167</ele>
        <time>2011-07-13T15:17:38.000Z</time>
      </trkpt>
      <trkpt lat="44.99302" lon="1.08937">
        <ele>162.80000305176</ele>
        <time>2011-07-13T15:17:43.000Z</time>
      </trkpt>
      <trkpt lat="44.993" lon="1.08934">
        <ele>161.80000305176</ele>
        <time>2011-07-13T15:17:44.000Z</time>
      </trkpt>
      <trkpt lat="44.99298" lon="1.08925">
        <ele>160.60000610352</ele>
        <time>2011-07-13T15:17:46.000Z</time>
      </trkpt>
      <trkpt lat="44.99287" lon="1.08922">
        <ele>158</ele>
        <time>2011-07-13T15:17:50.000Z</time>
      </trkpt>
      <trkpt lat="44.99279" lon="1.08931">
        <ele>157.60000610352</ele>
        <time>2011-07-13T15:17:54.000Z</time>
      </trkpt>
      <trkpt lat="44.99269" lon="1.08942">
        <ele>158.80000305176</ele>
        <time>2011-07-13T15:17:59.000Z</time>
      </trkpt>
      <trkpt lat="44.99266" lon="1.08947">
        <ele>158.80000305176</ele>
        <time>2011-07-13T15:18:01.000Z</time>
      </trkpt>
      <trkpt lat="44.99256" lon="1.08948">
        <ele>159.19999694824</ele>
        <time>2011-07-13T15:18:07.000Z</time>
      </trkpt>
      <trkpt lat="44.99243" lon="1.08958">
        <ele>158.80000305176</ele>
        <time>2011-07-13T15:18:12.000Z</time>
      </trkpt>
      <trkpt lat="44.99239" lon="1.08964">
        <ele>159.39999389648</ele>
        <time>2011-07-13T15:18:15.000Z</time>
      </trkpt>
      <trkpt lat="44.99231" lon="1.08966">
        <ele>158.80000305176</ele>
        <time>2011-07-13T15:18:19.000Z</time>
      </trkpt>
      <trkpt lat="44.99227" lon="1.08967">
        <ele>158</ele>
        <time>2011-07-13T15:18:21.000Z</time>
      </trkpt>
      <trkpt lat="44.99217" lon="1.08965">
        <ele>155</ele>
        <time>2011-07-13T15:18:26.000Z</time>
      </trkpt>
      <trkpt lat="44.99209" lon="1.08961">
        <ele>152.80000305176</ele>
        <time>2011-07-13T15:18:31.000Z</time>
      </trkpt>
      <trkpt lat="44.99211" lon="1.08949">
        <ele>152</ele>
        <time>2011-07-13T15:18:34.000Z</time>
      </trkpt>
      <trkpt lat="44.99213" lon="1.08943">
        <ele>151.60000610352</ele>
        <time>2011-07-13T15:18:37.000Z</time>
      </trkpt>
      <trkpt lat="44.99205" lon="1.08941">
        <ele>149.39999389648</ele>
        <time>2011-07-13T15:18:42.000Z</time>
      </trkpt>
      <trkpt lat="44.99205" lon="1.08926">
        <ele>150.19999694824</ele>
        <time>2011-07-13T15:18:47.000Z</time>
      </trkpt>
      <trkpt lat="44.99207" lon="1.08901">
        <ele>149</ele>
        <time>2011-07-13T15:18:52.000Z</time>
      </trkpt>
      <trkpt lat="44.99209" lon="1.08889">
        <ele>146.60000610352</ele>
        <time>2011-07-13T15:18:54.000Z</time>
      </trkpt>
      <trkpt lat="44.99215" lon="1.08851">
        <ele>138.39999389648</ele>
        <time>2011-07-13T15:19:00.000Z</time>
      </trkpt>
      <trkpt lat="44.99215" lon="1.08839">
        <ele>135.19999694824</ele>
        <time>2011-07-13T15:19:02.000Z</time>
      </trkpt>
      <trkpt lat="44.99213" lon="1.08808">
        <ele>129.19999694824</ele>
        <time>2011-07-13T15:19:07.000Z</time>
      </trkpt>
      <trkpt lat="44.99209" lon="1.08791">
        <ele>126.19999694824</ele>
        <time>2011-07-13T15:19:10.000Z</time>
      </trkpt>
      <trkpt lat="44.99205" lon="1.08777">
        <ele>125.80000305176</ele>
        <time>2011-07-13T15:19:12.000Z</time>
      </trkpt>
      <trkpt lat="44.99186" lon="1.08749">
        <ele>122.80000305176</ele>
        <time>2011-07-13T15:19:17.000Z</time>
      </trkpt>
      <trkpt lat="44.99191" lon="1.08736">
        <ele>128</ele>
        <time>2011-07-13T15:19:22.000Z</time>
      </trkpt>
      <trkpt lat="44.9919" lon="1.08735">
        <ele>129.80000305176</ele>
        <time>2011-07-13T15:19:24.000Z</time>
      </trkpt>
      <trkpt lat="44.99197" lon="1.08727">
        <ele>134.19999694824</ele>
        <time>2011-07-13T15:21:01.000Z</time>
      </trkpt>
      <trkpt lat="44.99207" lon="1.08718">
        <ele>132.39999389648</ele>
        <time>2011-07-13T15:21:08.000Z</time>
      </trkpt>
      <trkpt lat="44.99208" lon="1.08716">
        <ele>132.39999389648</ele>
        <time>2011-07-13T15:21:09.000Z</time>
      </trkpt>
      <trkpt lat="44.99223" lon="1.08708">
        <ele>129.80000305176</ele>
        <time>2011-07-13T15:21:13.000Z</time>
      </trkpt>
      <trkpt lat="44.99237" lon="1.08696">
        <ele>129</ele>
        <time>2011-07-13T15:21:16.000Z</time>
      </trkpt>
      <trkpt lat="44.99256" lon="1.08681">
        <ele>128.19999694824</ele>
        <time>2011-07-13T15:21:21.000Z</time>
      </trkpt>
      <trkpt lat="44.99277" lon="1.08659">
        <ele>128.39999389648</ele>
        <time>2011-07-13T15:21:27.000Z</time>
      </trkpt>
      <trkpt lat="44.99299" lon="1.08643">
        <ele>130.39999389648</ele>
        <time>2011-07-13T15:21:33.000Z</time>
      </trkpt>
      <trkpt lat="44.99321" lon="1.08625">
        <ele>132.39999389648</ele>
        <time>2011-07-13T15:21:39.000Z</time>
      </trkpt>
      <trkpt lat="44.99347" lon="1.08604">
        <ele>134.80000305176</ele>
        <time>2011-07-13T15:21:46.000Z</time>
      </trkpt>
      <trkpt lat="44.9936" lon="1.08595">
        <ele>136.19999694824</ele>
        <time>2011-07-13T15:21:49.000Z</time>
      </trkpt>
      <trkpt lat="44.9938" lon="1.0858">
        <ele>136.60000610352</ele>
        <time>2011-07-13T15:21:54.000Z</time>
      </trkpt>
      <trkpt lat="44.99384" lon="1.08577">
        <ele>136.60000610352</ele>
        <time>2011-07-13T15:21:55.000Z</time>
      </trkpt>
      <trkpt lat="44.99403" lon="1.08556">
        <ele>134.60000610352</ele>
        <time>2011-07-13T15:22:00.000Z</time>
      </trkpt>
      <trkpt lat="44.99415" lon="1.08536">
        <ele>135.60000610352</ele>
        <time>2011-07-13T15:22:04.000Z</time>
      </trkpt>
      <trkpt lat="44.99417" lon="1.08532">
        <ele>134.60000610352</ele>
        <time>2011-07-13T15:22:05.000Z</time>
      </trkpt>
      <trkpt lat="44.99436" lon="1.08494">
        <ele>135.19999694824</ele>
        <time>2011-07-13T15:22:12.000Z</time>
      </trkpt>
      <trkpt lat="44.99447" lon="1.0847">
        <ele>138.39999389648</ele>
        <time>2011-07-13T15:22:17.000Z</time>
      </trkpt>
      <trkpt lat="44.9946" lon="1.08445">
        <ele>138</ele>
        <time>2011-07-13T15:22:23.000Z</time>
      </trkpt>
      <trkpt lat="44.99478" lon="1.08414">
        <ele>136.60000610352</ele>
        <time>2011-07-13T15:22:29.000Z</time>
      </trkpt>
      <trkpt lat="44.99488" lon="1.08397">
        <ele>133.39999389648</ele>
        <time>2011-07-13T15:22:32.000Z</time>
      </trkpt>
      <trkpt lat="44.99502" lon="1.08364">
        <ele>129.19999694824</ele>
        <time>2011-07-13T15:22:37.000Z</time>
      </trkpt>
      <trkpt lat="44.99509" lon="1.08345">
        <ele>126.80000305176</ele>
        <time>2011-07-13T15:22:40.000Z</time>
      </trkpt>
      <trkpt lat="44.99512" lon="1.08331">
        <ele>125.59999847412</ele>
        <time>2011-07-13T15:22:42.000Z</time>
      </trkpt>
      <trkpt lat="44.99521" lon="1.08297">
        <ele>123</ele>
        <time>2011-07-13T15:22:47.000Z</time>
      </trkpt>
      <trkpt lat="44.99529" lon="1.08239">
        <ele>125.80000305176</ele>
        <time>2011-07-13T15:22:55.000Z</time>
      </trkpt>
      <trkpt lat="44.99532" lon="1.08226">
        <ele>125.80000305176</ele>
        <time>2011-07-13T15:22:57.000Z</time>
      </trkpt>
      <trkpt lat="44.9953" lon="1.08201">
        <ele>125.40000152588</ele>
        <time>2011-07-13T15:23:01.000Z</time>
      </trkpt>
      <trkpt lat="44.99519" lon="1.08183">
        <ele>124.40000152588</ele>
        <time>2011-07-13T15:23:05.000Z</time>
      </trkpt>
      <trkpt lat="44.99513" lon="1.08176">
        <ele>124</ele>
        <time>2011-07-13T15:23:07.000Z</time>
      </trkpt>
      <trkpt lat="44.99485" lon="1.08157">
        <ele>122.19999694824</ele>
        <time>2011-07-13T15:23:15.000Z</time>
      </trkpt>
      <trkpt lat="44.99448" lon="1.08143">
        <ele>120.59999847412</ele>
        <time>2011-07-13T15:23:24.000Z</time>
      </trkpt>
      <trkpt lat="44.99416" lon="1.08136">
        <ele>118.59999847412</ele>
        <time>2011-07-13T15:23:31.000Z</time>
      </trkpt>
      <trkpt lat="44.99389" lon="1.08132">
        <ele>118.80000305176</ele>
        <time>2011-07-13T15:23:37.000Z</time>
      </trkpt>
      <trkpt lat="44.99377" lon="1.08133">
        <ele>119.19999694824</ele>
        <time>2011-07-13T15:23:40.000Z</time>
      </trkpt>
      <trkpt lat="44.99356" lon="1.0814">
        <ele>121.19999694824</ele>
        <time>2011-07-13T15:23:45.000Z</time>
      </trkpt>
      <trkpt lat="44.99335" lon="1.08139">
        <ele>121.59999847412</ele>
        <time>2011-07-13T15:23:50.000Z</time>
      </trkpt>
      <trkpt lat="44.99317" lon="1.08135">
        <ele>121.59999847412</ele>
        <time>2011-07-13T15:23:54.000Z</time>
      </trkpt>
      <trkpt lat="44.99289" lon="1.08127">
        <ele>121.80000305176</ele>
        <time>2011-07-13T15:24:01.000Z</time>
      </trkpt>
      <trkpt lat="44.99285" lon="1.08126">
        <ele>122</ele>
        <time>2011-07-13T15:24:02.000Z</time>
      </trkpt>
      <trkpt lat="44.9926" lon="1.08115">
        <ele>120</ele>
        <time>2011-07-13T15:24:08.000Z</time>
      </trkpt>
      <trkpt lat="44.99238" lon="1.08103">
        <ele>121</ele>
        <time>2011-07-13T15:24:13.000Z</time>
      </trkpt>
      <trkpt lat="44.99221" lon="1.08093">
        <ele>121</ele>
        <time>2011-07-13T15:24:17.000Z</time>
      </trkpt>
      <trkpt lat="44.99212" lon="1.08089">
        <ele>120.19999694824</ele>
        <time>2011-07-13T15:24:19.000Z</time>
      </trkpt>
      <trkpt lat="44.99191" lon="1.0808">
        <ele>120.80000305176</ele>
        <time>2011-07-13T15:24:24.000Z</time>
      </trkpt>
      <trkpt lat="44.9918" lon="1.08072">
        <ele>119</ele>
        <time>2011-07-13T15:24:27.000Z</time>
      </trkpt>
      <trkpt lat="44.99159" lon="1.08065">
        <ele>118.19999694824</ele>
        <time>2011-07-13T15:24:32.000Z</time>
      </trkpt>
      <trkpt lat="44.99146" lon="1.08068">
        <ele>119.19999694824</ele>
        <time>2011-07-13T15:24:35.000Z</time>
      </trkpt>
      <trkpt lat="44.99117" lon="1.08073">
        <ele>122.59999847412</ele>
        <time>2011-07-13T15:24:43.000Z</time>
      </trkpt>
      <trkpt lat="44.99099" lon="1.08077">
        <ele>123.80000305176</ele>
        <time>2011-07-13T15:24:49.000Z</time>
      </trkpt>
      <trkpt lat="44.99086" lon="1.08075">
        <ele>126.40000152588</ele>
        <time>2011-07-13T15:24:54.000Z</time>
      </trkpt>
      <trkpt lat="44.99069" lon="1.08065">
        <ele>129.19999694824</ele>
        <time>2011-07-13T15:25:00.000Z</time>
      </trkpt>
      <trkpt lat="44.99055" lon="1.08053">
        <ele>129.60000610352</ele>
        <time>2011-07-13T15:25:05.000Z</time>
      </trkpt>
      <trkpt lat="44.99048" lon="1.08042">
        <ele>129.60000610352</ele>
        <time>2011-07-13T15:25:09.000Z</time>
      </trkpt>
      <trkpt lat="44.99051" lon="1.08025">
        <ele>129.60000610352</ele>
        <time>2011-07-13T15:25:13.000Z</time>
      </trkpt>
      <trkpt lat="44.99052" lon="1.0802">
        <ele>129.19999694824</ele>
        <time>2011-07-13T15:25:14.000Z</time>
      </trkpt>
      <trkpt lat="44.99057" lon="1.07996">
        <ele>128.80000305176</ele>
        <time>2011-07-13T15:25:18.000Z</time>
      </trkpt>
      <trkpt lat="44.99057" lon="1.0797">
        <ele>126.80000305176</ele>
        <time>2011-07-13T15:25:21.000Z</time>
      </trkpt>
      <trkpt lat="44.99061" lon="1.07947">
        <ele>125.19999694824</ele>
        <time>2011-07-13T15:25:25.000Z</time>
      </trkpt>
      <trkpt lat="44.99061" lon="1.0794">
        <ele>122.40000152588</ele>
        <time>2011-07-13T15:25:30.000Z</time>
      </trkpt>
      <trkpt lat="44.99043" lon="1.0793">
        <ele>117.40000152588</ele>
        <time>2011-07-13T15:26:41.000Z</time>
      </trkpt>
      <trkpt lat="44.99041" lon="1.07926">
        <ele>116.80000305176</ele>
        <time>2011-07-13T15:26:42.000Z</time>
      </trkpt>
      <trkpt lat="44.99037" lon="1.07914">
        <ele>116.40000152588</ele>
        <time>2011-07-13T15:26:44.000Z</time>
      </trkpt>
      <trkpt lat="44.99021" lon="1.07889">
        <ele>114.80000305176</ele>
        <time>2011-07-13T15:26:49.000Z</time>
      </trkpt>
      <trkpt lat="44.99003" lon="1.07865">
        <ele>113.80000305176</ele>
        <time>2011-07-13T15:26:54.000Z</time>
      </trkpt>
      <trkpt lat="44.98987" lon="1.07843">
        <ele>114</ele>
        <time>2011-07-13T15:26:59.000Z</time>
      </trkpt>
      <trkpt lat="44.98964" lon="1.07823">
        <ele>115.59999847412</ele>
        <time>2011-07-13T15:27:06.000Z</time>
      </trkpt>
      <trkpt lat="44.98945" lon="1.07802">
        <ele>118.59999847412</ele>
        <time>2011-07-13T15:27:12.000Z</time>
      </trkpt>
      <trkpt lat="44.98928" lon="1.07778">
        <ele>120.59999847412</ele>
        <time>2011-07-13T15:27:18.000Z</time>
      </trkpt>
      <trkpt lat="44.98911" lon="1.07754">
        <ele>124</ele>
        <time>2011-07-13T15:27:24.000Z</time>
      </trkpt>
      <trkpt lat="44.98897" lon="1.0775">
        <ele>126.59999847412</ele>
        <time>2011-07-13T15:27:28.000Z</time>
      </trkpt>
      <trkpt lat="44.98882" lon="1.0776">
        <ele>129.60000610352</ele>
        <time>2011-07-13T15:27:33.000Z</time>
      </trkpt>
      <trkpt lat="44.98872" lon="1.07776">
        <ele>131.19999694824</ele>
        <time>2011-07-13T15:27:39.000Z</time>
      </trkpt>
      <trkpt lat="44.98868" lon="1.07781">
        <ele>131.80000305176</ele>
        <time>2011-07-13T15:27:42.000Z</time>
      </trkpt>
      <trkpt lat="44.98864" lon="1.07783">
        <ele>132</ele>
        <time>2011-07-13T15:27:47.000Z</time>
      </trkpt>
      <trkpt lat="44.98862" lon="1.07783">
        <ele>132.19999694824</ele>
        <time>2011-07-13T15:27:51.000Z</time>
      </trkpt>
      <trkpt lat="44.98861" lon="1.07761">
        <ele>137</ele>
        <time>2011-07-13T15:29:59.000Z</time>
      </trkpt>
      <trkpt lat="44.98851" lon="1.07758">
        <ele>135.80000305176</ele>
        <time>2011-07-13T15:30:03.000Z</time>
      </trkpt>
      <trkpt lat="44.98846" lon="1.07757">
        <ele>134.60000610352</ele>
        <time>2011-07-13T15:30:04.000Z</time>
      </trkpt>
      <trkpt lat="44.98813" lon="1.07738">
        <ele>130.80000305176</ele>
        <time>2011-07-13T15:30:10.000Z</time>
      </trkpt>
      <trkpt lat="44.98808" lon="1.07734">
        <ele>130.19999694824</ele>
        <time>2011-07-13T15:30:11.000Z</time>
      </trkpt>
      <trkpt lat="44.98777" lon="1.07693">
        <ele>126.40000152588</ele>
        <time>2011-07-13T15:30:17.000Z</time>
      </trkpt>
      <trkpt lat="44.9875" lon="1.07655">
        <ele>121.19999694824</ele>
        <time>2011-07-13T15:30:22.000Z</time>
      </trkpt>
      <trkpt lat="44.9873" lon="1.07627">
        <ele>118.59999847412</ele>
        <time>2011-07-13T15:30:26.000Z</time>
      </trkpt>
      <trkpt lat="44.9872" lon="1.07608">
        <ele>117.40000152588</ele>
        <time>2011-07-13T15:30:29.000Z</time>
      </trkpt>
      <trkpt lat="44.98705" lon="1.07586">
        <ele>110.19999694824</ele>
        <time>2011-07-13T15:30:33.000Z</time>
      </trkpt>
      <trkpt lat="44.98687" lon="1.07562">
        <ele>103.80000305176</ele>
        <time>2011-07-13T15:30:38.000Z</time>
      </trkpt>
      <trkpt lat="44.98664" lon="1.07524">
        <ele>98.199996948242</ele>
        <time>2011-07-13T15:30:42.000Z</time>
      </trkpt>
      <trkpt lat="44.98655" lon="1.07489">
        <ele>94.800003051758</ele>
        <time>2011-07-13T15:30:46.000Z</time>
      </trkpt>
      <trkpt lat="44.98642" lon="1.07442">
        <ele>91</ele>
        <time>2011-07-13T15:30:51.000Z</time>
      </trkpt>
      <trkpt lat="44.98638" lon="1.07429">
        <ele>89.599998474121</ele>
        <time>2011-07-13T15:30:52.000Z</time>
      </trkpt>
      <trkpt lat="44.98627" lon="1.07394">
        <ele>86.800003051758</ele>
        <time>2011-07-13T15:30:55.000Z</time>
      </trkpt>
      <trkpt lat="44.98622" lon="1.07366">
        <ele>83.199996948242</ele>
        <time>2011-07-13T15:30:58.000Z</time>
      </trkpt>
      <trkpt lat="44.98625" lon="1.07345">
        <ele>80.800003051758</ele>
        <time>2011-07-13T15:31:02.000Z</time>
      </trkpt>
      <trkpt lat="44.98628" lon="1.07343">
        <ele>85.400001525879</ele>
        <time>2011-07-13T15:31:06.000Z</time>
      </trkpt>
      <trkpt lat="44.98637" lon="1.07328">
        <ele>94.800003051758</ele>
        <time>2011-07-13T15:32:10.000Z</time>
      </trkpt>
      <trkpt lat="44.98642" lon="1.0731">
        <ele>90.800003051758</ele>
        <time>2011-07-13T15:32:14.000Z</time>
      </trkpt>
      <trkpt lat="44.98651" lon="1.07289">
        <ele>91.599998474121</ele>
        <time>2011-07-13T15:32:19.000Z</time>
      </trkpt>
      <trkpt lat="44.98663" lon="1.07264">
        <ele>91.199996948242</ele>
        <time>2011-07-13T15:32:25.000Z</time>
      </trkpt>
      <trkpt lat="44.98668" lon="1.07252">
        <ele>91.199996948242</ele>
        <time>2011-07-13T15:32:27.000Z</time>
      </trkpt>
      <trkpt lat="44.98675" lon="1.07239">
        <ele>90.400001525879</ele>
        <time>2011-07-13T15:32:29.000Z</time>
      </trkpt>
      <trkpt lat="44.98693" lon="1.07204">
        <ele>91.599998474121</ele>
        <time>2011-07-13T15:32:34.000Z</time>
      </trkpt>
      <trkpt lat="44.98702" lon="1.07191">
        <ele>92.400001525879</ele>
        <time>2011-07-13T15:32:36.000Z</time>
      </trkpt>
      <trkpt lat="44.9873" lon="1.07158">
        <ele>93</ele>
        <time>2011-07-13T15:32:42.000Z</time>
      </trkpt>
      <trkpt lat="44.98743" lon="1.07146">
        <ele>93.800003051758</ele>
        <time>2011-07-13T15:32:46.000Z</time>
      </trkpt>
      <trkpt lat="44.98758" lon="1.07133">
        <ele>95.199996948242</ele>
        <time>2011-07-13T15:32:50.000Z</time>
      </trkpt>
      <trkpt lat="44.98785" lon="1.07116">
        <ele>98</ele>
        <time>2011-07-13T15:32:56.000Z</time>
      </trkpt>
      <trkpt lat="44.98802" lon="1.07106">
        <ele>100.19999694824</ele>
        <time>2011-07-13T15:33:00.000Z</time>
      </trkpt>
      <trkpt lat="44.98812" lon="1.0709">
        <ele>104.80000305176</ele>
        <time>2011-07-13T15:33:04.000Z</time>
      </trkpt>
      <trkpt lat="44.98804" lon="1.07076">
        <ele>105.19999694824</ele>
        <time>2011-07-13T15:33:07.000Z</time>
      </trkpt>
      <trkpt lat="44.98804" lon="1.07064">
        <ele>102.19999694824</ele>
        <time>2011-07-13T15:33:10.000Z</time>
      </trkpt>
      <trkpt lat="44.98814" lon="1.07062">
        <ele>98.800003051758</ele>
        <time>2011-07-13T15:33:13.000Z</time>
      </trkpt>
      <trkpt lat="44.98817" lon="1.07065">
        <ele>99.199996948242</ele>
        <time>2011-07-13T15:33:17.000Z</time>
      </trkpt>
      <trkpt lat="44.98839" lon="1.07062">
        <ele>102.59999847412</ele>
        <time>2011-07-13T15:33:28.000Z</time>
      </trkpt>
      <trkpt lat="44.98862" lon="1.07055">
        <ele>111.40000152588</ele>
        <time>2011-07-13T15:33:33.000Z</time>
      </trkpt>
      <trkpt lat="44.98877" lon="1.07046">
        <ele>114.19999694824</ele>
        <time>2011-07-13T15:33:36.000Z</time>
      </trkpt>
      <trkpt lat="44.98887" lon="1.0704">
        <ele>117</ele>
        <time>2011-07-13T15:33:38.000Z</time>
      </trkpt>
      <trkpt lat="44.98898" lon="1.07036">
        <ele>121.80000305176</ele>
        <time>2011-07-13T15:33:40.000Z</time>
      </trkpt>
      <trkpt lat="44.98913" lon="1.07023">
        <ele>125</ele>
        <time>2011-07-13T15:33:44.000Z</time>
      </trkpt>
      <trkpt lat="44.98914" lon="1.07009">
        <ele>116.40000152588</ele>
        <time>2011-07-13T15:33:49.000Z</time>
      </trkpt>
      <trkpt lat="44.9892" lon="1.0699">
        <ele>98</ele>
        <time>2011-07-13T15:33:54.000Z</time>
      </trkpt>
      <trkpt lat="44.98928" lon="1.06965">
        <ele>77.800003051758</ele>
        <time>2011-07-13T15:33:58.000Z</time>
      </trkpt>
      <trkpt lat="44.98931" lon="1.06945">
        <ele>68.599998474121</ele>
        <time>2011-07-13T15:34:00.000Z</time>
      </trkpt>
      <trkpt lat="44.98936" lon="1.06873">
        <ele>51.599998474121</ele>
        <time>2011-07-13T15:34:06.000Z</time>
      </trkpt>
      <trkpt lat="44.98937" lon="1.06818">
        <ele>43</ele>
        <time>2011-07-13T15:34:11.000Z</time>
      </trkpt>
      <trkpt lat="44.98943" lon="1.06777">
        <ele>44.400001525879</ele>
        <time>2011-07-13T15:34:15.000Z</time>
      </trkpt>
      <trkpt lat="44.98949" lon="1.06738">
        <ele>46.799999237061</ele>
        <time>2011-07-13T15:34:18.000Z</time>
      </trkpt>
      <trkpt lat="44.98973" lon="1.06667">
        <ele>48.400001525879</ele>
        <time>2011-07-13T15:34:26.000Z</time>
      </trkpt>
      <trkpt lat="44.98996" lon="1.06584">
        <ele>49.799999237061</ele>
        <time>2011-07-13T15:34:35.000Z</time>
      </trkpt>
      <trkpt lat="44.99012" lon="1.06508">
        <ele>50.200000762939</ele>
        <time>2011-07-13T15:34:42.000Z</time>
      </trkpt>
      <trkpt lat="44.9903" lon="1.06445">
        <ele>50.799999237061</ele>
        <time>2011-07-13T15:34:48.000Z</time>
      </trkpt>
      <trkpt lat="44.9905" lon="1.06361">
        <ele>50.599998474121</ele>
        <time>2011-07-13T15:34:56.000Z</time>
      </trkpt>
      <trkpt lat="44.99062" lon="1.06306">
        <ele>50.400001525879</ele>
        <time>2011-07-13T15:35:02.000Z</time>
      </trkpt>
      <trkpt lat="44.99066" lon="1.06255">
        <ele>52</ele>
        <time>2011-07-13T15:35:08.000Z</time>
      </trkpt>
      <trkpt lat="44.99066" lon="1.06181">
        <ele>58.599998474121</ele>
        <time>2011-07-13T15:35:17.000Z</time>
      </trkpt>
      <trkpt lat="44.99073" lon="1.06162">
        <ele>62.400001525879</ele>
        <time>2011-07-13T15:35:21.000Z</time>
      </trkpt>
      <trkpt lat="44.99081" lon="1.06163">
        <ele>63.400001525879</ele>
        <time>2011-07-13T15:35:23.000Z</time>
      </trkpt>
      <trkpt lat="44.99109" lon="1.06165">
        <ele>65.199996948242</ele>
        <time>2011-07-13T15:35:30.000Z</time>
      </trkpt>
      <trkpt lat="44.99125" lon="1.06167">
        <ele>66</ele>
        <time>2011-07-13T15:35:34.000Z</time>
      </trkpt>
      <trkpt lat="44.99163" lon="1.06168">
        <ele>66.199996948242</ele>
        <time>2011-07-13T15:35:43.000Z</time>
      </trkpt>
      <trkpt lat="44.99285" lon="1.06169">
        <ele>62.200000762939</ele>
        <time>2011-07-13T15:36:07.000Z</time>
      </trkpt>
      <trkpt lat="44.99319" lon="1.0617">
        <ele>61.200000762939</ele>
        <time>2011-07-13T15:36:13.000Z</time>
      </trkpt>
      <trkpt lat="44.99331" lon="1.06177">
        <ele>60.400001525879</ele>
        <time>2011-07-13T15:36:16.000Z</time>
      </trkpt>
      <trkpt lat="44.99328" lon="1.06188">
        <ele>59.799999237061</ele>
        <time>2011-07-13T15:36:18.000Z</time>
      </trkpt>
      <trkpt lat="44.99304" lon="1.06221">
        <ele>59.400001525879</ele>
        <time>2011-07-13T15:36:26.000Z</time>
      </trkpt>
      <trkpt lat="44.99287" lon="1.06243">
        <ele>60</ele>
        <time>2011-07-13T15:36:33.000Z</time>
      </trkpt>
      <trkpt lat="44.99275" lon="1.06261">
        <ele>60</ele>
        <time>2011-07-13T15:36:38.000Z</time>
      </trkpt>
      <trkpt lat="44.99254" lon="1.06292">
        <ele>59.599998474121</ele>
        <time>2011-07-13T15:36:46.000Z</time>
      </trkpt>
      <trkpt lat="44.99233" lon="1.0632">
        <ele>59.200000762939</ele>
        <time>2011-07-13T15:36:53.000Z</time>
      </trkpt>
      <trkpt lat="44.99216" lon="1.06328">
        <ele>59</ele>
        <time>2011-07-13T15:36:58.000Z</time>
      </trkpt>
      <trkpt lat="44.99194" lon="1.06323">
        <ele>58.799999237061</ele>
        <time>2011-07-13T15:37:04.000Z</time>
      </trkpt>
      <trkpt lat="44.99185" lon="1.06326">
        <ele>58.599998474121</ele>
        <time>2011-07-13T15:37:07.000Z</time>
      </trkpt>
      <trkpt lat="44.99181" lon="1.06344">
        <ele>58</ele>
        <time>2011-07-13T15:37:11.000Z</time>
      </trkpt>
      <trkpt lat="44.99177" lon="1.06371">
        <ele>58</ele>
        <time>2011-07-13T15:37:17.000Z</time>
      </trkpt>
      <trkpt lat="44.99173" lon="1.06387">
        <ele>59</ele>
        <time>2011-07-13T15:37:20.000Z</time>
      </trkpt>
      <trkpt lat="44.99166" lon="1.06414">
        <ele>60.200000762939</ele>
        <time>2011-07-13T15:37:25.000Z</time>
      </trkpt>
      <trkpt lat="44.99165" lon="1.06419">
        <ele>59.799999237061</ele>
        <time>2011-07-13T15:37:26.000Z</time>
      </trkpt>
      <trkpt lat="44.99163" lon="1.06433">
        <ele>60.799999237061</ele>
        <time>2011-07-13T15:37:31.000Z</time>
      </trkpt>
      <trkpt lat="44.99161" lon="1.06444">
        <ele>60.599998474121</ele>
        <time>2011-07-13T15:37:34.000Z</time>
      </trkpt>
      <trkpt lat="44.99159" lon="1.06471">
        <ele>59.200000762939</ele>
        <time>2011-07-13T15:37:41.000Z</time>
      </trkpt>
      <trkpt lat="44.99155" lon="1.06496">
        <ele>60.200000762939</ele>
        <time>2011-07-13T15:37:47.000Z</time>
      </trkpt>
      <trkpt lat="44.99153" lon="1.06521">
        <ele>60.200000762939</ele>
        <time>2011-07-13T15:37:53.000Z</time>
      </trkpt>
      <trkpt lat="44.99151" lon="1.06551">
        <ele>60</ele>
        <time>2011-07-13T15:38:00.000Z</time>
      </trkpt>
      <trkpt lat="44.99151" lon="1.06572">
        <ele>60.799999237061</ele>
        <time>2011-07-13T15:38:06.000Z</time>
      </trkpt>
      <trkpt lat="44.99148" lon="1.06592">
        <ele>60.799999237061</ele>
        <time>2011-07-13T15:38:11.000Z</time>
      </trkpt>
      <trkpt lat="44.99142" lon="1.06612">
        <ele>61.799999237061</ele>
        <time>2011-07-13T15:38:16.000Z</time>
      </trkpt>
      <trkpt lat="44.99135" lon="1.06636">
        <ele>62.400001525879</ele>
        <time>2011-07-13T15:38:21.000Z</time>
      </trkpt>
      <trkpt lat="44.99128" lon="1.06664">
        <ele>61.599998474121</ele>
        <time>2011-07-13T15:38:28.000Z</time>
      </trkpt>
      <trkpt lat="44.99122" lon="1.06689">
        <ele>61.400001525879</ele>
        <time>2011-07-13T15:38:34.000Z</time>
      </trkpt>
      <trkpt lat="44.99112" lon="1.06712">
        <ele>61.200000762939</ele>
        <time>2011-07-13T15:38:41.000Z</time>
      </trkpt>
      <trkpt lat="44.99098" lon="1.06737">
        <ele>61.400001525879</ele>
        <time>2011-07-13T15:38:48.000Z</time>
      </trkpt>
      <trkpt lat="44.99086" lon="1.06762">
        <ele>62</ele>
        <time>2011-07-13T15:38:55.000Z</time>
      </trkpt>
      <trkpt lat="44.99085" lon="1.06765">
        <ele>62.200000762939</ele>
        <time>2011-07-13T15:38:56.000Z</time>
      </trkpt>
      <trkpt lat="44.99078" lon="1.06789">
        <ele>63</ele>
        <time>2011-07-13T15:39:02.000Z</time>
      </trkpt>
      <trkpt lat="44.99071" lon="1.06817">
        <ele>65.800003051758</ele>
        <time>2011-07-13T15:39:08.000Z</time>
      </trkpt>
      <trkpt lat="44.99062" lon="1.06845">
        <ele>68.800003051758</ele>
        <time>2011-07-13T15:39:13.000Z</time>
      </trkpt>
      <trkpt lat="44.99055" lon="1.06876">
        <ele>69.800003051758</ele>
        <time>2011-07-13T15:39:18.000Z</time>
      </trkpt>
      <trkpt lat="44.99049" lon="1.0691">
        <ele>67.800003051758</ele>
        <time>2011-07-13T15:39:24.000Z</time>
      </trkpt>
      <trkpt lat="44.99042" lon="1.06962">
        <ele>66</ele>
        <time>2011-07-13T15:39:33.000Z</time>
      </trkpt>
      <trkpt lat="44.99034" lon="1.06996">
        <ele>64.800003051758</ele>
        <time>2011-07-13T15:39:39.000Z</time>
      </trkpt>
      <trkpt lat="44.99025" lon="1.07018">
        <ele>64</ele>
        <time>2011-07-13T15:39:43.000Z</time>
      </trkpt>
      <trkpt lat="44.99005" lon="1.07043">
        <ele>62</ele>
        <time>2011-07-13T15:39:49.000Z</time>
      </trkpt>
      <trkpt lat="44.98999" lon="1.0706">
        <ele>60.599998474121</ele>
        <time>2011-07-13T15:39:52.000Z</time>
      </trkpt>
      <trkpt lat="44.99" lon="1.07073">
        <ele>61.200000762939</ele>
        <time>2011-07-13T15:39:54.000Z</time>
      </trkpt>
      <trkpt lat="44.99015" lon="1.07119">
        <ele>61.400001525879</ele>
        <time>2011-07-13T15:40:02.000Z</time>
      </trkpt>
      <trkpt lat="44.99023" lon="1.07132">
        <ele>61.599998474121</ele>
        <time>2011-07-13T15:40:05.000Z</time>
      </trkpt>
      <trkpt lat="44.99049" lon="1.07155">
        <ele>63.200000762939</ele>
        <time>2011-07-13T15:40:12.000Z</time>
      </trkpt>
      <trkpt lat="44.99083" lon="1.07186">
        <ele>63.400001525879</ele>
        <time>2011-07-13T15:40:21.000Z</time>
      </trkpt>
      <trkpt lat="44.99087" lon="1.07189">
        <ele>63.400001525879</ele>
        <time>2011-07-13T15:40:22.000Z</time>
      </trkpt>
      <trkpt lat="44.99129" lon="1.07212">
        <ele>63.799999237061</ele>
        <time>2011-07-13T15:40:32.000Z</time>
      </trkpt>
      <trkpt lat="44.99171" lon="1.07235">
        <ele>65.199996948242</ele>
        <time>2011-07-13T15:40:42.000Z</time>
      </trkpt>
      <trkpt lat="44.99211" lon="1.07256">
        <ele>65</ele>
        <time>2011-07-13T15:40:51.000Z</time>
      </trkpt>
      <trkpt lat="44.99243" lon="1.07274">
        <ele>64.800003051758</ele>
        <time>2011-07-13T15:40:58.000Z</time>
      </trkpt>
      <trkpt lat="44.99273" lon="1.07285">
        <ele>64.199996948242</ele>
        <time>2011-07-13T15:41:05.000Z</time>
      </trkpt>
      <trkpt lat="44.99289" lon="1.07298">
        <ele>63.599998474121</ele>
        <time>2011-07-13T15:41:09.000Z</time>
      </trkpt>
      <trkpt lat="44.99317" lon="1.0731">
        <ele>63.599998474121</ele>
        <time>2011-07-13T15:41:16.000Z</time>
      </trkpt>
      <trkpt lat="44.99354" lon="1.07323">
        <ele>63.799999237061</ele>
        <time>2011-07-13T15:41:26.000Z</time>
      </trkpt>
      <trkpt lat="44.99395" lon="1.07337">
        <ele>64</ele>
        <time>2011-07-13T15:41:37.000Z</time>
      </trkpt>
      <trkpt lat="44.99426" lon="1.07348">
        <ele>64.199996948242</ele>
        <time>2011-07-13T15:41:45.000Z</time>
      </trkpt>
      <trkpt lat="44.99435" lon="1.07347">
        <ele>64</ele>
        <time>2011-07-13T15:41:47.000Z</time>
      </trkpt>
      <trkpt lat="44.99452" lon="1.07345">
        <ele>64.199996948242</ele>
        <time>2011-07-13T15:41:51.000Z</time>
      </trkpt>
      <trkpt lat="44.99471" lon="1.07354">
        <ele>64.199996948242</ele>
        <time>2011-07-13T15:41:56.000Z</time>
      </trkpt>
      <trkpt lat="44.99478" lon="1.07358">
        <ele>64.199996948242</ele>
        <time>2011-07-13T15:41:58.000Z</time>
      </trkpt>
      <trkpt lat="44.99518" lon="1.07372">
        <ele>64.800003051758</ele>
        <time>2011-07-13T15:42:08.000Z</time>
      </trkpt>
      <trkpt lat="44.99559" lon="1.07386">
        <ele>64</ele>
        <time>2011-07-13T15:42:18.000Z</time>
      </trkpt>
      <trkpt lat="44.99589" lon="1.07393">
        <ele>65.199996948242</ele>
        <time>2011-07-13T15:42:26.000Z</time>
      </trkpt>
      <trkpt lat="44.99617" lon="1.07402">
        <ele>68.400001525879</ele>
        <time>2011-07-13T15:42:33.000Z</time>
      </trkpt>
      <trkpt lat="44.99651" lon="1.07413">
        <ele>66.599998474121</ele>
        <time>2011-07-13T15:42:42.000Z</time>
      </trkpt>
      <trkpt lat="44.99686" lon="1.0742">
        <ele>65</ele>
        <time>2011-07-13T15:42:51.000Z</time>
      </trkpt>
      <trkpt lat="44.99715" lon="1.07428">
        <ele>65.199996948242</ele>
        <time>2011-07-13T15:42:59.000Z</time>
      </trkpt>
      <trkpt lat="44.99717" lon="1.07429">
        <ele>65.800003051758</ele>
        <time>2011-07-13T15:43:01.000Z</time>
      </trkpt>
      <trkpt lat="44.99715" lon="1.07432">
        <ele>65.599998474121</ele>
        <time>2011-07-13T15:43:06.000Z</time>
      </trkpt>
      <trkpt lat="44.99716" lon="1.0743">
        <ele>66.400001525879</ele>
        <time>2011-07-13T15:43:12.000Z</time>
      </trkpt>
      <trkpt lat="44.99733" lon="1.07432">
        <ele>68.599998474121</ele>
        <time>2011-07-13T15:43:20.000Z</time>
      </trkpt>
      <trkpt lat="44.99752" lon="1.07437">
        <ele>68.400001525879</ele>
        <time>2011-07-13T15:43:27.000Z</time>
      </trkpt>
      <trkpt lat="44.9977" lon="1.07442">
        <ele>68.800003051758</ele>
        <time>2011-07-13T15:43:35.000Z</time>
      </trkpt>
      <trkpt lat="44.99785" lon="1.07445">
        <ele>70</ele>
        <time>2011-07-13T15:43:42.000Z</time>
      </trkpt>
      <trkpt lat="44.99799" lon="1.07447">
        <ele>68.800003051758</ele>
        <time>2011-07-13T15:43:48.000Z</time>
      </trkpt>
      <trkpt lat="44.9982" lon="1.0745">
        <ele>68.599998474121</ele>
        <time>2011-07-13T15:43:55.000Z</time>
      </trkpt>
      <trkpt lat="44.99838" lon="1.07451">
        <ele>67.400001525879</ele>
        <time>2011-07-13T15:44:00.000Z</time>
      </trkpt>
      <trkpt lat="44.99861" lon="1.07452">
        <ele>66.800003051758</ele>
        <time>2011-07-13T15:44:07.000Z</time>
      </trkpt>
      <trkpt lat="44.99885" lon="1.07453">
        <ele>65.599998474121</ele>
        <time>2011-07-13T15:44:15.000Z</time>
      </trkpt>
      <trkpt lat="44.99906" lon="1.07453">
        <ele>64.800003051758</ele>
        <time>2011-07-13T15:44:22.000Z</time>
      </trkpt>
      <trkpt lat="44.99926" lon="1.07453">
        <ele>64.599998474121</ele>
        <time>2011-07-13T15:44:28.000Z</time>
      </trkpt>
      <trkpt lat="44.99945" lon="1.07454">
        <ele>65.199996948242</ele>
        <time>2011-07-13T15:44:34.000Z</time>
      </trkpt>
      <trkpt lat="44.99964" lon="1.07458">
        <ele>65.199996948242</ele>
        <time>2011-07-13T15:44:42.000Z</time>
      </trkpt>
      <trkpt lat="44.99983" lon="1.07464">
        <ele>66.400001525879</ele>
        <time>2011-07-13T15:44:50.000Z</time>
      </trkpt>
      <trkpt lat="45.00001" lon="1.07467">
        <ele>65.800003051758</ele>
        <time>2011-07-13T15:44:57.000Z</time>
      </trkpt>
      <trkpt lat="45.00007" lon="1.07455">
        <ele>65.800003051758</ele>
        <time>2011-07-13T15:45:02.000Z</time>
      </trkpt>
      <trkpt lat="45.0001" lon="1.07437">
        <ele>64</ele>
        <time>2011-07-13T15:45:08.000Z</time>
      </trkpt>
      <trkpt lat="45.00013" lon="1.07417">
        <ele>62.799999237061</ele>
        <time>2011-07-13T15:45:15.000Z</time>
      </trkpt>
      <trkpt lat="45.00017" lon="1.07396">
        <ele>60.799999237061</ele>
        <time>2011-07-13T15:45:21.000Z</time>
      </trkpt>
      <trkpt lat="45.00021" lon="1.07369">
        <ele>59.400001525879</ele>
        <time>2011-07-13T15:45:28.000Z</time>
      </trkpt>
      <trkpt lat="45.00025" lon="1.07345">
        <ele>58.799999237061</ele>
        <time>2011-07-13T15:45:34.000Z</time>
      </trkpt>
      <trkpt lat="45.00031" lon="1.07312">
        <ele>57.400001525879</ele>
        <time>2011-07-13T15:45:42.000Z</time>
      </trkpt>
      <trkpt lat="45.00039" lon="1.07294">
        <ele>57.400001525879</ele>
        <time>2011-07-13T15:45:48.000Z</time>
      </trkpt>
      <trkpt lat="45.00051" lon="1.0728">
        <ele>57.400001525879</ele>
        <time>2011-07-13T15:45:54.000Z</time>
      </trkpt>
      <trkpt lat="45.00056" lon="1.07258">
        <ele>57.799999237061</ele>
        <time>2011-07-13T15:46:00.000Z</time>
      </trkpt>
      <trkpt lat="45.00059" lon="1.07225">
        <ele>58.400001525879</ele>
        <time>2011-07-13T15:46:07.000Z</time>
      </trkpt>
      <trkpt lat="45.00062" lon="1.07206">
        <ele>58.599998474121</ele>
        <time>2011-07-13T15:46:11.000Z</time>
      </trkpt>
      <trkpt lat="45.00074" lon="1.07202">
        <ele>59.200000762939</ele>
        <time>2011-07-13T15:46:16.000Z</time>
      </trkpt>
      <trkpt lat="45.00079" lon="1.07202">
        <ele>60</ele>
        <time>2011-07-13T15:46:18.000Z</time>
      </trkpt>
      <trkpt lat="45.00085" lon="1.07203">
        <ele>60.200000762939</ele>
        <time>2011-07-13T15:46:20.000Z</time>
      </trkpt>
      <trkpt lat="45.00099" lon="1.07193">
        <ele>61.400001525879</ele>
        <time>2011-07-13T15:46:25.000Z</time>
      </trkpt>
      <trkpt lat="45.00111" lon="1.07194">
        <ele>62.200000762939</ele>
        <time>2011-07-13T15:46:29.000Z</time>
      </trkpt>
      <trkpt lat="45.00113" lon="1.07208">
        <ele>61.799999237061</ele>
        <time>2011-07-13T15:46:33.000Z</time>
      </trkpt>
      <trkpt lat="45.00111" lon="1.0721">
        <ele>62</ele>
        <time>2011-07-13T15:46:36.000Z</time>
      </trkpt>
      <trkpt lat="45.00112" lon="1.07189">
        <ele>61</ele>
        <time>2011-07-13T15:46:47.000Z</time>
      </trkpt>
      <trkpt lat="45.00117" lon="1.07178">
        <ele>60.599998474121</ele>
        <time>2011-07-13T15:46:51.000Z</time>
      </trkpt>
      <trkpt lat="45.00122" lon="1.07166">
        <ele>60.599998474121</ele>
        <time>2011-07-13T15:46:55.000Z</time>
      </trkpt>
      <trkpt lat="45.00126" lon="1.07143">
        <ele>59.599998474121</ele>
        <time>2011-07-13T15:47:02.000Z</time>
      </trkpt>
      <trkpt lat="45.00127" lon="1.0714">
        <ele>60</ele>
        <time>2011-07-13T15:47:03.000Z</time>
      </trkpt>
      <trkpt lat="45.00138" lon="1.07136">
        <ele>60.799999237061</ele>
        <time>2011-07-13T15:47:08.000Z</time>
      </trkpt>
      <trkpt lat="45.00141" lon="1.07136">
        <ele>60.799999237061</ele>
        <time>2011-07-13T15:47:09.000Z</time>
      </trkpt>
      <trkpt lat="45.00152" lon="1.07134">
        <ele>61.200000762939</ele>
        <time>2011-07-13T15:47:14.000Z</time>
      </trkpt>
      <trkpt lat="45.00159" lon="1.07137">
        <ele>61.400001525879</ele>
        <time>2011-07-13T15:47:17.000Z</time>
      </trkpt>
      <trkpt lat="45.00168" lon="1.07148">
        <ele>61.200000762939</ele>
        <time>2011-07-13T15:47:22.000Z</time>
      </trkpt>
      <trkpt lat="45.00181" lon="1.07155">
        <ele>60.599998474121</ele>
        <time>2011-07-13T15:47:29.000Z</time>
      </trkpt>
      <trkpt lat="45.00183" lon="1.07157">
        <ele>60.599998474121</ele>
        <time>2011-07-13T15:47:32.000Z</time>
      </trkpt>
    </trkseg>
  </trk>
</gpx>